[[{"header":{"parameterUnit":"m.s-1","parameterCategory":1,"la1":30.6,"la2":29.2853,"lo1":-89.7004,"lo2":-87.6739,"dy":0.0162,"dx":0.0183,"nx":112,"ny":82,"refTime":"2025-04-24T06:00:00:Z","depth":0,"parameterNumber":2,"parameterNumberName":"U-component_of_WINDS"},"data":[0.0,0.0,0.0,0.0,0.0,0.0,0.0,0.0,0.0,0.0,0.0,0.0,0.0,0.0,0.0,0.0,0.0,0.0,0.0,0.0,0.0,0.0,0.0,0.0,0.0,0.0,0.0,0.0,0.0,0.0,0.0,0.0,0.0,0.0,0.0,0.0,0.0,0.0,0.0,0.0,0.0,0.0,0.0,0.0,0.0,0.0,0.0,0.0,0.0,0.0,0.0,0.0,0.0,0.0,0.0,0.0,0.0,0.0,0.0,0.0,0.0,0.0,0.0,0.0,0.0,0.0,0.0,0.0,0.0,0.0,0.0,0.0,0.0,0.0,0.0,0.0,0.0,0.0,0.0,0.0,0.0,0.0,0.0,0.0,0.0,0.0,0.0,0.0,0.0,0.0,-4.2893,-4.3431,-4.485,-4.579,-4.5881,-4.5089,-4.3619,-4.1307,0.0,0.0,0.0,0.0,0.0,0.0,0.0,0.0,0.0,0.0,0.0,0.0,0.0,0.0,0.0,0.0,0.0,0.0,0.0,0.0,0.0,0.0,0.0,0.0,0.0,0.0,0.0,0.0,0.0,0.0,0.0,0.0,0.0,0.0,0.0,0.0,0.0,0.0,0.0,0.0,0.0,0.0,0.0,0.0,0.0,0.0,0.0,0.0,0.0,0.0,0.0,0.0,0.0,0.0,0.0,0.0,0.0,0.0,0.0,0.0,0.0,0.0,0.0,0.0,0.0,0.0,0.0,0.0,0.0,0.0,0.0,0.0,0.0,0.0,0.0,0.0,0.0,0.0,0.0,0.0,0.0,0.0,0.0,0.0,0.0,0.0,0.0,0.0,0.0,0.0,0.0,0.0,0.0,0.0,0.0,0.0,0.0,0.0,0.0,0.0,0.0,0.0,0.0,0.0,-4.2016,-4.4921,-4.5466,-4.5677,-4.5803,-4.4463,-4.2873,-4.1133,0.0,0.0,0.0,0.0,0.0,0.0,0.0,0.0,0.0,0.0,0.0,0.0,0.0,0.0,0.0,0.0,0.0,0.0,0.0,0.0,0.0,0.0,0.0,0.0,0.0,0.0,0.0,0.0,0.0,0.0,0.0,0.0,0.0,0.0,0.0,0.0,0.0,0.0,0.0,0.0,0.0,0.0,0.0,0.0,0.0,0.0,0.0,0.0,0.0,0.0,0.0,0.0,0.0,0.0,0.0,0.0,0.0,0.0,0.0,0.0,0.0,0.0,0.0,0.0,0.0,0.0,0.0,0.0,0.0,0.0,0.0,0.0,0.0,0.0,0.0,0.0,0.0,0.0,0.0,0.0,0.0,0.0,0.0,0.0,0.0,0.0,0.0,0.0,0.0,0.0,0.0,0.0,0.0,0.0,0.0,0.0,0.0,0.0,0.0,0.0,0.0,0.0,0.0,-4.1277,-4.2335,-4.5287,-4.5594,-4.5648,-4.5783,-4.4263,-4.2635,-4.1098,-3.9351,0.0,0.0,0.0,0.0,0.0,0.0,0.0,0.0,0.0,0.0,0.0,0.0,0.0,0.0,0.0,0.0,0.0,0.0,0.0,0.0,0.0,0.0,0.0,0.0,0.0,0.0,0.0,0.0,0.0,0.0,0.0,0.0,0.0,0.0,0.0,0.0,0.0,0.0,0.0,0.0,0.0,0.0,0.0,0.0,0.0,0.0,0.0,0.0,0.0,0.0,0.0,0.0,0.0,0.0,0.0,0.0,0.0,0.0,0.0,0.0,0.0,0.0,0.0,0.0,0.0,0.0,0.0,0.0,0.0,0.0,0.0,0.0,0.0,0.0,0.0,0.0,0.0,0.0,0.0,0.0,0.0,0.0,0.0,0.0,0.0,0.0,0.0,0.0,0.0,0.0,0.0,0.0,0.0,0.0,0.0,0.0,0.0,0.0,0.0,0.0,0.0,0.0,-4.2604,-4.3431,-4.5383,-4.5594,-4.5643,-4.574,-4.4002,-4.2363,-4.1031,-3.8139,0.0,0.0,0.0,0.0,0.0,0.0,0.0,0.0,0.0,0.0,0.0,0.0,0.0,0.0,0.0,0.0,0.0,0.0,0.0,0.0,0.0,0.0,0.0,0.0,0.0,0.0,0.0,0.0,0.0,0.0,0.0,0.0,0.0,0.0,0.0,0.0,0.0,0.0,0.0,0.0,0.0,0.0,0.0,0.0,0.0,0.0,0.0,0.0,0.0,0.0,0.0,0.0,0.0,0.0,0.0,0.0,0.0,0.0,0.0,0.0,0.0,0.0,0.0,0.0,0.0,0.0,0.0,0.0,0.0,0.0,0.0,0.0,0.0,0.0,0.0,0.0,0.0,0.0,0.0,0.0,0.0,0.0,0.0,0.0,0.0,0.0,0.0,0.0,0.0,0.0,0.0,0.0,0.0,0.0,0.0,0.0,0.0,0.0,0.0,0.0,0.0,0.0,-4.3401,-4.5402,-4.5575,-4.5594,-4.5603,-4.5612,-4.3443,-4.1718,-4.0866,-3.6952,0.0,0.0,0.0,0.0,0.0,0.0,0.0,0.0,0.0,0.0,0.0,0.0,0.0,0.0,0.0,0.0,0.0,0.0,0.0,0.0,0.0,0.0,0.0,0.0,0.0,0.0,0.0,0.0,0.0,0.0,0.0,0.0,0.0,0.0,0.0,0.0,0.0,0.0,0.0,0.0,0.0,0.0,0.0,0.0,0.0,0.0,0.0,0.0,0.0,0.0,0.0,0.0,0.0,0.0,0.0,0.0,0.0,0.0,0.0,0.0,0.0,0.0,0.0,0.0,0.0,0.0,0.0,0.0,0.0,0.0,0.0,0.0,0.0,0.0,0.0,0.0,0.0,0.0,0.0,0.0,0.0,0.0,0.0,0.0,0.0,0.0,0.0,0.0,0.0,0.0,0.0,0.0,0.0,0.0,0.0,0.0,0.0,0.0,0.0,0.0,0.0,0.0,-4.1809,-4.3608,0.0,-4.5594,-4.5383,-4.4836,-4.3505,-4.1666,-3.9261,0.0,0.0,0.0,0.0,0.0,0.0,0.0,0.0,0.0,0.0,0.0,0.0,0.0,0.0,0.0,0.0,0.0,0.0,0.0,0.0,0.0,0.0,0.0,0.0,0.0,0.0,0.0,0.0,0.0,0.0,0.0,0.0,0.0,0.0,0.0,0.0,0.0,0.0,0.0,0.0,0.0,0.0,0.0,0.0,0.0,0.0,0.0,0.0,0.0,0.0,0.0,0.0,0.0,0.0,0.0,0.0,0.0,0.0,0.0,0.0,0.0,0.0,0.0,0.0,0.0,0.0,0.0,0.0,0.0,0.0,0.0,0.0,0.0,0.0,0.0,0.0,0.0,0.0,0.0,0.0,0.0,0.0,0.0,0.0,0.0,0.0,0.0,0.0,0.0,0.0,0.0,0.0,0.0,0.0,0.0,0.0,0.0,0.0,0.0,0.0,0.0,0.0,-3.9107,-4.1053,-4.2976,0.0,-4.5291,-4.496,-4.4355,-4.2816,-4.0815,-3.826,0.0,0.0,0.0,0.0,0.0,0.0,0.0,0.0,0.0,0.0,0.0,0.0,0.0,0.0,0.0,0.0,0.0,0.0,0.0,0.0,0.0,0.0,0.0,0.0,0.0,0.0,0.0,0.0,0.0,0.0,0.0,0.0,0.0,0.0,0.0,0.0,0.0,0.0,0.0,0.0,0.0,0.0,0.0,0.0,0.0,0.0,0.0,0.0,0.0,0.0,0.0,0.0,0.0,0.0,0.0,0.0,0.0,0.0,0.0,0.0,0.0,0.0,0.0,0.0,0.0,0.0,0.0,0.0,0.0,0.0,0.0,0.0,0.0,0.0,0.0,0.0,0.0,0.0,0.0,0.0,0.0,0.0,0.0,0.0,0.0,0.0,0.0,0.0,0.0,0.0,0.0,0.0,0.0,0.0,0.0,0.0,0.0,0.0,0.0,0.0,0.0,0.0,-3.8169,-4.1597,-4.4175,-4.4982,-4.4585,-4.4269,-4.425,-4.1219,-3.8945,0.0,0.0,0.0,0.0,0.0,0.0,0.0,0.0,0.0,0.0,0.0,0.0,0.0,0.0,0.0,0.0,0.0,0.0,0.0,0.0,0.0,0.0,0.0,0.0,0.0,0.0,0.0,0.0,0.0,0.0,0.0,0.0,0.0,0.0,0.0,0.0,0.0,0.0,0.0,0.0,0.0,0.0,0.0,0.0,0.0,0.0,0.0,0.0,0.0,0.0,0.0,0.0,0.0,0.0,0.0,0.0,0.0,0.0,0.0,0.0,0.0,0.0,0.0,0.0,0.0,0.0,0.0,0.0,0.0,0.0,0.0,0.0,0.0,0.0,0.0,0.0,0.0,0.0,0.0,0.0,0.0,0.0,0.0,0.0,0.0,0.0,0.0,0.0,0.0,0.0,0.0,0.0,0.0,0.0,0.0,0.0,0.0,0.0,0.0,0.0,0.0,0.0,0.0,-3.6972,-3.9721,-4.182,-4.287,-4.2841,-4.2517,-4.1947,-4.0654,-3.8739,-3.609,0.0,0.0,0.0,0.0,0.0,0.0,0.0,0.0,0.0,0.0,0.0,0.0,0.0,0.0,0.0,0.0,0.0,0.0,0.0,0.0,0.0,0.0,0.0,0.0,0.0,0.0,0.0,0.0,0.0,0.0,0.0,0.0,0.0,0.0,0.0,0.0,0.0,0.0,0.0,0.0,0.0,0.0,0.0,0.0,0.0,0.0,0.0,0.0,0.0,0.0,0.0,0.0,0.0,0.0,0.0,0.0,0.0,0.0,0.0,0.0,0.0,0.0,0.0,0.0,0.0,0.0,0.0,0.0,0.0,0.0,0.0,0.0,0.0,0.0,0.0,0.0,0.0,0.0,0.0,0.0,0.0,0.0,0.0,0.0,0.0,0.0,0.0,0.0,0.0,0.0,0.0,0.0,0.0,0.0,0.0,0.0,0.0,0.0,0.0,0.0,0.0,0.0,-3.5812,-3.8606,-4.0787,-4.1787,-4.1732,-4.1439,-4.0936,-3.9665,-3.7755,-3.505,0.0,0.0,0.0,0.0,0.0,0.0,0.0,0.0,0.0,0.0,0.0,0.0,0.0,0.0,0.0,0.0,0.0,0.0,0.0,0.0,0.0,0.0,0.0,0.0,0.0,0.0,0.0,0.0,0.0,0.0,0.0,0.0,0.0,0.0,0.0,0.0,0.0,0.0,0.0,0.0,0.0,0.0,0.0,0.0,0.0,0.0,0.0,0.0,0.0,0.0,0.0,0.0,0.0,0.0,0.0,0.0,0.0,0.0,0.0,0.0,0.0,0.0,0.0,0.0,0.0,0.0,0.0,0.0,0.0,0.0,0.0,0.0,0.0,0.0,0.0,0.0,0.0,0.0,0.0,0.0,0.0,0.0,0.0,0.0,0.0,0.0,0.0,0.0,0.0,0.0,0.0,0.0,0.0,0.0,0.0,0.0,0.0,0.0,0.0,0.0,0.0,0.0,-3.4692,-3.797,-4.0444,-4.1245,-4.0946,-4.0702,-4.0702,-3.8459,-3.6406,-3.485,0.0,0.0,0.0,0.0,0.0,0.0,0.0,0.0,0.0,0.0,0.0,0.0,0.0,0.0,0.0,0.0,0.0,0.0,0.0,0.0,0.0,0.0,0.0,0.0,0.0,0.0,0.0,0.0,0.0,0.0,0.0,0.0,0.0,0.0,0.0,0.0,0.0,0.0,0.0,0.0,0.0,0.0,0.0,0.0,0.0,0.0,0.0,0.0,0.0,0.0,0.0,0.0,0.0,0.0,0.0,0.0,0.0,0.0,0.0,0.0,-3.9786,0.0,0.0,0.0,0.0,0.0,0.0,0.0,0.0,0.0,0.0,0.0,0.0,0.0,0.0,0.0,0.0,0.0,0.0,0.0,0.0,0.0,0.0,0.0,0.0,0.0,0.0,0.0,0.0,0.0,0.0,0.0,0.0,0.0,0.0,0.0,0.0,0.0,0.0,0.0,0.0,0.0,-3.3862,-3.6425,-3.8435,-3.923,-3.9232,-3.918,-3.918,-3.7711,-3.6348,-3.5323,-3.2577,0.0,0.0,0.0,0.0,0.0,0.0,0.0,0.0,0.0,0.0,0.0,0.0,0.0,0.0,0.0,0.0,0.0,0.0,0.0,0.0,0.0,0.0,0.0,0.0,0.0,0.0,0.0,0.0,0.0,0.0,0.0,0.0,0.0,0.0,0.0,0.0,0.0,0.0,0.0,0.0,0.0,0.0,0.0,0.0,0.0,0.0,0.0,0.0,0.0,0.0,0.0,0.0,0.0,0.0,0.0,0.0,0.0,0.0,0.0,0.0,-4.0354,0.0,0.0,0.0,0.0,0.0,0.0,0.0,0.0,0.0,0.0,0.0,0.0,0.0,0.0,0.0,0.0,0.0,0.0,0.0,0.0,0.0,0.0,0.0,0.0,0.0,0.0,0.0,0.0,0.0,0.0,0.0,0.0,0.0,0.0,0.0,0.0,0.0,0.0,0.0,0.0,-3.3587,-3.5968,-3.7823,-3.8615,-3.8707,-3.8707,-3.8707,-3.7344,-3.613,-3.5254,-3.2743,0.0,0.0,0.0,0.0,0.0,0.0,0.0,0.0,0.0,0.0,0.0,0.0,0.0,0.0,0.0,0.0,0.0,0.0,0.0,0.0,0.0,0.0,0.0,0.0,0.0,0.0,0.0,0.0,0.0,0.0,0.0,0.0,0.0,0.0,0.0,0.0,0.0,0.0,0.0,0.0,0.0,0.0,0.0,0.0,0.0,0.0,0.0,0.0,0.0,0.0,0.0,0.0,0.0,-4.139,-4.1711,-4.2286,-4.2286,-4.2286,-4.2238,-4.1285,-4.1244,-4.1823,-4.1446,0.0,0.0,0.0,0.0,0.0,0.0,0.0,0.0,0.0,0.0,0.0,0.0,0.0,0.0,0.0,0.0,0.0,0.0,0.0,0.0,0.0,0.0,0.0,0.0,-3.8025,-3.7202,0.0,0.0,0.0,0.0,0.0,0.0,0.0,0.0,0.0,0.0,0.0,0.0,-3.3807,-3.6046,-3.7749,-3.8414,-3.8487,-3.8432,-3.8303,-3.6927,-3.5771,-3.5059,-3.3013,-3.1258,0.0,0.0,0.0,0.0,0.0,0.0,0.0,0.0,0.0,0.0,0.0,0.0,0.0,0.0,0.0,0.0,0.0,0.0,0.0,0.0,0.0,0.0,0.0,0.0,0.0,0.0,0.0,0.0,0.0,0.0,0.0,0.0,-4.2375,-4.3565,0.0,0.0,0.0,0.0,0.0,0.0,0.0,0.0,0.0,0.0,0.0,0.0,0.0,-4.1999,-4.1999,-4.1999,-4.2049,-4.2151,-4.2151,-4.2202,-4.2286,-4.2286,-4.2286,-4.2296,-4.2132,0.0,-4.2002,-4.1267,0.0,0.0,0.0,0.0,0.0,0.0,0.0,0.0,0.0,0.0,0.0,0.0,0.0,0.0,0.0,0.0,0.0,0.0,0.0,0.0,0.0,0.0,-4.1625,-4.0836,-4.0084,-3.9273,0.0,-3.58,-3.3392,-3.1673,-3.1409,0.0,0.0,0.0,0.0,0.0,0.0,0.0,-3.4637,-3.6395,-3.7547,-3.7658,-3.7658,-3.7382,-3.667,-3.572,-3.5133,-3.5023,-3.3416,-3.2395,-3.2175,-3.035,0.0,0.0,0.0,0.0,0.0,0.0,0.0,0.0,0.0,0.0,0.0,0.0,0.0,0.0,0.0,0.0,0.0,0.0,0.0,0.0,0.0,0.0,0.0,0.0,0.0,0.0,0.0,0.0,0.0,-4.158,-4.2423,-4.2992,-4.292,-4.2501,0.0,0.0,0.0,0.0,0.0,0.0,0.0,0.0,0.0,-4.2439,-4.276,-4.3132,-4.3599,-4.3149,-4.3149,-4.3599,-4.3132,-4.3149,-4.3599,-4.3599,-4.3599,-4.3599,-4.3599,-4.3294,-4.2766,-4.1916,-4.1256,-4.0744,0.0,0.0,0.0,0.0,-4.0818,-4.042,-4.1915,-4.1695,0.0,-4.0215,0.0,0.0,0.0,0.0,0.0,0.0,0.0,0.0,0.0,0.0,-4.2127,-4.1431,-4.1014,-4.0453,-3.9374,-3.7665,-3.5748,0.0,-3.3408,-3.2779,-3.0705,0.0,0.0,0.0,0.0,-3.3683,-3.4857,-3.6468,-3.7492,-3.7492,-3.7492,-3.718,-3.6358,-3.55,-3.5004,-3.5004,-3.3903,-3.306,-3.2619,-3.1667,-3.0394,0.0,0.0,0.0,0.0,0.0,0.0,0.0,0.0,0.0,0.0,0.0,0.0,0.0,0.0,0.0,0.0,0.0,0.0,0.0,0.0,0.0,0.0,0.0,0.0,0.0,0.0,0.0,0.0,-4.2117,-4.2658,-4.2844,-4.3538,-4.3392,0.0,0.0,0.0,0.0,0.0,0.0,-4.2844,-4.3064,-4.342,-4.395,-4.4181,-4.457,-4.5173,-4.457,-4.4485,-4.4857,-4.4282,-4.4198,-4.4615,-4.4615,-4.4615,-4.4615,-4.4615,-4.4248,-4.3633,-4.2775,-4.1859,-4.0972,-4.0971,-4.0403,-3.9729,-4.1038,-4.1035,-4.0636,-4.243,-4.2393,-4.1401,-4.0788,0.0,-3.9179,-3.7974,0.0,0.0,0.0,0.0,-4.0249,-4.1068,-4.1722,-4.2069,-4.1623,-4.1346,-4.0872,-3.9749,-3.887,-3.7696,0.0,-3.5233,-3.4527,-3.231,0.0,0.0,0.0,0.0,-3.4324,-3.5142,-3.6629,-3.7436,-3.7016,-3.7121,-3.6776,-3.5752,-3.5059,-3.4692,-3.4692,-3.4137,-3.3532,-3.2931,-3.2711,-3.1734,-2.9876,0.0,0.0,0.0,0.0,0.0,0.0,0.0,0.0,0.0,0.0,0.0,0.0,0.0,0.0,0.0,0.0,0.0,0.0,0.0,0.0,0.0,0.0,0.0,0.0,0.0,0.0,0.0,0.0,0.0,-4.4395,-4.5128,0.0,0.0,0.0,0.0,-4.3341,-4.3995,-4.4462,-4.4479,-4.5145,-4.5551,-4.5585,-4.6261,-4.6633,-4.6684,-4.6633,-4.6295,-4.5652,-4.5602,-4.5229,-4.4615,-4.4615,-4.4615,-4.4615,-4.4615,-4.4581,-4.4479,-4.3667,-4.2482,-4.1239,-4.1788,-4.1226,-4.0209,-4.1372,-4.1402,-4.0943,-4.1651,-4.1839,-4.1782,-4.1747,-4.0675,-3.9393,-3.9305,-3.8755,0.0,0.0,-3.9949,-4.0751,-4.1555,-4.1789,-4.1803,-4.1782,-4.1191,-4.0427,-3.9669,-3.887,-3.7824,0.0,-3.5863,-3.5314,-3.367,0.0,-3.3387,-3.3335,-3.4093,-3.496,-3.5739,-3.704,-3.7295,-3.5764,-3.6049,-3.5697,-3.4064,-3.388,-3.3862,-3.3862,-3.3825,-3.377,-3.3733,-3.3005,-3.2192,-3.1299,-2.9946,0.0,0.0,0.0,0.0,0.0,0.0,0.0,0.0,0.0,0.0,0.0,0.0,0.0,0.0,0.0,0.0,0.0,0.0,0.0,0.0,0.0,0.0,0.0,0.0,0.0,0.0,0.0,0.0,-4.6583,-4.6972,0.0,-4.5686,-4.5415,-4.5196,-4.4908,-4.5145,-4.5517,-4.5974,-4.6261,-4.6633,-4.7094,-4.7378,-4.775,-4.8206,-4.775,-4.7141,-4.6397,-4.5923,-4.5314,-4.4615,-4.4615,-4.4615,-4.4615,-4.4615,-4.4615,-4.4547,-4.3741,-4.2828,-4.1873,-4.1614,-4.0959,-4.0179,-4.0943,-4.1087,-4.0995,-4.1599,-4.1556,-4.1155,-4.0838,-4.0328,-3.9834,-3.9834,-3.9887,-4.0005,-4.0289,-4.0854,-4.1435,-4.174,-4.181,-4.1686,-4.1313,-4.0647,-3.9787,-3.8698,-3.7868,-3.7025,-3.5916,-3.5808,-3.5542,-3.4447,-3.427,-3.4094,-3.3582,-3.4623,-3.5578,-3.5861,-3.6345,-3.6256,-3.5169,-3.5081,-3.4621,-3.3513,-3.3652,-3.3807,-3.3807,-3.3807,-3.3807,-3.3807,-3.3036,-3.2228,-3.1415,-2.9888,-2.8268,0.0,0.0,0.0,0.0,0.0,0.0,0.0,0.0,0.0,0.0,0.0,0.0,0.0,0.0,0.0,0.0,0.0,0.0,0.0,0.0,0.0,0.0,0.0,0.0,0.0,0.0,-4.6532,-4.7736,-4.8359,-4.8257,-4.7276,-4.7175,-4.6989,-4.6498,-4.6684,-4.7039,-4.7513,-4.753,-4.7767,-4.8274,-4.8291,-4.8528,-4.9001,-4.8528,-4.7784,-4.6786,-4.6295,-4.5551,-4.4615,-4.4615,-4.4615,-4.4581,-4.4299,-4.4198,-4.413,-4.3352,-4.2591,-4.188,-4.139,-4.0747,-4.0146,-4.0497,-4.0733,-4.0949,-4.1358,-4.1127,-4.0577,-4.0229,-4.0096,-4.0096,-4.0096,-4.0343,-4.0631,-4.0631,-4.0914,-4.1218,-4.1218,-4.1218,-4.1145,-4.0726,-4.0081,-3.9225,-3.8153,-3.7313,-3.6575,-3.5752,-3.571,-3.5645,-3.5103,-3.4996,-3.4822,-3.4297,-3.4892,-3.5525,-3.5767,-3.5561,-3.5183,-3.4619,-3.4317,-3.3844,-3.3021,-3.3092,-3.3319,-3.3574,-3.3208,-3.3109,-3.3385,-3.2632,-3.1935,-3.1415,-2.9698,-2.8081,-2.6626,0.0,0.0,0.0,0.0,0.0,0.0,0.0,0.0,0.0,0.0,0.0,0.0,0.0,0.0,0.0,0.0,0.0,0.0,0.0,0.0,0.0,0.0,0.0,-4.4682,-4.5952,-4.7141,-4.7889,-4.9272,-4.9576,-4.8159,-4.9289,-4.9509,-4.8075,-4.8612,-4.9001,-4.9001,-4.9001,-4.9001,-4.9001,-4.9001,-4.9001,-4.9001,-4.9001,-4.8257,-4.6786,-4.6786,-4.6036,-4.4615,-4.4615,-4.4615,-4.4564,-4.3792,-4.3409,-4.3325,-4.2591,-4.1863,-4.1204,-4.1204,-4.0747,-4.0096,-4.0096,-4.0441,-4.0897,-4.0897,-4.0528,-4.0096,-4.0096,-4.0096,-4.0096,-4.0096,-4.0096,-4.0096,-4.0096,-4.0096,-4.0096,-4.0096,-4.0096,-4.0096,-4.0079,-3.9503,-3.8751,-3.8024,-3.728,-3.6518,-3.5752,-3.56,-3.56,-3.56,-3.56,-3.5583,-3.5566,-3.4962,0.0,-3.543,-3.472,-3.4129,-3.4051,-3.381,-3.3332,-3.2537,-3.2174,-3.2306,-3.3094,-3.2037,-3.1726,-3.2538,-3.1799,-3.1341,-3.1323,-2.9352,-2.7798,-2.671,0.0,0.0,0.0,0.0,0.0,0.0,0.0,0.0,0.0,0.0,0.0,0.0,0.0,0.0,0.0,0.0,0.0,0.0,0.0,0.0,0.0,-4.4401,-4.5585,-4.6109,-4.7462,-4.8866,-5.012,-5.0659,-5.0963,-5.1082,-5.049,-4.9915,-4.9526,-4.9187,-4.9001,-4.9001,-4.9001,-4.9001,-4.9001,-4.9001,-4.9001,-4.9001,-4.9001,-4.8257,-4.6786,-4.6786,-4.6036,-4.4615,-4.4615,-4.4615,-4.4598,-4.4378,-4.3944,-4.3325,-4.2591,-4.1863,-4.1204,-4.1204,-4.0747,-4.0096,-4.0096,-4.0179,-4.0311,-4.0311,-4.0229,-4.0096,-4.0096,-4.0096,-4.0096,-4.0096,-4.0096,-4.0096,-4.0096,-4.0096,-4.0096,-4.0096,-4.0096,-3.9977,-3.9436,-3.8734,-3.8007,-3.7246,-3.6485,-3.5853,-3.5633,-3.56,-3.56,-3.56,-3.56,-3.5414,-3.4878,-3.4624,0.0,-3.4066,-3.3315,-3.2821,-3.2801,-3.2511,-3.2231,-3.2004,-3.1727,-3.166,-3.1889,-3.1082,-3.0944,-3.1703,-3.0972,-3.0259,-2.9672,-2.8025,-2.7014,0.0,0.0,0.0,0.0,0.0,0.0,0.0,0.0,0.0,0.0,0.0,0.0,0.0,0.0,0.0,0.0,0.0,0.0,0.0,0.0,0.0,0.0,-4.6312,-4.7462,-4.8494,-4.912,-5.0016,-5.1505,-5.1674,-5.1843,-5.2266,-5.1251,-5.0422,-5.0101,-4.9424,-4.9001,-4.9001,-4.9001,-4.9001,-4.9001,-4.9001,-4.9001,-4.9001,-4.9001,-4.8257,-4.6786,-4.6786,-4.6036,-4.4615,-4.4615,-4.4615,-4.4581,-4.4231,-4.3656,-4.2878,-4.2134,-4.1407,0.0,0.0,0.0,0.0,0.0,-4.0286,-4.0121,-4.0343,-4.0286,-4.0096,-4.0096,-4.0096,-4.0096,-4.0096,-4.0096,-4.0096,-4.0096,-4.0096,-4.0096,-4.0096,-4.0096,-3.991,-3.9174,-3.8447,-3.7702,-3.6965,-3.6163,-3.56,-3.56,-3.56,0.0,-3.56,-3.5329,-3.4996,-3.4556,-3.3964,-3.3525,-3.3423,-3.2476,-3.1955,-3.2276,-3.1854,-3.1564,-3.1564,-3.1237,0.0,0.0,0.0,-3.0267,-3.0391,-2.9951,0.0,0.0,0.0,0.0,0.0,0.0,0.0,0.0,-2.7046,-2.6944,0.0,0.0,0.0,0.0,0.0,0.0,0.0,0.0,0.0,0.0,0.0,0.0,0.0,0.0,0.0,0.0,-4.8595,-4.9644,-5.1133,-5.076,-5.0828,-5.2147,-5.2384,-5.2435,-5.2435,-5.1708,-5.0947,-5.027,-4.9458,-4.9001,-4.9001,0.0,0.0,0.0,0.0,-4.9001,-4.9001,-4.8934,-4.8189,-4.6786,-4.6718,-4.594,-4.4615,-4.4615,-4.4615,-4.4564,-4.3758,-4.298,-4.2236,-4.1508,-4.0764,-4.0096,-4.0096,-4.0096,-4.0171,-4.0631,-4.0521,-4.0171,-4.0631,0.0,0.0,-4.0096,-4.0096,-4.0096,-4.0096,-4.0096,-4.0096,-4.0096,-4.0096,-4.0096,-4.0096,-4.0096,-3.9893,-3.9056,-3.8379,-3.7669,-3.6846,-3.6096,-3.56,-3.56,-3.56,-3.56,-3.56,-3.4996,-3.4455,-3.4387,-3.319,-3.2513,-3.3085,-3.2002,-3.1444,-3.2107,0.0,0.0,-3.119,-3.0787,-3.0852,-3.1561,-3.0661,-2.9804,-2.9149,-2.9114,-2.8961,-2.8609,-2.8523,-2.8648,-2.8993,-2.8993,-2.9044,-2.9077,-2.7278,-2.6971,0.0,0.0,0.0,0.0,0.0,0.0,0.0,0.0,0.0,0.0,0.0,0.0,0.0,0.0,0.0,-4.7582,-4.9018,-5.0388,-5.1877,-5.1961,-5.1978,-5.2266,-5.2875,-5.3264,-5.3264,-5.2029,-5.115,-5.1014,-4.9763,-4.9001,-4.9001,-4.9001,-4.9001,-4.9001,-4.9001,-4.9001,-4.9001,-4.8426,-4.7682,-4.6786,0.0,0.0,-4.4615,-4.4615,-4.4615,-4.4564,-4.3758,-4.298,-4.2236,-4.1508,-4.0764,-4.0096,-4.0096,-4.0096,-4.0121,-4.0229,-4.0179,-4.0121,-4.0229,-4.0179,-4.0096,-4.0096,-4.0096,-4.0096,-4.0096,-4.0096,0.0,-4.0096,-4.0096,-4.0096,-4.0096,-4.0096,-3.9774,-3.843,-3.8007,-3.7533,-3.6124,-3.5701,-3.56,-3.56,-3.56,-3.56,-3.56,-3.4996,-3.4303,-3.3694,-3.2848,-3.2141,-3.1681,-3.1376,-3.1241,-3.1393,-3.1275,-3.119,-3.119,-3.0573,-3.0274,-3.041,-3.0229,-3.0027,-2.9892,-2.9892,-2.9837,-2.9763,-2.9186,-2.8913,-2.8993,-2.8993,-2.9314,-2.9871,-2.8896,-2.8573,0.0,0.0,0.0,0.0,0.0,0.0,0.0,0.0,0.0,0.0,0.0,-4.0993,-4.2692,0.0,-4.6992,-4.9011,-5.0403,-5.1589,-5.2739,-5.2437,-5.2318,-5.2825,-5.3264,-5.3501,-5.3501,-5.2114,-5.1185,-5.1185,-4.9847,-4.9001,-4.9001,-4.9001,-4.9001,-4.9001,-4.9001,-4.9001,-4.9001,-4.8291,-4.753,-4.6786,-4.6058,-4.5314,-4.4615,-4.4615,-4.4615,-4.4564,-4.3758,-4.298,-4.2202,-4.1102,-4.0434,-4.0096,-4.0096,-4.0096,-4.0096,-4.0096,-4.0096,-4.0096,-4.0096,-4.0096,-4.0096,-4.0096,-4.0096,-4.0096,-4.0096,-4.0096,-4.0096,-4.0096,-4.0096,-4.0096,-4.0096,-4.0096,-3.974,-3.8261,-3.7905,-3.7483,-3.5921,-3.56,-3.56,-3.56,-3.56,-3.56,-3.56,-3.4692,-3.3829,-3.3457,-3.2459,-3.1633,-3.1241,-3.119,-3.119,-3.119,-3.119,-3.119,-3.119,-3.0869,-3.0649,-3.0649,-3.0649,-3.048,-3.0125,-3.0108,-3.0108,-3.0108,-2.9382,-2.9365,-3.011,-2.9719,-2.9922,-3.0632,-3.026,-3.011,0.0,0.0,0.0,0.0,0.0,0.0,0.0,0.0,-3.8856,-3.911,-4.0546,-4.2266,-4.3874,-4.594,-4.8159,-5.0443,-5.161,-5.2522,-5.3382,-5.2749,-5.2455,-5.318,-5.3213,-5.3213,-5.3247,-5.2029,-5.115,-5.1014,-4.9763,-4.9001,-4.9001,-4.9001,-4.9001,-4.9001,-4.9001,-4.9001,-4.9001,-4.8139,-4.7394,-4.6786,-4.5906,-4.5179,-4.4615,-4.4615,-4.4615,-4.4564,-4.3606,-4.2692,-4.1788,-4.0603,-4.0096,-4.0096,-4.0096,-4.0096,-4.0096,-4.0096,-4.0096,-4.0096,-4.0096,-4.0096,-4.0096,-4.0096,-4.0096,-4.0096,-4.0096,-4.0096,-4.0096,-4.0096,-4.0096,-4.0096,-4.0096,-4.0096,-3.9774,-3.843,-3.8007,-3.7533,-3.6124,-3.5701,-3.56,-3.56,-3.56,-3.56,-3.56,-3.4366,-3.3406,-3.3406,-3.2138,-3.119,-3.119,-3.119,-3.119,-3.119,-3.119,-3.119,-3.119,-3.119,-3.119,-3.119,-3.119,-3.092,-3.0345,-3.0311,-3.0311,-3.0311,-2.9583,-2.9873,-3.119,-3.0463,-3.048,-3.119,-3.119,-3.119,-3.8347,-3.7572,-3.6862,-3.7987,-3.781,-3.7853,0.0,0.0,-4.0502,-4.1722,-4.2566,-4.36,-4.5203,-4.6734,-4.8409,-5.0448,-5.1432,-5.23,-5.3332,-5.3382,-5.3079,-5.2486,-5.2228,-5.2152,-5.2386,-5.1708,-5.0947,-5.027,-4.9458,-4.9001,-4.9001,-4.9001,-4.9001,-4.9001,-4.9001,-4.9001,-4.9001,-4.7614,-4.687,-4.6769,-4.541,-4.4682,-4.4615,-4.4615,-4.4615,-4.453,-4.3047,-4.1627,-4.0333,-4.018,-4.0096,-4.0096,-4.0096,-4.0096,-4.0096,-4.0096,-4.0096,-4.0096,-4.0096,-4.0096,-4.0096,-4.0096,-4.0096,-4.0096,-4.0096,-4.0096,-4.0096,-4.0096,-4.0096,-4.0096,-4.0096,-4.0096,-3.9893,-3.9056,-3.8379,-3.7669,-3.6846,-3.6096,-3.56,-3.56,-3.56,-3.56,-3.56,-3.4366,-3.3406,-3.3406,-3.2138,-3.119,-3.119,-3.119,-3.119,-3.119,-3.119,-3.119,-3.119,-3.119,-3.119,-3.119,-3.119,-3.1157,-3.1072,-3.1072,-3.1072,-3.1072,-3.0362,-3.0378,-3.119,-3.0463,-3.048,-3.119,-3.119,-3.119,-3.8838,-3.8686,-3.8448,-3.8105,-3.8949,-3.9888,-3.9832,-4.0711,-4.1737,-4.2291,-4.3494,-4.4663,-4.5349,-4.7052,-4.8673,0.0,-5.0418,-5.1394,-5.2435,-5.1181,-5.0534,-5.139,-5.049,-5.0309,-5.156,-5.0997,-5.0422,-5.0101,-4.9424,-4.9001,-4.9001,-4.9001,-4.9001,-4.9001,-4.9001,-4.8798,-4.8376,-4.7327,-4.6583,-4.6143,-4.5106,-4.4615,-4.4615,-4.4615,-4.4124,-4.321,-4.2117,-4.1068,-4.0096,-4.0096,-4.0096,-4.0096,-4.0096,-4.0096,-4.0096,-4.0096,-4.0096,-4.0096,-4.0096,-4.0096,-4.0096,-4.0096,-4.0096,-4.0096,-4.0096,-4.0096,-4.0096,-4.0096,-4.0096,-4.0096,-4.0096,-4.0096,-3.991,-3.9174,-3.8447,-3.7702,-3.6965,-3.6163,-3.56,-3.56,-3.56,-3.56,-3.56,-3.4366,-3.3406,-3.3406,-3.2138,-3.119,-3.119,-3.119,-3.119,-3.119,-3.119,-3.119,-3.119,-3.119,-3.119,-3.119,-3.119,-3.119,-3.119,-3.119,-3.1004,-3.0581,-3.026,-3.026,-3.0565,-3.026,-3.048,-3.119,-3.119,-3.119,-3.9576,-3.9687,-3.9716,-3.8748,-4.0111,-4.1401,-4.0227,-4.1339,-4.2686,-4.2905,-4.4032,-4.508,-4.5259,-4.6841,-4.8209,-4.8465,-4.933,-5.0419,-5.1724,-4.9795,-4.8828,-5.0415,-4.93,-4.8866,-5.0073,-5.0143,-4.9999,-4.9796,-4.9306,-4.9001,-4.9001,-4.9001,-4.9001,-4.9001,-4.8798,-4.8443,-4.7889,-4.6972,-4.6227,-4.5703,-4.4942,-4.4615,-4.4598,-4.435,-4.3538,-4.2252,-4.1525,-4.0781,-4.0096,-4.0096,-4.0096,-4.0096,-4.0096,-4.0096,-4.0096,-4.0096,-4.0096,-4.0096,-4.0096,-4.0096,-4.0096,-4.0096,-4.0096,-4.0096,-4.0096,-4.0096,-4.0096,-4.0096,-4.0096,-4.0096,-4.0096,-4.0096,-3.991,-3.9174,-3.8447,-3.7702,-3.6965,-3.6163,-3.56,-3.56,-3.56,-3.56,-3.56,-3.4366,-3.3406,-3.3406,-3.2138,-3.119,-3.119,-3.119,-3.119,-3.119,-3.119,-3.119,-3.119,-3.119,-3.119,-3.119,-3.119,-3.119,-3.119,-3.119,-3.0954,-3.0412,-3.019,-3.0209,-3.0412,-3.0209,-3.048,-3.119,-3.119,-3.1089,-4.1126,-4.0625,-4.0221,-4.0697,-4.1247,-4.1648,-4.1385,-4.2342,-4.3439,-4.4122,-4.4302,-4.4541,-4.517,-4.5873,-4.6686,-4.7648,-4.8391,-4.956,-5.1614,-5.0448,-4.9462,-4.9776,-4.9154,-4.8445,0.0,-4.9152,-4.9796,-4.9086,-4.9018,-4.9001,-4.9001,-4.9001,-4.9001,-4.9001,-4.8325,-4.7906,-4.7889,-4.6464,-4.572,-4.5703,-4.4942,-4.4615,-4.4581,-4.3792,-4.3031,-4.2252,-4.1525,-4.0781,-4.0096,-4.0096,-4.0096,-4.0096,-4.0096,-4.0096,-4.0096,-4.0096,-4.0096,-4.0096,-4.0096,-4.0096,-4.0096,-4.0096,-4.0096,-4.0096,-4.0096,-4.0096,-4.0096,-4.0096,-4.0096,-4.0096,-4.0096,-4.0096,-3.991,-3.9174,-3.8447,-3.7702,-3.6965,-3.6163,-3.56,-3.56,-3.56,-3.56,-3.56,-3.4366,-3.3406,-3.3406,-3.2138,-3.119,-3.119,-3.119,-3.119,-3.119,-3.119,-3.119,-3.119,-3.119,-3.119,-3.119,-3.119,-3.119,-3.119,-3.119,-3.119,-3.1157,-3.0463,-3.0446,-3.1157,-3.0446,-3.048,-3.119,-3.119,-3.0818,-4.1204,-4.1711,-4.2194,-4.1835,-4.2173,-4.2506,-4.2289,-4.2486,-4.288,-4.3484,-4.3618,-4.3828,-4.4526,-4.484,-4.5398,-4.663,-4.6989,-4.7788,-4.9576,-4.8397,-4.7729,-4.8695,-4.8146,0.0,0.0,0.0,0.0,-4.9018,-4.9001,-4.9001,-4.9001,-4.9001,-4.9001,-4.9001,-4.8261,-4.7682,-4.7175,-4.6194,-4.5449,-4.4987,-4.4733,-4.4615,-4.4564,-4.325,-4.2523,-4.2219,-4.0984,-4.0333,-4.0096,-4.0096,-4.0096,-4.0096,-4.0096,-4.0096,-4.0096,-4.0096,-4.0096,-4.0096,-4.0096,-4.0096,-4.0096,-4.0096,-4.0096,-4.0096,-4.0096,-4.0096,-4.0096,-4.0096,-4.0096,-4.0096,-4.0096,-4.0096,-3.991,-3.9174,-3.8447,-3.7702,-3.6965,-3.6163,-3.56,-3.56,-3.56,-3.56,-3.56,-3.4366,-3.3068,-3.2087,-3.1512,-3.119,-3.119,-3.119,-3.119,-3.119,-3.119,-3.119,-3.119,-3.119,-3.119,-3.119,-3.119,-3.119,-3.119,-3.119,-3.097,-3.048,-3.0717,-3.0717,-3.048,-3.0717,-3.0954,-3.119,-3.119,-3.1072,-4.1525,-4.2489,-4.3277,-4.2725,-4.3043,-4.333,-4.2934,-4.287,-4.3063,-4.3455,-4.3297,-4.3235,-4.3659,-4.3672,-4.4047,-4.5394,-4.6117,-4.7037,-4.8579,-4.767,-4.7292,-4.8568,-4.8045,-4.7716,0.0,0.0,0.0,-4.9018,-4.9001,-4.9001,-4.9001,-4.9001,-4.8883,-4.8629,-4.7902,-4.7158,-4.6413,-4.5669,-4.506,-4.4615,-4.4615,-4.4615,-4.4564,-4.2997,-4.2286,-4.2202,-4.0756,-4.0096,-4.0096,-4.0096,-4.0096,-4.0096,-4.0096,-4.0096,-4.0096,-4.0096,-4.0096,-4.0096,-4.0096,-4.0096,-4.0096,-4.0096,-4.0096,-4.0096,-4.0096,-4.0096,-4.0096,-4.0096,-4.0096,-4.0096,-4.0096,-4.0096,-3.991,-3.9174,-3.8447,-3.7702,-3.6965,-3.6163,-3.56,-3.56,-3.56,-3.56,-3.56,-3.4366,-3.2983,-3.1785,-3.136,-3.119,-3.119,-3.119,-3.119,-3.119,-3.119,-3.119,-3.119,-3.119,-3.119,-3.119,-3.119,-3.119,-3.119,-3.119,-3.097,-3.0497,-3.0954,-3.097,-3.0497,-3.097,-3.119,-3.119,-3.119,-3.119,-4.2151,-4.2912,-4.3446,-4.338,-4.3817,-4.4048,-4.3234,-4.3516,-4.3944,-4.3976,-4.3289,-4.272,0.0,0.0,-4.2824,-4.4092,-4.5764,-4.7355,-4.8639,-4.8308,-4.831,0.0,0.0,0.0,0.0,0.0,0.0,-4.9069,0.0,-4.9001,-4.9001,-4.9001,-4.8663,-4.7906,-4.7175,-4.6447,-4.572,-4.4987,-4.4615,-4.4615,-4.4615,-4.4581,-4.4496,-4.2963,-4.2269,-4.2151,-4.0722,-4.0096,-4.0096,-4.0096,-4.0096,-4.0096,-4.0096,-4.0096,-4.0096,-4.0096,-4.0096,-4.0096,-4.0096,-4.0096,-4.0096,-4.0096,-4.0096,-4.0096,-4.0096,-4.0096,-4.0096,-4.0096,-4.0096,-4.0096,-4.0096,-4.0096,-3.991,-3.9174,-3.8464,-3.7736,-3.6981,-3.6197,-3.565,-3.56,-3.56,-3.5583,-3.5549,-3.4349,-3.3152,-3.2412,-3.1684,-3.119,-3.119,-3.119,-3.119,-3.119,-3.119,-3.119,-3.119,-3.119,-3.119,-3.119,-3.119,-3.119,-3.119,-3.119,-3.119,-3.119,-3.119,-3.119,-3.119,-3.119,-3.119,-3.1151,-3.119,-3.1171,-4.2929,-4.369,-4.4288,-4.4276,-4.3918,-4.3627,-4.3904,-4.359,-4.3403,-4.388,-4.3443,-4.2879,0.0,0.0,0.0,-4.4138,-4.5764,0.0,-4.8639,-4.9339,0.0,-5.0402,0.0,-5.0043,-4.9753,-4.994,0.0,0.0,-4.9001,-4.9001,-4.9001,-4.9001,-4.8663,-4.7906,-4.7175,-4.6447,-4.572,-4.4987,-4.4615,-4.4615,-4.4615,-4.4282,-4.3673,-4.2726,-4.1999,-4.1424,-4.0519,-4.0096,-4.0096,-4.0096,-4.0096,-4.0096,-4.0096,-4.0096,-4.0096,-4.0096,-4.0096,-4.0096,-4.0096,-4.0096,-4.0096,-4.0096,-4.0096,-4.0096,-4.0096,-4.0096,-4.0096,-4.0096,-4.0096,-4.0096,-4.0096,-4.0096,-3.991,-3.9174,-3.8853,-3.8362,-3.7083,-3.6643,-3.6315,-3.5718,-3.56,-3.543,-3.4878,-3.4015,-3.3152,-3.2412,-3.1684,-3.119,-3.119,-3.119,-3.119,-3.119,-3.119,-3.119,-3.119,-3.119,-3.119,-3.119,-3.119,-3.119,-3.119,-3.119,-3.119,-3.119,-3.119,-3.119,-3.119,-3.119,-3.0975,-3.0539,-3.0995,-3.072,-4.3274,-4.3995,-4.4615,-4.4615,-4.4224,-4.3877,-4.3914,-4.3789,-4.3617,-4.3309,-4.3193,0.0,-4.1678,-4.1906,0.0,0.0,0.0,0.0,-4.8836,-5.0189,-5.112,0.0,-5.126,0.0,-5.0614,-5.0591,-5.0135,0.0,-4.9001,-4.9001,-4.9001,-4.8697,-4.8189,-4.7445,-4.6701,-4.5957,-4.5213,-4.4818,-4.4615,-4.4615,-4.4231,-4.3842,-4.3358,-4.2303,-4.1593,-4.117,0.0,-4.0096,-4.0096,-4.0096,-4.0096,-4.0096,-4.0096,-4.0096,-4.0096,-4.0096,-4.0096,-4.0096,-4.0096,-4.0096,-4.0096,-4.0096,-4.0096,-4.0096,-4.0096,-4.0096,-4.0096,-4.0096,-4.0096,-4.0096,-4.0096,-4.0096,-3.9994,-3.9588,-3.9225,-3.8667,-3.7516,-3.7032,-3.6575,-3.5752,-3.56,-3.5464,-3.5064,-3.437,-3.3626,-3.2882,-3.2425,-3.1935,-3.1275,-3.119,-3.119,-3.119,-3.119,-3.119,-3.119,-3.119,-3.119,-3.119,-3.119,-3.119,-3.119,-3.119,-3.119,-3.119,-3.119,-3.119,-3.119,-3.119,-3.0878,-3.0314,-3.0918,-3.0539,-4.3511,-4.4062,-4.4615,-4.4615,-4.4615,-4.4395,-4.3589,-4.3944,-4.4012,-4.2591,0.0,-4.2525,-4.0444,-4.1068,-4.2115,-4.2844,0.0,-4.7902,-4.9304,-5.0928,-5.2002,-5.2101,-5.2018,-5.1755,-5.1238,-5.1116,-5.049,-4.9103,-4.9001,-4.9001,-4.9001,-4.8308,-4.753,-4.6667,-4.594,-4.5246,-4.4615,-4.4615,-4.4564,-4.4418,-4.3741,-4.3291,-4.3054,-4.1796,-4.1153,-4.1018,-4.0383,0.0,-4.0096,-4.0096,-4.0096,-4.0096,-4.0096,-4.0096,-4.0096,-4.0096,-4.0096,-4.0096,-4.0096,-4.0096,-4.0096,-4.0096,-4.0096,-4.0096,-4.0096,-4.0096,-4.0096,-4.0096,-4.0096,-4.0096,-4.0096,-4.0096,-4.0096,-4.0096,-3.9622,-3.8937,-3.821,-3.7381,-3.6575,-3.5752,-3.56,-3.56,-3.56,-3.4996,-3.4269,-3.3643,-3.3389,-3.2797,-3.1512,-3.1343,-3.1309,-3.1207,-3.119,-3.119,-3.119,-3.119,-3.119,-3.119,-3.119,-3.119,-3.119,-3.119,-3.119,-3.119,-3.119,-3.119,-3.119,-3.119,-3.0858,-3.0187,-3.0797,-3.0377,-4.4198,-4.4496,-4.4615,-4.4615,-4.4615,-4.4395,-4.3589,-4.3521,0.0,0.0,-4.2382,-4.2122,-4.1017,-4.1917,-4.3039,-4.3683,-4.5921,-4.8275,-5.0274,-5.1525,-5.2489,0.0,-5.264,0.0,0.0,0.0,0.0,0.0,0.0,-4.9001,-4.9001,-4.8308,-4.7293,-4.594,-4.5162,-4.4733,-4.4615,-4.4615,-4.4265,-4.3623,-4.346,-4.275,-4.1576,-4.1322,-4.0865,-4.0282,-4.0163,0.0,-4.0096,-4.0096,-4.0096,-4.0096,-4.0096,-4.0096,-4.0096,-4.0096,-4.0096,-4.0096,-4.0096,-4.0096,-4.0096,-4.0096,-4.0096,-4.0096,-4.0096,-4.0096,-4.0096,-4.0096,-4.0096,-4.0096,-4.0096,-4.0096,-4.0096,-4.0096,-4.0011,-3.9723,-3.8954,-3.7736,-3.6575,-3.5752,-3.56,-3.56,-3.56,-3.4996,-3.4455,-3.432,-3.3275,-3.2412,-3.2141,-3.2107,-3.1887,-3.1258,-3.119,-3.119,-3.119,-3.119,-3.119,-3.119,-3.119,-3.119,-3.119,-3.119,-3.119,-3.119,-3.119,-3.119,-3.119,-3.119,-3.0638,-2.9563,-3.0187,-2.9546,-4.4395,-4.4615,-4.4615,-4.4615,-4.4615,-4.4293,-4.3098,0.0,0.0,0.0,-4.1788,-4.1802,-4.0205,-4.1342,0.0,-4.3049,-4.5013,-4.7258,-4.9542,-5.0924,0.0,-5.2266,0.0,0.0,0.0,0.0,0.0,0.0,0.0,-4.8832,-4.846,-4.7378,-4.6261,-4.5162,-4.4801,-4.4615,-4.4615,-4.4615,-4.4198,-4.3392,-4.3014,-4.2269,-4.1187,-4.0798,-4.0434,-4.0096,-4.0096,0.0,-4.0096,-4.0096,-4.0096,-4.0096,-4.0096,-4.0096,-4.0096,-4.0096,-4.0096,-4.0096,-4.0096,-4.0096,-4.0096,-4.0096,-4.0096,-4.0096,-4.0096,-4.0096,-4.0096,-4.0096,-4.0096,-4.0096,-4.0096,-4.0096,-4.0096,-4.0096,-3.9808,-3.9326,-3.8582,-3.7567,-3.6575,-3.5752,-3.5316,-3.5207,-3.5538,-3.5014,-3.4538,-3.4496,-3.3901,-3.3173,-3.2395,-3.2293,-3.2022,-3.1275,-3.119,-3.119,-3.119,-3.119,-3.119,-3.119,-3.119,-3.119,-3.119,-3.119,-3.119,-3.119,-3.0878,-3.072,-3.072,-3.072,-3.0123,-2.895,-2.987,-2.9323,-4.4164,-4.4479,-4.4615,-4.4615,-4.4615,-4.4209,-4.2642,-4.276,0.0,-4.0536,-4.1027,-4.1283,-3.9505,-4.0624,-4.1997,0.0,-4.4039,-4.6129,-4.8638,-5.0016,-5.0862,0.0,0.0,0.0,0.0,0.0,0.0,0.0,0.0,0.0,-4.7716,-4.643,-4.5348,-4.4632,-4.4615,-4.4615,-4.4615,-4.4615,-4.4113,-4.3139,-4.2574,-4.183,-4.0933,-4.0367,-4.0096,-4.0096,-4.0096,0.0,0.0,-4.0096,-4.0096,-4.0096,-4.0096,-4.0096,-4.0096,-4.0096,-4.0096,-4.0096,-4.0096,-4.0096,-4.0096,-4.0096,-4.0096,-4.0096,-4.0096,-4.0096,-4.0096,-4.0096,-4.0096,-4.0096,-4.0096,-4.0096,-4.0096,-4.0096,-3.9673,-3.9022,-3.8294,-3.755,-3.6789,-3.6011,-3.5285,-3.4965,-3.5515,-3.5144,-3.4805,-3.4744,-3.459,-3.4023,-3.2715,-3.2549,-3.2249,-3.1533,-3.1432,-3.136,-3.1207,-3.1326,-3.1303,-3.1032,-3.1015,-3.0938,-3.0818,-3.0818,-3.0818,-3.0818,-3.0351,-3.0102,-3.0102,-3.0102,-2.9563,-2.8511,-2.9473,-2.9073,-4.3477,-4.4045,-4.4615,-4.4615,-4.4615,-4.4209,-4.2642,0.0,-4.1948,-4.0417,-4.0214,-4.024,-4.0037,-4.0678,-4.1724,0.0,0.0,-4.5696,-4.8595,-4.912,-4.9712,0.0,0.0,0.0,0.0,0.0,0.0,0.0,0.0,0.0,-4.6904,-4.6143,-4.5348,-4.4632,-4.4615,-4.4615,-4.4615,-4.4615,-4.387,-4.2388,-4.232,-4.1542,-4.0197,-4.013,-4.0096,-4.0096,-4.0096,0.0,0.0,-4.0096,-4.0096,-4.0096,-4.0096,-4.0096,-4.0096,-4.0096,-4.0096,-4.0096,-4.0096,-4.0096,-4.0096,-4.0096,-4.0096,-4.0096,-4.0096,-4.0096,-4.0096,-4.0096,-4.0096,-4.0096,-4.0096,-4.0096,-4.0096,-4.0096,-4.0045,-3.9808,-3.9056,-3.8311,-3.7584,-3.6846,-3.605,-3.5515,-3.56,-3.5538,-3.5521,-3.5498,-3.4928,-3.4224,-3.3495,-3.3332,-3.3043,-3.2353,-3.2249,-3.1938,-3.1258,-3.1819,-3.1685,-3.0447,-3.0393,-3.0145,-2.9585,-2.9563,-2.9563,-2.9563,-2.9518,-2.9473,-2.9473,-2.9473,-2.9134,-2.8487,-2.8606,-2.8271,-4.3274,-4.3995,-4.4615,-4.4615,-4.4615,-4.4209,-4.2642,-4.2286,-4.1863,-4.04,-4.0096,-4.0096,-4.0096,-4.035,-4.1018,0.0,0.0,0.0,-4.6667,0.0,0.0,0.0,0.0,0.0,0.0,0.0,0.0,0.0,0.0,0.0,-4.616,-4.5432,-4.4919,-4.4615,-4.4615,-4.4615,-4.4615,-4.4113,-4.3352,-4.2286,-4.1847,-4.1085,-4.0096,-4.0096,-4.0096,-4.0096,-4.0096,0.0,0.0,-4.0096,-4.0096,-4.0096,-4.0096,-4.0096,-4.0096,-4.0096,-4.0096,-4.0096,-4.0096,-4.0096,-4.0096,-4.0096,-4.0096,-4.0096,-4.0096,-4.0096,-4.0096,-4.0096,-4.0096,-4.0096,-4.0096,-4.0096,-4.0096,-4.0096,-4.0096,-3.991,-3.9157,-3.8413,-3.7549,-3.6367,-3.52,-3.4399,-3.4399,-3.4053,-3.3928,-3.4325,-3.4117,-3.3654,-3.2975,-3.32,-3.2988,-3.1906,-3.2508,-3.2685,-3.1986,-3.1824,-3.1356,-3.0409,-2.9982,-2.9651,-2.9406,-2.9406,-2.9406,-2.9406,-2.9042,-2.885,-2.885,-2.885,-2.8543,-2.7968,-2.8334,-2.8189,-4.2625,-4.3487,-4.4231,-4.4231,-4.4231,-4.3893,-4.2591,-4.2117,-4.161,-4.0367,-4.0096,-4.0096,-4.0096,-4.0096,-4.0519,-4.1762,0.0,-4.276,-4.5043,-4.5821,0.0,0.0,0.0,-4.8443,0.0,0.0,0.0,0.0,0.0,0.0,-4.5415,-4.4874,-4.4615,-4.4615,-4.4615,-4.4496,-4.4231,-4.369,-4.2929,-4.1965,-4.1457,-4.0798,-4.0096,-4.0096,-4.0096,-4.0096,-4.0096,0.0,0.0,-4.0096,-4.0096,-4.0096,-4.0096,-4.0096,-4.0096,-4.0096,-4.0096,-4.0096,-4.0096,-4.0096,-4.0096,-4.0096,-4.0096,-4.0096,-4.0096,-4.0096,-4.0096,-4.0096,-4.0096,-4.0096,-4.0096,-4.0096,-4.0096,-4.0096,-4.0096,-3.9893,-3.9127,-3.8245,-3.721,-3.594,-3.4542,-3.3582,-3.3582,-3.3224,-3.3066,-3.3547,-3.3566,-3.3283,-3.2625,-3.3061,-3.3024,-3.1879,-3.2775,-3.3088,-3.2164,-3.1877,-3.1267,-3.0196,-2.9697,-2.9264,-2.8896,-2.8857,-2.8857,-2.8857,-2.8448,-2.8222,-2.8222,-2.8222,-2.8033,-2.7625,-2.8042,-2.7993,-4.1221,-4.2277,-4.3409,-4.3409,-4.3409,-4.3234,-4.2472,-4.1728,-4.1001,-4.0265,-4.0096,-4.0096,-4.0096,-4.0096,-4.035,-4.1085,0.0,0.0,-4.4293,-4.4632,0.0,0.0,0.0,-4.7107,0.0,0.0,0.0,0.0,0.0,0.0,-4.4649,-4.4615,-4.4615,-4.4615,-4.4615,-4.4215,-4.3409,-4.3392,-4.2675,-4.1221,-4.1204,-4.0798,-4.0096,-4.0096,-4.0096,0.0,0.0,0.0,0.0,-4.0096,-4.0096,-4.0096,-4.0096,-4.0096,-4.0096,-4.0096,-4.0096,-4.0096,-4.0096,-4.0096,-4.0096,-4.0096,-4.0096,-4.0096,-4.0096,-4.0096,-4.0096,-4.0096,-4.0096,-4.0096,-4.0096,-4.0096,-4.0096,-4.0096,-4.0096,-3.9876,-3.9069,-3.7807,-3.6605,-3.5841,-3.4558,-3.3582,-3.3582,-3.3582,-3.3582,-3.3582,-3.3608,-3.3349,-3.268,-3.3166,-3.3349,-3.268,-3.3193,-3.3006,-3.1557,-3.2068,-3.163,-2.9636,-2.9494,-2.8928,-2.7665,-2.7625,-2.7625,-2.7625,-2.761,-2.7625,-2.7625,-2.7625,-2.7625,-2.76,-2.7625,-2.7625,-4.1204,-4.1914,-4.2642,-4.2642,-4.2642,-4.2455,-4.1728,-4.1373,-4.0984,-4.0265,-4.0096,-4.0096,-4.0096,-4.0096,-4.0519,-4.1745,-4.1948,0.0,0.0,0.0,0.0,-4.6616,-4.7682,-4.8206,0.0,0.0,0.0,0.0,0.0,0.0,-4.4649,-4.4615,-4.4615,-4.4615,-4.4062,-4.3673,-4.3392,-4.2405,-4.166,-4.1204,-4.0679,-4.0333,-4.0096,-4.0096,-4.0096,0.0,0.0,0.0,0.0,-4.0096,-4.0096,-4.0096,-4.0096,-4.0096,-4.0096,-4.0096,-4.0096,-4.0096,-4.0096,-4.0096,-4.0096,-4.0096,-4.0096,-4.0096,-4.0096,-4.0096,-4.0096,-4.0096,-4.0096,-4.0096,-4.0096,-4.0096,-4.0096,-4.0096,-4.0096,-3.9876,-3.9086,-3.7781,-3.645,-3.5256,-3.3889,-3.2761,-3.2256,-3.2173,-3.2173,-3.2173,-3.2598,-3.2652,-3.1923,-3.2879,-3.3156,-3.1979,-3.2477,-3.275,-3.2259,-3.2019,-3.1218,-2.9667,-2.913,-2.8494,-2.7655,-2.76,-2.76,-2.76,-2.76,-2.76,-2.76,-2.76,-2.76,-2.76,-2.76,-2.76,-4.0781,-4.1322,-4.188,-4.188,-4.188,-4.1762,-4.1305,-4.0984,-4.0646,-4.0197,-4.0096,-4.0096,-4.0096,-4.0096,-4.04,-4.1331,-4.1213,0.0,0.0,0.0,0.0,-4.6164,0.0,0.0,0.0,0.0,0.0,0.0,0.0,0.0,-4.4181,-4.4445,-4.4344,-4.3768,-4.3521,-4.3122,-4.2591,-4.166,-4.1068,-4.0781,-4.0333,-4.0096,-4.0096,-4.0096,-4.0096,0.0,0.0,0.0,0.0,-4.0096,-4.0096,-4.0096,-4.0096,-4.0096,-4.0096,-4.0096,-4.0096,-4.0096,-4.0096,-4.0096,-4.0096,-4.0096,-4.0096,-4.0096,-4.0096,-4.0096,-4.0096,-4.0096,-4.0096,-4.0096,-4.0096,-4.0096,-4.0096,-4.0096,-4.0096,-3.9808,-3.8734,-3.7383,-3.5986,-3.4529,-3.3121,-3.2035,-3.1582,-3.1511,-3.1511,-3.1511,-3.1881,-3.2007,-3.1553,-3.2284,-3.2489,-3.1582,-3.191,-3.216,-3.216,-3.1561,-3.0715,-2.9678,-2.8966,-2.8293,-2.763,-2.76,-2.76,-2.76,-2.76,-2.76,-2.76,-2.76,-2.76,-2.76,-2.76,-2.76,0.0,-4.0595,-4.1119,-4.1119,-4.1119,-4.1119,-4.1119,-4.0578,0.0,-4.0096,-4.0096,-4.0096,-4.0096,-4.0096,-4.013,-4.018,-3.952,0.0,0.0,-4.2382,0.0,0.0,-4.6292,0.0,-4.5788,0.0,0.0,0.0,0.0,0.0,-4.3426,-4.4045,-4.3768,-4.2252,-4.2895,-4.2608,-4.1221,-4.1153,-4.0781,-4.0096,-4.0096,-4.0096,-4.0096,-4.0096,-4.0096,0.0,0.0,0.0,0.0,-4.0096,-4.0096,-4.0096,-4.0096,-4.0096,-4.0096,-4.0096,-4.0096,-4.0096,-4.0096,-4.0096,-4.0096,-4.0096,-4.0096,-4.0096,-4.0096,-4.0096,-4.0096,-4.0096,-4.0096,-4.0096,-4.0096,-4.0096,-4.0096,-4.0096,-4.0096,-3.9662,-3.8084,-3.671,-3.5332,-3.3728,-3.2363,-3.1511,-3.1511,-3.1511,-3.1511,-3.1511,-3.1511,-3.1511,-3.1511,-3.1511,-3.1511,-3.1511,-3.1511,-3.1511,-3.1511,-3.0913,-3.0313,-2.9711,-2.9026,-2.8368,-2.7705,-2.763,-2.76,-2.76,-2.76,-2.76,-2.76,-2.76,-2.76,-2.76,-2.76,-2.76,-4.0096,0.0,-4.0367,-4.0367,-4.0367,-4.0367,0.0,-4.0231,-4.0096,-4.0096,-4.0096,-4.0096,-4.0096,-4.0096,-4.0282,-4.0849,0.0,-4.0359,-4.2017,0.0,0.0,-4.4624,-4.5796,-4.636,-4.5764,0.0,0.0,0.0,0.0,-4.3606,-4.3409,-4.3047,-4.2405,-4.1491,-4.1644,-4.1559,-4.1204,-4.0629,-4.0282,-4.0096,-4.0096,-4.0096,-4.0096,-4.0096,-4.0096,0.0,0.0,0.0,-4.0096,-4.0096,-4.0096,-4.0096,-4.0096,-4.0096,-4.0096,-4.0096,-4.0096,-4.0096,-4.0096,-4.0096,-4.0096,-4.0096,-4.0096,-4.0096,-4.0096,-4.0096,-4.0096,-4.0096,-4.0096,-4.0096,-4.0096,-4.0096,-4.0096,-4.0096,-4.0096,-3.9554,-3.7494,-3.6369,-3.5189,-3.3139,-3.2064,-3.1511,-3.1511,-3.1511,-3.1511,-3.1511,-3.1511,-3.1511,-3.1511,-3.1511,-3.1511,-3.1511,-3.1511,-3.1511,-3.1511,-3.1361,-3.0972,-3.0328,-2.9699,-2.9041,-2.8382,-2.7884,-2.76,-2.76,-2.76,-2.76,-2.76,-2.76,-2.76,-2.76,-2.76,-2.76,-4.0096,-4.0096,-4.0096,-4.0096,-4.0096,-4.0096,-4.0096,-4.0096,-4.0096,-4.0096,-4.0096,-3.9995,-3.961,-3.9542,-3.9571,-3.9648,-3.9247,0.0,0.0,0.0,-4.37,-4.3797,-4.448,-4.4689,0.0,0.0,0.0,0.0,0.0,-4.2585,-4.1927,-4.2159,-4.1796,-4.073,-4.1018,-4.1035,-4.0696,-4.0316,-4.0096,-4.0096,-4.0096,-4.0096,-4.0096,-4.0096,-4.0096,0.0,0.0,0.0,-4.0096,-4.0096,-4.0096,-4.0096,-4.0096,-4.0096,-4.0096,-4.0096,-4.0096,-4.0096,-4.0096,-4.0096,-4.0096,-4.0096,-4.0096,-4.0096,-4.0096,-4.0096,-4.0096,-4.0096,-4.0096,-4.0096,-4.0096,-4.0096,-4.0096,-4.0096,-4.0096,-3.9487,-3.7268,-3.6284,-3.5142,-3.2928,-3.1959,-3.1511,-3.1511,-3.1511,-3.1511,-3.1511,-3.1511,-3.1511,-3.1511,-3.1511,-3.1511,-3.1511,-3.1511,-3.1511,-3.1511,-3.1511,-3.1212,-3.0552,-2.9924,-2.9457,-2.9071,-2.8438,-2.8064,-2.8064,-2.8364,-2.8528,-2.8528,-2.8214,-2.8064,-2.8064,-2.775,-2.76,-3.9952,-3.9927,-3.9927,-3.9927,-3.9927,-3.9876,-3.9756,-3.985,-3.9876,-3.9756,-3.9731,-3.9532,-3.8854,-3.8816,-3.8688,0.0,0.0,0.0,-4.0204,-4.1749,-4.2709,-4.2746,-4.2826,0.0,0.0,0.0,0.0,0.0,0.0,-4.1461,-4.0166,-4.1298,-4.1399,-4.0146,-4.0696,-4.073,-4.0113,-4.0096,-4.0096,-4.0096,-4.0096,-4.0096,-4.0096,-4.0096,-4.0096,-4.0096,0.0,0.0,-4.0096,-4.0096,-4.0096,-4.0096,-4.0096,-4.0096,-4.0096,-4.0096,-4.0096,-4.0096,-4.0096,-4.0096,-4.0096,-4.0096,-4.0096,-4.0096,-4.0096,-4.0096,-4.0096,-4.0096,-4.0096,-4.0096,-4.0096,-4.0096,-4.0096,-4.0096,-4.0096,-3.9487,-3.7268,-3.6364,-3.5269,-3.2958,-3.2034,-3.163,-3.1525,-3.1511,-3.1511,-3.1511,-3.1511,-3.1511,-3.1511,-3.1511,-3.1511,-3.1511,-3.1511,-3.1511,-3.1511,-3.1511,-3.1256,-3.0702,-3.0073,-2.9711,-2.9606,-2.9041,-2.8742,-2.8742,-2.9295,-2.9606,-2.9606,-2.9026,-2.8697,-2.8592,-2.8034,-2.7705,-3.9262,-3.9086,-3.9086,-3.9086,-3.9086,-3.8924,-3.829,-3.8652,-3.8924,-3.829,-3.8149,-3.8121,-3.7978,-3.8431,-3.8774,0.0,0.0,-3.9164,0.0,0.0,-4.0873,-4.1044,0.0,0.0,0.0,0.0,0.0,0.0,0.0,-4.0873,-4.0133,-4.0326,-4.0333,-4.0113,-4.0214,-4.0214,-4.0096,-4.0096,-4.0096,-4.0096,-4.0096,-4.0096,-4.0096,-4.0096,-4.0096,-4.0096,0.0,-4.0096,-4.0096,-4.0096,-4.0096,-4.0096,-4.0096,-4.0096,-4.0096,-4.0096,-4.0096,-4.0096,-4.0096,-4.0096,-4.0096,-4.0096,-4.0096,-4.0096,-4.0096,-4.0096,-4.0096,-4.0096,-4.0096,-4.0096,-4.0096,-4.0096,-4.0096,-4.0096,-4.0096,-3.9487,-3.7268,-3.6722,-3.5811,-3.3048,-3.2437,-3.2153,-3.16,-3.1511,-3.1511,-3.1511,-3.1511,-3.1511,-3.1511,-3.1511,-3.1511,-3.1511,-3.1511,-3.1511,-3.1511,-3.1511,-3.1466,-3.1346,-3.0746,-3.0118,-2.9636,-2.9517,-2.9457,-2.9457,-2.9562,-2.9606,-2.9606,-2.9517,-2.9146,-2.8607,-2.8487,-2.8128,-3.9113,-3.8608,-3.8189,-3.7774,-3.7975,-3.8234,-3.7863,-3.8064,-3.8206,-3.7863,-3.7793,-3.7661,0.0,0.0,-3.8247,-3.8532,0.0,-3.8951,-3.8921,-3.9484,-3.9884,0.0,0.0,0.0,0.0,0.0,0.0,0.0,0.0,0.0,-3.8882,-3.923,-3.9636,-4.007,-4.0096,-4.0096,-4.0096,-4.0096,-4.0096,-4.0096,-4.0096,-4.0096,-4.0096,-4.0096,-4.0096,-4.0096,0.0,-4.0096,-4.0096,-4.0096,-4.0096,-4.0096,-4.0096,-4.0096,-4.0096,-4.0096,-4.0096,-4.0096,-4.0096,-4.0096,-4.0096,-4.0096,-4.0096,-4.0096,-4.0096,-4.0096,-4.0096,-4.0096,-4.0096,-4.0096,-4.0096,-4.0096,-4.0096,-4.0096,-4.0096,-3.9487,-3.7268,-3.6802,-3.6049,-3.3532,-3.3036,-3.2841,-3.2153,-3.2034,-3.1914,-3.1555,-3.1511,-3.1511,-3.1511,-3.1511,-3.1511,-3.1511,-3.1511,-3.1511,-3.1511,-3.1511,-3.1511,-3.1511,-3.1212,-3.0761,-3.0103,-3.0432,-3.0462,-3.0088,-3.0447,-3.0642,-3.0642,-3.0253,-2.9759,-2.9131,-2.8771,-2.8233,-3.9113,-3.8358,-3.7602,-3.6783,-3.7054,-3.7504,-3.75,-3.7621,-3.7694,-3.7531,0.0,0.0,0.0,-3.7013,0.0,-3.8287,-3.8527,-3.8811,-3.9349,-3.9388,-3.9388,-3.9388,-3.9388,0.0,0.0,0.0,0.0,0.0,0.0,0.0,-3.7796,-3.8497,-3.9262,-4.007,-4.0096,-4.0096,-4.0096,-4.0096,-4.0096,-4.0096,-4.0096,-4.0096,-4.0096,-4.0096,-4.0096,-4.0096,-4.0096,-4.0096,-4.0096,-4.0096,-4.0096,-4.0096,-4.0096,-4.0096,-4.0096,-4.0096,-4.0096,-4.0096,-4.0096,-4.0096,-4.0096,-4.0096,-4.0096,-4.0096,-4.0096,-4.0096,-4.0096,-4.0096,-4.0096,-4.0096,-4.0096,-4.0096,-4.0096,-4.0096,-3.9952,-3.9313,-3.7439,-3.6761,-3.5978,-3.4106,-3.3469,-3.3095,-3.2602,-3.2363,-3.2079,-3.1585,-3.1511,-3.1511,-3.1511,-3.1511,-3.1511,-3.1511,-3.1511,-3.1511,-3.1511,-3.1511,-3.1511,-3.1511,-3.1511,-3.1271,-3.0776,-3.1227,-3.1256,-3.0746,-3.1241,-3.1511,-3.1511,-3.0972,-3.0342,-2.9592,-2.9071,-2.8382,-3.9113,-3.8358,-3.7602,-3.6783,-3.663,-3.6662,-3.66,-3.713,-3.7418,-3.6736,0.0,0.0,0.0,-3.6592,-3.7638,-3.8307,-3.8931,-3.9328,-3.9373,0.0,-3.9388,-3.9388,0.0,0.0,0.0,0.0,0.0,0.0,0.0,0.0,-3.7796,-3.8497,-3.9262,-4.007,-4.0096,-4.0096,-4.0096,-4.0096,-4.0096,-4.0096,-4.0096,-4.0096,-4.0096,-4.0096,-4.0096,-4.0096,-4.0096,-4.0096,-4.0096,-4.0096,-4.0096,-4.0096,-4.0096,-4.0096,-4.0096,-4.0096,-4.0096,-4.0096,-4.0096,-4.0096,-4.0096,-4.0096,-4.0096,-4.0096,-4.0096,-4.0096,-4.0096,-4.0096,-4.0096,-4.0096,-4.0096,-4.0096,-4.0096,-4.0096,-3.9516,-3.8772,-3.7914,-3.6666,-3.5443,-3.4585,-3.3425,-3.2572,-3.2497,-3.1974,-3.1555,-3.1511,-3.1511,-3.1511,-3.1511,-3.1511,-3.1511,-3.1511,-3.1511,-3.1511,-3.1511,-3.1511,-3.1511,-3.1511,-3.1511,-3.1481,-3.1436,-3.1481,-3.1481,-3.1436,-3.1481,-3.1511,-3.1511,-3.1451,-3.0806,-2.9606,-2.9562,-2.8843,-3.8424,-3.7681,-3.6921,-3.6115,-3.5921,-3.6012,-3.6427,-3.6727,-3.6935,-3.7038,-3.706,0.0,0.0,0.0,-3.7629,-3.8287,-3.8975,-3.9388,-3.9388,-3.9388,-3.9388,0.0,0.0,0.0,0.0,0.0,0.0,0.0,0.0,0.0,-3.7751,-3.8064,-3.8789,-4.0045,-4.0096,-4.0096,-4.0096,-4.0096,-4.0096,-4.0096,-4.0096,-4.0096,-4.0096,-4.0096,-4.0096,-4.0096,-4.0096,-4.0096,-4.0096,-4.0096,-4.0096,-4.0096,-4.0096,-4.0096,-4.0096,-4.0096,-4.0096,-4.0096,-4.0096,-4.0096,-4.0096,-4.0096,-4.0096,-4.0096,-4.0096,-4.0096,-4.0096,-4.0096,-4.0096,-4.0096,-4.0096,-4.0096,-3.9978,-3.9463,-3.9113,-3.8564,-3.7306,-3.661,-3.5999,-3.526,-3.4711,-3.4233,-3.3814,-3.3529,-3.308,-3.2243,-3.2108,-3.1974,-3.1555,-3.1511,-3.1511,-3.1511,-3.1511,-3.1511,-3.1511,-3.1511,-3.1511,-3.1511,-3.1511,-3.1511,-3.1511,-3.1511,-3.1511,-3.1511,-3.1511,-3.1511,-3.1511,-3.1511,-3.0866,-2.9606,-2.9606,-2.8888,-3.8394,-3.7617,-3.6915,-3.6364,-3.5844,-3.5684,-3.6342,-3.6641,-3.6896,-3.7315,-3.7255,-3.712,-3.712,0.0,0.0,0.0,-3.8347,-3.8781,-3.8781,-3.8781,0.0,0.0,0.0,0.0,0.0,0.0,0.0,0.0,0.0,0.0,0.0,-3.7661,-3.8402,-3.9662,-3.9969,-4.0096,-4.0096,-4.0096,-4.0096,-4.0096,-4.0096,-4.0096,-4.0096,-4.0096,-4.0096,-4.0096,-4.0096,-4.0096,-4.0096,-4.0096,-4.0096,-4.0096,-4.0096,-4.0096,-4.0096,-4.0096,-4.0096,-4.0096,-4.0096,-4.0096,-4.0096,-4.0096,-4.0096,-4.0096,-4.0096,-4.0096,-4.0096,-4.0096,-4.0096,-4.0096,-4.0096,-4.0096,-3.9901,-3.9086,-3.8718,-3.8201,-3.6873,-3.623,-3.5843,-3.5542,-3.4996,-3.4472,-3.4249,-3.3993,-3.3484,-3.2333,-3.2348,-3.2243,-3.1585,-3.1511,-3.1511,-3.1511,-3.1511,-3.1511,-3.1511,-3.1511,-3.1511,-3.1511,-3.1511,-3.1511,-3.1511,-3.1511,-3.1511,-3.1511,-3.1511,-3.1511,-3.1511,-3.1511,-3.0866,-2.9606,-2.9606,-2.8888,-3.9174,-3.8381,-3.7761,-3.7761,-3.6631,-3.5669,-3.6327,-3.6956,-3.7404,-3.7419,-3.6926,-3.6492,-3.6492,-3.6492,0.0,-3.6492,-3.7,-3.7404,-3.7404,0.0,0.0,0.0,0.0,0.0,0.0,0.0,0.0,0.0,0.0,0.0,0.0,-3.7352,-3.8149,-3.8881,-3.9688,-4.0096,-4.0096,-4.0096,-4.0096,-4.0096,-4.0096,-4.0096,-4.0096,-4.0096,-4.0096,-4.0096,-4.0096,-4.0096,-4.0096,-4.0096,-4.0096,-4.0096,-4.0096,-4.0096,-4.0096,-4.0096,-4.0096,-4.0096,-4.0096,-4.0096,-4.0096,-4.0096,-4.0096,-4.0096,-4.0096,-4.0096,-4.0096,-4.0096,-4.0096,-4.0096,-4.0096,-4.007,-3.9901,-3.9086,-3.8346,-3.7573,-3.6752,-3.5475,-3.4728,-3.537,-3.3903,-3.2751,-3.3395,-3.2976,-3.2288,-3.163,-3.2093,-3.2258,-3.16,-3.1511,-3.1511,-3.1511,-3.1511,-3.1511,-3.1511,-3.1511,-3.1511,-3.1511,-3.1511,-3.1511,-3.1511,-3.1511,-3.1511,-3.1511,-3.1511,-3.1511,-3.1511,-3.1511,-3.0838,-2.9621,-2.9606,-2.8888,-3.7635,-3.6873,-3.6238,-3.6238,0.0,0.0,0.0,-3.6626,0.0,0.0,-3.7584,-3.7,-3.6567,0.0,0.0,-3.6492,-3.7,0.0,0.0,0.0,0.0,0.0,0.0,0.0,0.0,0.0,0.0,0.0,0.0,0.0,0.0,-3.7352,-3.8149,-3.8881,-3.9688,-4.0096,-4.0096,-4.0096,-4.0096,-4.0096,-4.0096,-4.0096,-4.0096,-4.0096,-4.0096,-4.0096,-4.0096,-4.0096,-4.0096,-4.0096,-4.0096,-4.0096,-4.0096,-4.0096,-4.0096,-4.0096,-4.0096,-4.0096,-4.0096,-4.0096,-4.0096,-4.0096,-4.0096,-4.0096,-4.0096,-4.0096,-4.0096,-4.0096,-4.0096,-3.9978,-3.9394,-3.9262,-3.9059,-3.8318,-3.7528,-3.6737,-3.5975,-3.5518,-3.5265,-3.5474,-3.5026,-3.4681,-3.4876,-3.4741,-3.4382,-3.3709,-3.3769,-3.3484,-3.2333,-3.2183,-3.2019,-3.1555,-3.1511,-3.1511,-3.1511,-3.1511,-3.1511,-3.1511,-3.1511,-3.1511,-3.1511,-3.1511,-3.1511,-3.1511,-3.1511,-3.1511,-3.1511,-3.1511,-3.1062,-3.0223,-2.9789,-2.9116,-3.7794,-3.7292,-3.6846,-3.6558,-3.6206,-3.5938,-3.5884,0.0,0.0,0.0,-3.7494,-3.6926,-3.6552,-3.6267,0.0,0.0,0.0,0.0,0.0,0.0,0.0,0.0,0.0,0.0,0.0,0.0,0.0,0.0,0.0,0.0,0.0,-3.6889,-3.7674,-3.8442,-3.9209,-3.9782,-4.0096,-4.0096,-4.0096,-4.0096,-4.0096,-4.0096,-4.0096,-4.0096,-4.0096,-4.0096,-4.0096,-4.0096,-4.0096,-4.0096,-4.0096,-4.0096,-4.0096,-4.0096,-4.0096,-4.0096,-4.0096,-4.0096,-4.0096,-4.0096,-4.0096,-4.0096,-4.0096,-4.0096,-4.0096,-4.0096,-4.0096,-4.0096,-3.9876,-3.9516,-3.9032,-3.8453,-3.7873,-3.744,-3.6934,-3.6384,-3.5668,-3.5504,-3.5504,-3.5504,-3.528,-3.51,-3.51,-3.51,-3.4876,-3.4188,-3.4114,-3.3799,-3.3006,-3.2677,-3.2437,-3.2303,-3.1809,-3.1615,-3.1869,-3.1645,-3.1511,-3.1511,-3.1511,-3.1511,-3.1511,-3.1511,-3.1511,-3.1511,-3.1511,-3.1511,-3.1511,-3.1511,-3.1152,-3.0492,-2.9864,-2.922,-3.8802,-3.8805,-3.8646,-3.7967,-3.7186,0.0,-3.6436,-3.6402,-3.6567,-3.7195,0.0,-3.6477,-3.6417,-3.5908,-3.5504,0.0,0.0,0.0,0.0,0.0,0.0,0.0,0.0,0.0,0.0,0.0,0.0,0.0,0.0,0.0,0.0,-3.6196,-3.6934,-3.7661,-3.8469,-3.9262,-3.9978,-4.007,-4.0096,-4.0096,-4.0096,-4.0096,-4.0096,-4.0096,-4.0096,-4.0096,-4.0096,-4.0096,-4.0096,-4.0096,-4.0096,-4.0096,-4.0096,-4.0096,-4.0096,-4.0096,-4.0096,-4.0096,-4.0096,-4.0096,-4.0096,-4.0096,-4.0096,-4.0096,-4.0096,-4.0096,-4.0096,-4.0096,-3.9516,-3.8881,-3.8827,-3.77,-3.6584,-3.6523,-3.6492,-3.6306,-3.5636,-3.5504,-3.5504,-3.5504,-3.4996,-3.4593,-3.4593,-3.4593,-3.4367,-3.3769,-3.3679,-3.3664,-3.3589,-3.3066,-3.2901,-3.344,-3.2392,-3.1929,-3.2557,-3.2034,-3.169,-3.169,-3.163,-3.1585,-3.1585,-3.154,-3.1511,-3.1511,-3.1511,-3.1511,-3.1511,-3.1511,-3.1152,-3.0492,-2.9864,-2.9194,-3.7438,-3.7653,0.0,-3.7844,-3.7202,-3.6446,-3.5849,-3.5714,-3.5893,-3.6552,-3.6582,-3.6327,-3.5804,0.0,0.0,0.0,0.0,0.0,0.0,0.0,0.0,0.0,0.0,0.0,0.0,0.0,0.0,0.0,0.0,0.0,-3.5504,-3.6196,-3.6661,-3.6843,-3.8201,-3.8989,-3.9166,-3.9782,-4.0096,0.0,-4.0096,-4.0096,-4.0096,-4.0096,-4.0096,-4.0096,-4.0096,-4.0096,-4.0096,-4.0096,-4.0096,-4.0096,-4.0096,-4.0096,-4.0096,-4.0096,-4.0096,-4.0096,-4.0096,-4.0096,-4.0096,-4.0096,-4.0096,-4.0096,-4.0096,-4.0096,-4.0096,-4.0096,-3.9516,-3.8772,-3.8206,-3.7322,-3.6446,-3.5863,-3.5718,-3.5701,-3.5537,-3.5504,-3.5504,-3.5504,-3.5385,-3.528,-3.528,-3.528,-3.5235,-3.51,-3.507,-3.4876,-3.4369,-3.4174,-3.3903,-3.3529,-3.3245,-3.3125,-3.3275,-3.3155,-3.308,-3.308,-3.2587,-3.2273,-3.2273,-3.178,-3.1511,-3.1511,-3.1511,-3.1511,-3.1511,-3.1511,-3.1152,-3.0492,-2.9864,-2.8936,-3.7831,0.0,0.0,-3.8335,0.0,-3.6492,-3.6102,-3.575,-3.5609,-3.5953,-3.6013,-3.5908,0.0,0.0,0.0,0.0,0.0,0.0,0.0,0.0,0.0,0.0,0.0,0.0,0.0,0.0,0.0,0.0,0.0,-3.5504,-3.5504,-3.5863,-3.6259,-3.6584,-3.7379,-3.7987,-3.8358,-3.8789,-3.8995,-3.8995,-3.9358,-3.9731,-4.0096,-4.0096,-4.0096,-4.0096,-4.0096,-4.0096,-4.0096,-4.0096,-4.0096,-4.0096,-4.0096,-4.0096,-4.0096,-4.0096,-4.0096,-4.0096,-4.0096,-4.0096,-4.0096,-4.0096,-4.0096,-4.0096,-4.0096,-4.0096,-4.002,-3.9636,-3.8978,-3.8189,-3.7411,-3.6661,-3.5975,-3.5587,-3.5504,-3.5504,-3.5504,-3.5504,-3.5504,-3.5504,-3.5504,-3.5504,-3.5504,-3.5504,-3.5504,-3.5504,-3.5504,-3.537,-3.5011,-3.4713,-3.4503,-3.4457,-3.3873,-3.3619,-3.3933,-3.3679,-3.3499,-3.3499,-3.2886,-3.2512,-3.2512,-3.1854,-3.1511,-3.1511,-3.1511,-3.1511,-3.1511,-3.1117,-3.0587,-2.9968,-2.8941,-2.7924,-3.8359,0.0,-3.884,-3.8871,-3.793,0.0,-3.6661,-3.6149,-3.5636,-3.5537,-3.5504,0.0,0.0,0.0,0.0,0.0,0.0,0.0,0.0,0.0,0.0,0.0,0.0,0.0,0.0,0.0,0.0,0.0,0.0,-3.5504,-3.5504,-3.5504,-3.5782,-3.6384,-3.6523,-3.6904,-3.7602,-3.7719,-3.7793,-3.7822,-3.8414,-3.9059,-3.9705,-3.9833,-3.9969,-4.0096,-4.0096,-4.0096,-4.0096,-4.0096,-4.0096,-4.0096,-4.0096,-4.0096,-4.0096,-4.0096,-4.0096,-4.0096,-4.0096,-4.0096,-4.0096,-4.0096,-4.0096,-4.0096,-4.0096,-3.9995,-3.9756,-3.9086,-3.8274,-3.7456,-3.6752,-3.6054,-3.5504,-3.5504,-3.5504,-3.5504,-3.5504,-3.5504,-3.5504,-3.5504,-3.5504,-3.5504,-3.5504,-3.5504,-3.5504,-3.5504,-3.5504,-3.5504,-3.5504,-3.5011,-3.4876,-3.5444,-3.4517,-3.4068,-3.4638,-3.4158,-3.3844,-3.3844,-3.311,-3.2677,-3.2677,-3.1914,-3.1438,-3.1307,-3.1278,-3.1278,-3.1278,-3.0464,-2.9773,-2.9128,-2.7909,-2.6913,-3.6878,0.0,-3.8175,0.0,-3.8745,-3.8241,0.0,0.0,-3.6275,0.0,0.0,0.0,0.0,0.0,0.0,0.0,0.0,0.0,0.0,0.0,0.0,0.0,0.0,0.0,0.0,0.0,0.0,0.0,-3.5504,-3.5504,-3.5504,-3.5504,-3.5569,-3.5636,-3.6275,-3.663,-3.6768,-3.7456,-3.7793,-3.7793,-3.7892,-3.8007,-3.8121,-3.8772,-3.9437,-4.0096,-4.0096,-4.0096,-4.0096,-4.0096,-4.0096,-4.0096,-4.0096,-4.0096,-4.0096,-4.0096,-4.0096,-4.0096,-4.0096,-4.0096,-4.0096,-4.0096,-4.0096,-4.0096,-4.0096,-3.961,-3.9059,-3.8935,-3.7873,-3.6737,-3.663,-3.6054,-3.5504,-3.5504,-3.5504,-3.5504,-3.5504,-3.5504,-3.5504,-3.5504,-3.5504,-3.5504,-3.5504,-3.5504,-3.5504,-3.5504,-3.5504,-3.5504,-3.5504,-3.5429,-3.54,-3.5489,-3.534,-3.5265,-3.5355,-3.528,-3.5235,-3.5235,-3.4053,-3.3365,-3.3365,-3.2153,-3.1161,-3.0464,-3.045,-3.045,-3.045,-2.9597,-2.8841,-2.8183,-2.7991,-2.6952,-3.6984,-3.7729,-3.8695,0.0,-3.9236,-3.8728,-3.8044,0.0,-3.704,-3.629,0.0,0.0,0.0,0.0,0.0,0.0,0.0,0.0,0.0,0.0,0.0,0.0,0.0,0.0,0.0,0.0,0.0,0.0,-3.5504,-3.5504,-3.5504,-3.5504,-3.5504,-3.5504,-3.5799,-3.5975,-3.5975,-3.6337,-3.6707,-3.713,-3.713,-3.7352,-3.7806,-3.8149,-3.8707,-3.9463,-3.9901,-4.0096,-4.0096,-4.0096,-3.9833,-3.9437,-3.9437,-3.9183,-3.8805,-3.8805,-3.9076,-3.9437,-3.9437,-3.9714,-4.0096,-4.0096,-4.0096,-4.002,-3.9542,-3.9166,-3.8701,-3.7844,-3.7128,-3.6492,-3.6086,-3.575,-3.5504,-3.5504,-3.5504,-3.5504,-3.5504,-3.5504,-3.5504,-3.5504,-3.5504,-3.5504,-3.5504,-3.5504,-3.5504,-3.5504,-3.5504,-3.5504,-3.5504,-3.5504,-3.5504,-3.5504,-3.5504,-3.5504,-3.5504,-3.5504,-3.534,-3.4951,-3.4023,-3.3335,-3.2961,-3.2004,-3.1117,-3.0329,-3.0299,-3.0042,-2.9566,-2.8716,-2.797,-2.7359,-2.6567,-2.5595,0.0,0.0,-3.8309,-3.9511,-3.9368,-3.8924,0.0,0.0,-3.7863,0.0,0.0,0.0,0.0,0.0,0.0,0.0,0.0,0.0,0.0,0.0,0.0,0.0,0.0,0.0,0.0,0.0,0.0,0.0,-3.5504,-3.5504,-3.5504,-3.5504,-3.5504,-3.5504,-3.5504,-3.5504,-3.5504,-3.5504,-3.5782,-3.6337,-3.6337,-3.6631,-3.7205,-3.7397,-3.779,-3.837,-3.9156,-3.9506,-3.9506,-3.9506,-3.9156,-3.8635,-3.8635,-3.8274,-3.7793,-3.7793,-3.8149,-3.8635,-3.8827,-3.9289,-3.9833,-4.0045,-3.9952,-3.9688,-3.9086,-3.8619,-3.8072,-3.6918,-3.6477,-3.6196,-3.5636,-3.5504,-3.5504,-3.5504,-3.5504,-3.5504,-3.5504,-3.5504,-3.5504,-3.5504,-3.5504,-3.5504,-3.5504,-3.5504,-3.5504,-3.5504,-3.5504,-3.5504,-3.5504,-3.5504,-3.5504,-3.5504,-3.5504,-3.5504,-3.5504,-3.5504,-3.5295,-3.4771,-3.3963,-3.3275,-3.2781,-3.1753,-3.0807,-2.9981,-2.9766,-2.9317,-2.8684,-2.7802,-2.7196,-2.6765,-2.5554,-2.4732,0.0,-3.5894,0.0,-3.8431,-3.9031,0.0,0.0,0.0,0.0,0.0,0.0,0.0,0.0,0.0,0.0,0.0,0.0,0.0,0.0,0.0,0.0,0.0,0.0,0.0,0.0,0.0,0.0,0.0,-3.5504,-3.5504,-3.5504,-3.5504,-3.5504,-3.5504,-3.5504,-3.5504,-3.5504,-3.5504,-3.5537,-3.5554,-3.5554,-3.5587,-3.5651,-3.6337,-3.6691,-3.6752,-3.7573,-3.7921,-3.7921,-3.7921,-3.7892,-3.7863,-3.7863,-3.7835,-3.7793,-3.7793,-3.7806,-3.795,-3.8663,-3.8935,-3.9086,-3.9833,-3.9568,-3.8962,-3.8908,-3.7873,-3.6691,-3.66,-3.6086,-3.5569,-3.5504,-3.5504,-3.5504,-3.5504,-3.5504,-3.5504,-3.5504,-3.5504,-3.5504,-3.5504,-3.5504,-3.5504,-3.5504,-3.5504,-3.5504,-3.5504,-3.5504,-3.5504,-3.5504,-3.5504,-3.5504,-3.5504,-3.5504,-3.5504,-3.5504,-3.5504,-3.5489,-3.5459,-3.4218,-3.3484,-3.344,-3.1466,-2.995,-2.9097,-2.8279,-2.7802,-2.7769,-2.6973,-2.6543,-2.6505,-2.5858,-2.5272,0.0,0.0,0.0,-3.7619,-3.8328,-3.8736,-3.8916,0.0,0.0,0.0,0.0,0.0,0.0,0.0,0.0,0.0,0.0,0.0,0.0,0.0,0.0,0.0,0.0,0.0,0.0,0.0,0.0,0.0,0.0,-3.5504,-3.5504,-3.5504,-3.5504,-3.5504,-3.5504,-3.5504,-3.5504,-3.5504,-3.5504,-3.5504,-3.5504,-3.5504,-3.5504,-3.5782,-3.5894,-3.5926,-3.6196,-3.689,-3.7793,-3.7793,-3.7485,-3.7024,-3.7024,-3.6722,-3.6321,-3.6321,-3.6615,-3.7054,-3.7336,-3.7774,-3.8246,-3.8541,-3.843,-3.8104,-3.76,-3.7038,-3.6492,-3.6038,-3.5701,-3.5504,-3.5504,-3.5504,-3.5504,-3.5504,-3.5504,-3.5504,-3.5504,-3.5504,-3.5504,-3.5504,-3.5504,-3.5504,-3.5504,-3.5504,-3.5504,-3.5504,-3.5504,-3.5504,-3.5504,-3.5504,-3.5504,-3.5504,-3.5504,-3.5504,-3.5504,-3.5504,-3.513,-3.4277,-3.3769,-3.311,-3.2243,-3.0981,-2.9889,-2.9034,-2.8149,-2.7451,-2.6939,-2.6658,-2.6499,-2.6474,-2.5523,-2.4963,-3.4089,0.0,0.0,0.0,0.0,-3.7661,-3.8737,0.0,0.0,0.0,0.0,0.0,0.0,0.0,0.0,0.0,0.0,0.0,0.0,0.0,0.0,0.0,0.0,0.0,0.0,0.0,0.0,0.0,0.0,0.0,-3.5504,-3.5504,-3.5504,-3.5504,-3.5504,-3.5504,-3.5504,-3.5504,-3.5504,-3.5504,-3.5504,-3.5504,-3.5504,-3.5504,-3.5504,-3.5504,-3.5504,-3.6085,-3.7041,-3.7041,-3.6707,-3.6228,-3.6228,-3.5911,-3.5504,-3.5504,-3.5814,-3.629,-3.6523,-3.6934,-3.7456,-3.769,-3.7632,-3.7308,-3.6752,-3.6415,-3.6149,-3.5651,-3.5504,-3.5504,-3.5504,-3.5504,-3.5504,-3.5504,-3.5504,-3.5504,-3.5504,-3.5504,-3.5504,-3.5504,-3.5504,-3.5504,-3.5504,-3.5504,-3.5504,-3.5504,-3.5504,-3.5504,-3.5504,-3.5504,-3.5504,-3.5504,-3.5504,-3.5504,-3.5504,-3.5295,-3.4771,-3.3888,-3.3134,-3.2329,-3.1442,-3.0111,-2.916,-2.8556,-2.7736,-2.704,-2.6499,-2.6499,-2.6399,-2.6185,-2.5247,-2.4587,0.0,0.0,0.0,0.0,0.0,0.0,0.0,0.0,0.0,0.0,0.0,0.0,0.0,0.0,0.0,0.0,0.0,0.0,0.0,0.0,0.0,0.0,0.0,0.0,0.0,0.0,0.0,0.0,-3.5472,-3.5504,-3.5504,-3.5504,-3.5489,-3.5474,-3.5474,-3.5474,-3.5474,-3.5474,-3.5489,-3.5504,-3.5504,-3.5504,-3.5504,-3.5504,-3.5504,-3.5504,-3.5504,-3.5504,-3.5504,-3.5504,-3.5504,-3.5504,-3.5504,-3.5504,-3.5504,-3.5504,-3.5504,-3.5619,-3.6337,-3.6584,-3.6707,-3.7485,-3.7203,-3.6584,-3.6584,-3.6054,-3.5504,-3.5504,-3.5504,-3.5504,-3.5504,-3.5504,-3.5504,-3.5504,-3.5504,-3.5504,-3.5504,-3.5504,-3.5504,-3.5504,-3.5504,-3.5504,-3.5504,-3.5504,-3.5504,-3.5504,-3.5504,-3.5504,-3.5504,-3.5504,-3.5504,-3.5504,-3.5472,-3.5472,-3.5472,-3.4829,-3.4394,-3.4379,-3.2355,-3.1147,-3.1133,-2.8906,-2.7703,-2.7703,-2.6905,-2.6499,-2.6499,-2.6499,-2.621,-2.5598,-2.5084,-2.4211,-3.3083,0.0,0.0,0.0,0.0,0.0,0.0,0.0,0.0,0.0,0.0,0.0,0.0,0.0,0.0,0.0,0.0,0.0,0.0,0.0,0.0,0.0,0.0,0.0,0.0,0.0,0.0,0.0,-3.51,-3.5504,-3.5504,-3.5504,-3.528,-3.4771,-3.4788,-3.4788,-3.4788,-3.4788,-3.5011,-3.5504,-3.5504,-3.5504,-3.5504,-3.5504,-3.5504,-3.5504,-3.5504,-3.5504,-3.5504,-3.5504,-3.5504,-3.5504,-3.5504,-3.5504,-3.5504,-3.5504,-3.5504,-3.5537,-3.5718,-3.5814,-3.5846,-3.6053,-3.599,-3.5814,-3.5814,-3.5668,-3.5504,-3.5504,-3.5504,-3.5504,-3.5504,-3.5504,-3.5504,-3.5504,-3.5504,-3.5504,-3.5504,-3.5504,-3.5504,-3.5504,-3.5504,-3.5504,-3.5504,-3.5504,-3.5504,-3.5504,-3.5504,-3.5504,-3.5504,-3.5504,-3.5504,-3.5504,-3.4839,-3.4428,-3.4428,-3.3283,-3.2344,-3.1858,-3.0885,-3.0111,-2.9631,-2.8392,-2.7703,-2.7703,-2.6905,-2.6499,-2.6499,-2.6499,-2.6411,-2.6248,-2.5636,-2.4795,0.0,0.0,0.0,0.0,0.0,0.0,0.0,-3.516,0.0,0.0,0.0,0.0,0.0,0.0,0.0,0.0,0.0,0.0,0.0,0.0,0.0,0.0,0.0,0.0,0.0,-3.3206,-3.3993,-3.3993,-3.4953,-3.5385,-3.51,-3.5355,-3.5055,-3.4129,-3.4622,-3.4788,-3.4503,-3.4788,-3.51,-3.5504,-3.5504,-3.5504,-3.5504,-3.5504,-3.5504,-3.5504,-3.5504,-3.5504,-3.5504,-3.5504,-3.5504,-3.5504,-3.5504,-3.5504,-3.5504,-3.5504,-3.5504,-3.5504,-3.5504,-3.5504,-3.5504,-3.5504,-3.5504,-3.5504,-3.5504,-3.5504,-3.5504,-3.5504,-3.5504,-3.5504,-3.5504,-3.5504,-3.5504,-3.5504,-3.5504,-3.5504,-3.5504,-3.5504,-3.5504,-3.5504,-3.5504,-3.5504,-3.5504,-3.5504,-3.5504,-3.5504,-3.5504,-3.5504,-3.5504,-3.5504,-3.5359,-3.4905,-3.4361,-3.3742,-3.3129,-3.2059,-3.1128,-3.05,-2.9564,-2.8858,-2.8473,-2.7637,-2.7196,-2.7196,-2.6748,-2.6499,-2.6499,-2.6499,-2.626,-2.5749,-2.4946,-2.423,0.0,0.0,0.0,0.0,0.0,0.0,-3.5379,-3.4493,-3.3867,0.0,0.0,0.0,0.0,0.0,0.0,0.0,0.0,0.0,0.0,0.0,0.0,0.0,0.0,0.0,-3.1278,-3.2713,-3.3739,-3.3842,-3.4872,-3.5205,-3.4548,-3.513,-3.4891,-3.3544,-3.4726,-3.51,-3.4518,-3.5085,-3.5429,-3.5504,-3.5504,-3.5504,-3.5504,-3.5504,-3.5504,-3.5504,-3.5504,-3.5504,-3.5504,-3.5504,-3.5504,-3.5504,-3.5504,-3.5504,-3.5504,-3.5504,-3.5504,-3.5504,-3.5504,-3.5504,-3.5504,-3.5504,-3.5504,-3.5504,-3.5504,-3.5504,-3.5504,-3.5504,-3.5504,-3.5504,-3.5504,-3.5504,-3.5504,-3.5504,-3.5504,-3.5504,-3.5504,-3.5504,-3.5504,-3.5504,-3.5504,-3.5504,-3.5504,-3.5504,-3.5504,-3.5504,-3.5504,-3.5504,-3.5504,-3.5392,-3.4986,-3.4095,-3.3808,-3.3125,-3.1751,-3.0952,-3.0268,-2.9745,-2.8372,-2.7571,-2.7571,-2.6871,-2.6499,-2.6499,-2.6499,-2.6499,-2.6499,-2.6499,-2.5925,-2.485,-2.3847,-2.3308,0.0,0.0,0.0,0.0,0.0,0.0,-3.2862,-3.2581,-3.2754,0.0,0.0,0.0,0.0,0.0,0.0,0.0,0.0,0.0,0.0,0.0,0.0,0.0,0.0,0.0,-3.1164,-3.1536,-3.2069,-3.282,-3.4491,-3.5205,-3.4548,-3.513,-3.4891,-3.3544,-3.4294,-3.4638,-3.4503,-3.4638,-3.4966,-3.5504,-3.5504,-3.5504,-3.5504,-3.5504,-3.5504,-3.5504,-3.5504,-3.5504,-3.5504,-3.5504,-3.5504,-3.5504,-3.5504,-3.5504,-3.5504,-3.5504,-3.5504,-3.5504,-3.5504,-3.5504,-3.5504,-3.5504,-3.5504,-3.5504,-3.5504,-3.5504,-3.5504,-3.5504,-3.5504,-3.5504,-3.5504,-3.5504,-3.5504,-3.5504,-3.5504,-3.5504,-3.5504,-3.5504,-3.5504,-3.5504,-3.5504,-3.5504,-3.5504,-3.5504,-3.5504,-3.5504,-3.5504,-3.5504,-3.5504,-3.4791,-3.4211,-3.4027,-3.2629,-3.1455,-3.0748,-2.9428,-2.8408,-2.7844,-2.7156,-2.6714,-2.6714,-2.6589,-2.6499,-2.6499,-2.6499,-2.6499,-2.6499,-2.6499,-2.6147,-2.5435,-2.5222,-2.4657,0.0,0.0,0.0,-3.4769,0.0,0.0,0.0,-3.2618,-3.2578,-3.3593,0.0,0.0,0.0,0.0,0.0,0.0,0.0,0.0,0.0,0.0,0.0,0.0,0.0,0.0,-3.1424,-3.1848,-3.2688,-3.3959,-3.4643,-3.4696,-3.4054,-3.4322,-3.4038,-3.3036,-3.3994,-3.4503,-3.4503,-3.4816,-3.516,-3.5504,-3.5504,-3.5504,-3.5504,-3.5504,-3.5504,-3.5504,-3.5504,-3.5504,-3.5504,-3.5504,-3.5504,-3.5504,-3.5504,-3.5504,-3.5504,-3.5504,-3.5504,-3.5504,-3.5504,-3.5504,-3.5504,-3.5504,-3.5504,-3.5504,-3.5504,-3.5504,-3.5504,-3.5504,-3.5504,-3.5504,-3.5504,-3.5504,-3.5504,-3.5504,-3.5504,-3.5504,-3.5504,-3.5504,-3.5504,-3.5504,-3.5504,-3.5504,-3.5504,-3.5504,-3.5504,-3.5504,-3.5504,-3.5326,-3.4806,-3.4312,-3.3636,-3.2713,-3.1536,-3.0401,-2.9344,-2.8286,-2.7457,-2.6939,-2.665,-2.6499,-2.6499,-2.6499,-2.6499,-2.6499,-2.6499,-2.6499,-2.6499,-2.6499,-2.6059,-2.5197,-2.4933,-2.4356,0.0,0.0,0.0,0.0,0.0,-3.3765,0.0,0.0,0.0,-3.3664,0.0,0.0,0.0,0.0,0.0,0.0,0.0,0.0,0.0,0.0,0.0,0.0,0.0,0.0,0.0,-3.2393,-3.3311,-3.475,-3.4377,-3.3858,-3.3335,-3.3425,-3.3245,-3.2721,-3.3858,-3.4578,-3.4698,-3.5235,-3.5504,-3.5504,-3.5504,-3.5504,-3.5504,-3.5504,-3.5504,-3.5504,-3.5504,-3.5504,-3.5504,-3.5504,-3.5504,-3.5504,-3.5504,-3.5504,-3.5504,-3.5504,-3.5504,-3.5504,-3.5504,-3.5504,-3.5504,-3.5504,-3.5504,-3.5504,-3.5504,-3.5504,-3.5504,-3.5504,-3.5504,-3.5504,-3.5504,-3.5504,-3.5504,-3.5504,-3.5504,-3.5504,-3.5504,-3.5504,-3.5504,-3.5504,-3.5504,-3.5504,-3.5504,-3.5504,-3.5504,-3.5504,-3.5359,-3.4905,-3.4095,-3.3671,-3.2848,-3.1206,-3.048,-2.9507,-2.8069,-2.7544,-2.7077,-2.6524,-2.6499,-2.6499,-2.6499,-2.6499,-2.6499,-2.6499,-2.6499,-2.6499,-2.6499,-2.6499,-2.59,-2.4775,-2.4368,-2.3791,0.0,0.0,0.0,0.0,-3.4972,0.0,0.0,0.0,-3.2158,-3.1664,0.0,0.0,0.0,0.0,0.0,0.0,0.0,0.0,0.0,0.0,0.0,0.0,0.0,0.0,0.0,-3.1946,-3.1648,-3.2425,-3.2653,-3.2706,-3.2632,-3.3185,-3.3469,-3.338,-3.4129,-3.4771,-3.5385,-3.5474,-3.5504,-3.5504,-3.5504,-3.5504,-3.5504,-3.5504,-3.5504,-3.5504,-3.5504,-3.5504,-3.5504,-3.5504,-3.5504,-3.5504,-3.5504,-3.5504,-3.5504,-3.5504,-3.5504,-3.5504,-3.5504,-3.5504,-3.5504,-3.5504,-3.5504,-3.5504,-3.5504,-3.5504,-3.5504,-3.5504,-3.5504,-3.5504,-3.5504,-3.5504,-3.5504,-3.5504,-3.5504,-3.5504,-3.5504,-3.5504,-3.5504,-3.5504,-3.5504,-3.5504,-3.5504,-3.5504,-3.5504,-3.5504,-3.4725,-3.4129,-3.4027,-3.2558,-3.1239,-3.058,-2.9646,-2.861,-2.7505,-2.7354,-2.7077,-2.6524,-2.6499,-2.6499,-2.6499,-2.6499,-2.6499,-2.6499,-2.6499,-2.6499,-2.6499,-2.6499,-2.59,-2.4788,-2.4725,-2.4123,0.0,0.0,0.0,0.0,0.0,0.0,-3.2327,0.0,-3.1701,0.0,0.0,0.0,0.0,0.0,0.0,0.0,0.0,0.0,0.0,0.0,0.0,0.0,0.0,0.0,0.0,0.0,0.0,0.0,-3.2659,-3.2677,-3.3066,-3.335,-3.3664,-3.4084,-3.4354,-3.4801,-3.5489,-3.5504,-3.5504,-3.5504,-3.5504,-3.5504,-3.5504,-3.5504,-3.5504,-3.5504,-3.5504,-3.5504,-3.5504,-3.5504,-3.5504,-3.5504,-3.5504,-3.5504,-3.5504,-3.5504,-3.5504,-3.5504,-3.5504,-3.5504,-3.5504,-3.5504,-3.5504,-3.5504,-3.5504,-3.5504,-3.5504,-3.5504,-3.5504,-3.5504,-3.5504,-3.5504,-3.5504,-3.5504,-3.5504,-3.5504,-3.5504,-3.5504,-3.5326,-3.4725,-3.51,-3.5148,-3.4007,-3.4739,-3.5311,-3.4725,-3.4279,-3.3602,-3.2522,-3.1669,-3.0784,-2.9672,-2.8859,-2.8134,-2.7344,-2.7014,-2.6738,-2.6512,-2.6499,-2.6499,-2.6499,-2.6499,-2.6499,-2.6499,-2.6499,-2.6499,-2.6499,-2.6499,-2.6084,-2.5259,-2.4926,-2.4186,-3.6362,0.0,0.0,0.0,0.0,0.0,0.0,0.0,0.0,0.0,0.0,0.0,0.0,0.0,0.0,0.0,0.0,0.0,0.0,0.0,0.0,0.0,0.0,0.0,0.0,0.0,0.0,0.0,0.0,-3.2328,-3.317,-3.323,-3.3604,-3.4474,-3.4503,-3.4801,-3.5489,-3.5504,-3.5504,-3.5504,-3.5504,-3.5504,-3.5504,-3.5504,-3.5504,-3.5504,-3.5504,-3.5504,-3.5504,-3.5504,-3.5504,-3.5504,-3.5504,-3.5504,-3.5504,-3.5504,-3.5504,-3.5504,-3.5504,-3.5504,-3.5504,-3.5504,-3.5504,-3.5504,-3.5504,-3.5504,-3.5504,-3.5504,-3.5504,-3.5504,-3.5504,-3.5504,-3.5504,-3.5504,-3.5504,-3.5424,-3.5133,-3.5326,-3.5133,-3.3856,-3.4394,-3.4558,-3.289,-3.3973,-3.4758,-3.3774,-3.338,-3.2749,-3.1389,-3.0826,-3.008,-2.8837,-2.821,-2.7657,-2.714,-2.6725,-2.6499,-2.6499,-2.6499,-2.6499,-2.6499,-2.6499,-2.6499,-2.6499,-2.6499,-2.6499,-2.6499,-2.6499,-2.6197,-2.5586,-2.5059,-2.4274,0.0,0.0,0.0,-3.5243,0.0,0.0,0.0,0.0,-3.3136,0.0,0.0,0.0,0.0,0.0,0.0,0.0,0.0,0.0,0.0,0.0,0.0,0.0,0.0,0.0,0.0,0.0,0.0,0.0,0.0,0.0,-3.2467,-3.2512,-3.314,-3.4474,-3.4503,-3.4801,-3.5489,-3.5504,-3.5504,-3.5504,-3.5504,-3.5504,-3.5504,-3.5504,-3.5504,-3.5504,-3.5504,-3.5504,-3.5504,-3.5504,-3.5504,-3.5504,-3.5504,-3.5504,-3.5504,-3.5504,-3.5504,-3.5504,-3.5504,-3.5504,-3.5504,-3.5504,-3.5504,-3.5504,-3.5504,-3.5504,-3.5504,-3.5504,-3.5504,-3.5504,-3.5504,-3.5504,-3.5504,-3.5504,-3.5504,-3.5246,-3.4245,-3.4806,-3.492,-3.3031,-3.338,-3.3739,-3.2784,-3.3429,-3.3739,-3.2784,-3.1852,-3.1278,-3.1217,-2.9918,-2.8737,-2.8197,-2.7645,-2.7115,-2.6562,-2.6499,-2.6499,-2.6499,-2.6499,-2.6499,-2.6499,-2.6499,-2.6499,-2.6499,-2.6499,-2.6499,-2.6499,-2.6499,-2.6197,-2.5586,-2.5059,-2.4519,0.0,0.0,-3.6906,-3.4916,0.0,0.0,0.0,0.0,0.0,0.0,0.0,0.0,0.0,0.0,0.0,0.0,0.0,0.0,0.0,0.0,0.0,0.0,0.0,0.0,0.0,0.0,0.0,0.0,-3.1766,0.0,0.0,-3.4008,-3.4696,-3.5145,-3.516,-3.5265,-3.5504,-3.5504,-3.528,-3.4831,-3.5295,-3.5265,-3.4846,-3.5295,-3.5504,-3.5504,-3.5504,-3.5504,-3.5504,-3.5504,-3.5504,-3.5504,-3.5504,-3.5504,-3.5504,-3.5504,-3.5504,-3.5504,-3.5504,-3.5504,-3.5504,-3.5504,-3.5504,-3.5504,-3.5504,-3.5504,-3.5504,-3.5504,-3.5504,-3.5504,-3.5504,-3.5019,-3.4691,-3.5359,-3.4524,-3.365,-3.3959,-3.3788,-3.322,-3.1924,-3.2429,-3.2571,-3.1033,-3.1549,-3.2033,-3.1706,-3.1389,-3.0826,-2.9817,-2.9214,-2.8574,-2.7657,-2.7394,-2.709,-2.6549,-2.6499,-2.6499,-2.6499,-2.6499,-2.6499,-2.6499,-2.6499,-2.6499,-2.6499,-2.6499,-2.6298,-2.5887,-2.5887,-2.5611,-2.5071,-2.4531,-2.418,-3.5504,-3.6023,0.0,-3.4765,-3.4655,0.0,-3.2189,0.0,0.0,0.0,0.0,0.0,0.0,0.0,0.0,0.0,0.0,0.0,0.0,0.0,0.0,0.0,0.0,0.0,0.0,0.0,-3.2674,-3.2555,0.0,0.0,0.0,0.0,-3.525,-3.5489,-3.5504,-3.5504,-3.5504,-3.5504,-3.528,-3.4846,-3.5295,-3.5265,-3.4861,-3.5295,-3.5504,-3.5504,-3.5504,-3.5504,-3.5504,-3.5504,-3.5504,-3.5504,-3.5504,-3.5504,-3.5504,-3.5504,-3.5504,-3.5504,-3.5504,-3.5504,-3.5439,-3.51,-3.4953,-3.4905,-3.4558,-3.4691,-3.4953,-3.4953,-3.4953,-3.5052,-3.5407,-3.4509,-3.3739,-3.4725,-3.3754,-3.2664,-3.2961,-3.2784,-3.2213,-3.0945,-3.1476,-3.1609,-3.0075,-3.0317,-3.0696,-3.0696,-3.0696,-3.0276,-2.9076,-2.8712,-2.8285,-2.7381,-2.714,-2.6889,-2.6524,-2.6499,-2.6499,-2.6499,-2.6499,-2.6499,-2.6499,-2.6499,-2.6499,-2.6499,-2.6499,-2.6311,-2.59,-2.5699,-2.5423,-2.5084,-2.4343,-2.4004]},{"header":{"parameterUnit":"m.s-1","parameterCategory":1,"la1":30.6,"la2":29.2853,"lo1":-89.7004,"lo2":-87.6739,"dy":0.0162,"dx":0.0183,"nx":112,"ny":82,"refTime":"2025-04-24T06:00:00:Z","depth":0,"parameterNumber":3,"parameterNumberName":"V-component_of_WINDS"},"data":[0.0,0.0,0.0,0.0,0.0,0.0,0.0,0.0,0.0,0.0,0.0,0.0,0.0,0.0,0.0,0.0,0.0,0.0,0.0,0.0,0.0,0.0,0.0,0.0,0.0,0.0,0.0,0.0,0.0,0.0,0.0,0.0,0.0,0.0,0.0,0.0,0.0,0.0,0.0,0.0,0.0,0.0,0.0,0.0,0.0,0.0,0.0,0.0,0.0,0.0,0.0,0.0,0.0,0.0,0.0,0.0,0.0,0.0,0.0,0.0,0.0,0.0,0.0,0.0,0.0,0.0,0.0,0.0,0.0,0.0,0.0,0.0,0.0,0.0,0.0,0.0,0.0,0.0,0.0,0.0,0.0,0.0,0.0,0.0,0.0,0.0,0.0,0.0,0.0,0.0,0.7563,0.7658,0.6853,0.5774,0.4418,0.3103,0.1714,0.0406,0.0,0.0,0.0,0.0,0.0,0.0,0.0,0.0,0.0,0.0,0.0,0.0,0.0,0.0,0.0,0.0,0.0,0.0,0.0,0.0,0.0,0.0,0.0,0.0,0.0,0.0,0.0,0.0,0.0,0.0,0.0,0.0,0.0,0.0,0.0,0.0,0.0,0.0,0.0,0.0,0.0,0.0,0.0,0.0,0.0,0.0,0.0,0.0,0.0,0.0,0.0,0.0,0.0,0.0,0.0,0.0,0.0,0.0,0.0,0.0,0.0,0.0,0.0,0.0,0.0,0.0,0.0,0.0,0.0,0.0,0.0,0.0,0.0,0.0,0.0,0.0,0.0,0.0,0.0,0.0,0.0,0.0,0.0,0.0,0.0,0.0,0.0,0.0,0.0,0.0,0.0,0.0,0.0,0.0,0.0,0.0,0.0,0.0,0.0,0.0,0.0,0.0,0.0,0.0,0.7361,0.787,0.7813,0.7132,0.5827,0.4477,0.3139,0.1796,0.0,0.0,0.0,0.0,0.0,0.0,0.0,0.0,0.0,0.0,0.0,0.0,0.0,0.0,0.0,0.0,0.0,0.0,0.0,0.0,0.0,0.0,0.0,0.0,0.0,0.0,0.0,0.0,0.0,0.0,0.0,0.0,0.0,0.0,0.0,0.0,0.0,0.0,0.0,0.0,0.0,0.0,0.0,0.0,0.0,0.0,0.0,0.0,0.0,0.0,0.0,0.0,0.0,0.0,0.0,0.0,0.0,0.0,0.0,0.0,0.0,0.0,0.0,0.0,0.0,0.0,0.0,0.0,0.0,0.0,0.0,0.0,0.0,0.0,0.0,0.0,0.0,0.0,0.0,0.0,0.0,0.0,0.0,0.0,0.0,0.0,0.0,0.0,0.0,0.0,0.0,0.0,0.0,0.0,0.0,0.0,0.0,0.0,0.0,0.0,0.0,0.0,0.0,0.7278,0.7465,0.7934,0.7988,0.7434,0.6129,0.5386,0.4105,0.2109,0.1374,0.0,0.0,0.0,0.0,0.0,0.0,0.0,0.0,0.0,0.0,0.0,0.0,0.0,0.0,0.0,0.0,0.0,0.0,0.0,0.0,0.0,0.0,0.0,0.0,0.0,0.0,0.0,0.0,0.0,0.0,0.0,0.0,0.0,0.0,0.0,0.0,0.0,0.0,0.0,0.0,0.0,0.0,0.0,0.0,0.0,0.0,0.0,0.0,0.0,0.0,0.0,0.0,0.0,0.0,0.0,0.0,0.0,0.0,0.0,0.0,0.0,0.0,0.0,0.0,0.0,0.0,0.0,0.0,0.0,0.0,0.0,0.0,0.0,0.0,0.0,0.0,0.0,0.0,0.0,0.0,0.0,0.0,0.0,0.0,0.0,0.0,0.0,0.0,0.0,0.0,0.0,0.0,0.0,0.0,0.0,0.0,0.0,0.0,0.0,0.0,0.0,0.0,0.7512,0.7658,0.7951,0.7988,0.7587,0.6581,0.6037,0.4827,0.2599,0.2207,0.0,0.0,0.0,0.0,0.0,0.0,0.0,0.0,0.0,0.0,0.0,0.0,0.0,0.0,0.0,0.0,0.0,0.0,0.0,0.0,0.0,0.0,0.0,0.0,0.0,0.0,0.0,0.0,0.0,0.0,0.0,0.0,0.0,0.0,0.0,0.0,0.0,0.0,0.0,0.0,0.0,0.0,0.0,0.0,0.0,0.0,0.0,0.0,0.0,0.0,0.0,0.0,0.0,0.0,0.0,0.0,0.0,0.0,0.0,0.0,0.0,0.0,0.0,0.0,0.0,0.0,0.0,0.0,0.0,0.0,0.0,0.0,0.0,0.0,0.0,0.0,0.0,0.0,0.0,0.0,0.0,0.0,0.0,0.0,0.0,0.0,0.0,0.0,0.0,0.0,0.0,0.0,0.0,0.0,0.0,0.0,0.0,0.0,0.0,0.0,0.0,0.0,0.7604,0.7955,0.7985,0.7988,0.7939,0.7889,0.6493,0.5122,0.3935,0.3192,0.0,0.0,0.0,0.0,0.0,0.0,0.0,0.0,0.0,0.0,0.0,0.0,0.0,0.0,0.0,0.0,0.0,0.0,0.0,0.0,0.0,0.0,0.0,0.0,0.0,0.0,0.0,0.0,0.0,0.0,0.0,0.0,0.0,0.0,0.0,0.0,0.0,0.0,0.0,0.0,0.0,0.0,0.0,0.0,0.0,0.0,0.0,0.0,0.0,0.0,0.0,0.0,0.0,0.0,0.0,0.0,0.0,0.0,0.0,0.0,0.0,0.0,0.0,0.0,0.0,0.0,0.0,0.0,0.0,0.0,0.0,0.0,0.0,0.0,0.0,0.0,0.0,0.0,0.0,0.0,0.0,0.0,0.0,0.0,0.0,0.0,0.0,0.0,0.0,0.0,0.0,0.0,0.0,0.0,0.0,0.0,0.0,0.0,0.0,0.0,0.0,0.0,0.8459,0.8526,0.0,0.7988,0.7951,0.7906,0.7231,0.6227,0.4777,0.0,0.0,0.0,0.0,0.0,0.0,0.0,0.0,0.0,0.0,0.0,0.0,0.0,0.0,0.0,0.0,0.0,0.0,0.0,0.0,0.0,0.0,0.0,0.0,0.0,0.0,0.0,0.0,0.0,0.0,0.0,0.0,0.0,0.0,0.0,0.0,0.0,0.0,0.0,0.0,0.0,0.0,0.0,0.0,0.0,0.0,0.0,0.0,0.0,0.0,0.0,0.0,0.0,0.0,0.0,0.0,0.0,0.0,0.0,0.0,0.0,0.0,0.0,0.0,0.0,0.0,0.0,0.0,0.0,0.0,0.0,0.0,0.0,0.0,0.0,0.0,0.0,0.0,0.0,0.0,0.0,0.0,0.0,0.0,0.0,0.0,0.0,0.0,0.0,0.0,0.0,0.0,0.0,0.0,0.0,0.0,0.0,0.0,0.0,0.0,0.0,0.0,0.9119,0.9195,0.9086,0.0,0.8241,0.7877,0.7821,0.755,0.6739,0.5207,0.0,0.0,0.0,0.0,0.0,0.0,0.0,0.0,0.0,0.0,0.0,0.0,0.0,0.0,0.0,0.0,0.0,0.0,0.0,0.0,0.0,0.0,0.0,0.0,0.0,0.0,0.0,0.0,0.0,0.0,0.0,0.0,0.0,0.0,0.0,0.0,0.0,0.0,0.0,0.0,0.0,0.0,0.0,0.0,0.0,0.0,0.0,0.0,0.0,0.0,0.0,0.0,0.0,0.0,0.0,0.0,0.0,0.0,0.0,0.0,0.0,0.0,0.0,0.0,0.0,0.0,0.0,0.0,0.0,0.0,0.0,0.0,0.0,0.0,0.0,0.0,0.0,0.0,0.0,0.0,0.0,0.0,0.0,0.0,0.0,0.0,0.0,0.0,0.0,0.0,0.0,0.0,0.0,0.0,0.0,0.0,0.0,0.0,0.0,0.0,0.0,0.0,1.0138,0.9795,0.9642,0.9972,0.8717,0.7856,0.7852,0.7268,0.643,0.0,0.0,0.0,0.0,0.0,0.0,0.0,0.0,0.0,0.0,0.0,0.0,0.0,0.0,0.0,0.0,0.0,0.0,0.0,0.0,0.0,0.0,0.0,0.0,0.0,0.0,0.0,0.0,0.0,0.0,0.0,0.0,0.0,0.0,0.0,0.0,0.0,0.0,0.0,0.0,0.0,0.0,0.0,0.0,0.0,0.0,0.0,0.0,0.0,0.0,0.0,0.0,0.0,0.0,0.0,0.0,0.0,0.0,0.0,0.0,0.0,0.0,0.0,0.0,0.0,0.0,0.0,0.0,0.0,0.0,0.0,0.0,0.0,0.0,0.0,0.0,0.0,0.0,0.0,0.0,0.0,0.0,0.0,0.0,0.0,0.0,0.0,0.0,0.0,0.0,0.0,0.0,0.0,0.0,0.0,0.0,0.0,0.0,0.0,0.0,0.0,0.0,0.0,1.0864,1.1343,1.145,1.0838,1.0384,1.006,0.9926,0.892,0.797,0.7179,0.0,0.0,0.0,0.0,0.0,0.0,0.0,0.0,0.0,0.0,0.0,0.0,0.0,0.0,0.0,0.0,0.0,0.0,0.0,0.0,0.0,0.0,0.0,0.0,0.0,0.0,0.0,0.0,0.0,0.0,0.0,0.0,0.0,0.0,0.0,0.0,0.0,0.0,0.0,0.0,0.0,0.0,0.0,0.0,0.0,0.0,0.0,0.0,0.0,0.0,0.0,0.0,0.0,0.0,0.0,0.0,0.0,0.0,0.0,0.0,0.0,0.0,0.0,0.0,0.0,0.0,0.0,0.0,0.0,0.0,0.0,0.0,0.0,0.0,0.0,0.0,0.0,0.0,0.0,0.0,0.0,0.0,0.0,0.0,0.0,0.0,0.0,0.0,0.0,0.0,0.0,0.0,0.0,0.0,0.0,0.0,0.0,0.0,0.0,0.0,0.0,0.0,1.1766,1.2265,1.2421,1.1933,1.1329,1.091,1.0825,0.9889,0.9064,0.8536,0.0,0.0,0.0,0.0,0.0,0.0,0.0,0.0,0.0,0.0,0.0,0.0,0.0,0.0,0.0,0.0,0.0,0.0,0.0,0.0,0.0,0.0,0.0,0.0,0.0,0.0,0.0,0.0,0.0,0.0,0.0,0.0,0.0,0.0,0.0,0.0,0.0,0.0,0.0,0.0,0.0,0.0,0.0,0.0,0.0,0.0,0.0,0.0,0.0,0.0,0.0,0.0,0.0,0.0,0.0,0.0,0.0,0.0,0.0,0.0,0.0,0.0,0.0,0.0,0.0,0.0,0.0,0.0,0.0,0.0,0.0,0.0,0.0,0.0,0.0,0.0,0.0,0.0,0.0,0.0,0.0,0.0,0.0,0.0,0.0,0.0,0.0,0.0,0.0,0.0,0.0,0.0,0.0,0.0,0.0,0.0,0.0,0.0,0.0,0.0,0.0,0.0,1.267,1.2705,1.2801,1.3054,1.1886,1.1097,1.1097,1.0485,0.9925,0.9542,0.0,0.0,0.0,0.0,0.0,0.0,0.0,0.0,0.0,0.0,0.0,0.0,0.0,0.0,0.0,0.0,0.0,0.0,0.0,0.0,0.0,0.0,0.0,0.0,0.0,0.0,0.0,0.0,0.0,0.0,0.0,0.0,0.0,0.0,0.0,0.0,0.0,0.0,0.0,0.0,0.0,0.0,0.0,0.0,0.0,0.0,0.0,0.0,0.0,0.0,0.0,0.0,0.0,0.0,0.0,0.0,0.0,0.0,0.0,0.0,1.7818,0.0,0.0,0.0,0.0,0.0,0.0,0.0,0.0,0.0,0.0,0.0,0.0,0.0,0.0,0.0,0.0,0.0,0.0,0.0,0.0,0.0,0.0,0.0,0.0,0.0,0.0,0.0,0.0,0.0,0.0,0.0,0.0,0.0,0.0,0.0,0.0,0.0,0.0,0.0,0.0,0.0,1.2325,1.2988,1.3516,1.3844,1.3604,1.3395,1.3395,1.2117,1.1243,1.1053,0.9188,0.0,0.0,0.0,0.0,0.0,0.0,0.0,0.0,0.0,0.0,0.0,0.0,0.0,0.0,0.0,0.0,0.0,0.0,0.0,0.0,0.0,0.0,0.0,0.0,0.0,0.0,0.0,0.0,0.0,0.0,0.0,0.0,0.0,0.0,0.0,0.0,0.0,0.0,0.0,0.0,0.0,0.0,0.0,0.0,0.0,0.0,0.0,0.0,0.0,0.0,0.0,0.0,0.0,0.0,0.0,0.0,0.0,0.0,0.0,0.0,1.855,0.0,0.0,0.0,0.0,0.0,0.0,0.0,0.0,0.0,0.0,0.0,0.0,0.0,0.0,0.0,0.0,0.0,0.0,0.0,0.0,0.0,0.0,0.0,0.0,0.0,0.0,0.0,0.0,0.0,0.0,0.0,0.0,0.0,0.0,0.0,0.0,0.0,0.0,0.0,0.0,1.2225,1.3047,1.372,1.4055,1.4088,1.4088,1.4088,1.3087,1.2353,1.2139,1.0402,0.0,0.0,0.0,0.0,0.0,0.0,0.0,0.0,0.0,0.0,0.0,0.0,0.0,0.0,0.0,0.0,0.0,0.0,0.0,0.0,0.0,0.0,0.0,0.0,0.0,0.0,0.0,0.0,0.0,0.0,0.0,0.0,0.0,0.0,0.0,0.0,0.0,0.0,0.0,0.0,0.0,0.0,0.0,0.0,0.0,0.0,0.0,0.0,0.0,0.0,0.0,0.0,0.0,2.3896,2.4082,2.4414,2.4414,2.4414,2.4263,2.132,2.0005,1.9837,1.8507,0.0,0.0,0.0,0.0,0.0,0.0,0.0,0.0,0.0,0.0,0.0,0.0,0.0,0.0,0.0,0.0,0.0,0.0,0.0,0.0,0.0,0.0,0.0,0.0,1.3793,1.3311,0.0,0.0,0.0,0.0,0.0,0.0,0.0,0.0,0.0,0.0,0.0,0.0,1.2305,1.312,1.3693,1.3981,1.4008,1.3988,1.3941,1.344,1.3019,1.2804,1.1448,1.0421,0.0,0.0,0.0,0.0,0.0,0.0,0.0,0.0,0.0,0.0,0.0,0.0,0.0,0.0,0.0,0.0,0.0,0.0,0.0,0.0,0.0,0.0,0.0,0.0,0.0,0.0,0.0,0.0,0.0,0.0,0.0,0.0,2.1591,2.0721,0.0,0.0,0.0,0.0,0.0,0.0,0.0,0.0,0.0,0.0,0.0,0.0,0.0,2.4248,2.4248,2.4248,2.4277,2.4336,2.4336,2.4365,2.4414,2.4414,2.4414,2.4358,2.3898,0.0,2.1633,2.114,0.0,0.0,0.0,0.0,0.0,0.0,0.0,0.0,0.0,0.0,0.0,0.0,0.0,0.0,0.0,0.0,0.0,0.0,0.0,0.0,0.0,0.0,1.515,1.4863,1.4589,1.4246,0.0,1.2765,1.1784,1.1138,1.1123,0.0,0.0,0.0,0.0,0.0,0.0,0.0,1.265,1.3247,1.362,1.366,1.366,1.356,1.3347,1.3045,1.2831,1.279,1.2121,1.1671,1.1592,1.0118,0.0,0.0,0.0,0.0,0.0,0.0,0.0,0.0,0.0,0.0,0.0,0.0,0.0,0.0,0.0,0.0,0.0,0.0,0.0,0.0,0.0,0.0,0.0,0.0,0.0,0.0,0.0,0.0,0.0,2.3405,2.3214,2.2859,2.3364,2.3559,0.0,0.0,0.0,0.0,0.0,0.0,0.0,0.0,0.0,2.4502,2.4687,2.4902,2.5109,2.4912,2.4912,2.5109,2.4902,2.4912,2.5109,2.5109,2.5109,2.5109,2.5109,2.4619,2.3645,2.2346,2.1248,2.0314,0.0,0.0,0.0,0.0,1.6491,1.6691,1.5776,1.5693,0.0,1.5841,0.0,0.0,0.0,0.0,0.0,0.0,0.0,0.0,0.0,0.0,1.5541,1.6111,1.6104,1.6088,1.646,1.5988,1.4853,0.0,1.2201,1.1931,1.1176,0.0,0.0,0.0,0.0,1.2301,1.273,1.3273,1.36,1.36,1.36,1.3487,1.3233,1.2965,1.2784,1.2784,1.2382,1.2074,1.1913,1.1214,1.0354,0.0,0.0,0.0,0.0,0.0,0.0,0.0,0.0,0.0,0.0,0.0,0.0,0.0,0.0,0.0,0.0,0.0,0.0,0.0,0.0,0.0,0.0,0.0,0.0,0.0,0.0,0.0,0.0,2.4316,2.4629,2.4736,2.5137,2.5116,0.0,0.0,0.0,0.0,0.0,0.0,2.4736,2.4863,2.5068,2.5439,2.5508,2.5732,2.6015,2.5732,2.5684,2.5898,2.5566,2.5518,2.5693,2.5693,2.5693,2.5693,2.5693,2.5547,2.5128,2.3467,2.2492,2.1957,2.0427,1.9815,1.9592,1.8271,1.7842,1.7828,1.7035,1.7182,1.7734,1.7577,0.0,1.853,1.8062,0.0,0.0,0.0,0.0,1.5753,1.6074,1.6277,1.6677,1.7561,1.7763,1.7825,1.8324,1.8177,1.7179,0.0,1.3834,1.3601,1.2727,0.0,0.0,0.0,0.0,1.3477,1.3798,1.4015,1.409,1.3932,1.3649,1.334,1.3013,1.2804,1.267,1.267,1.2425,1.2204,1.2027,1.1946,1.1316,0.9996,0.0,0.0,0.0,0.0,0.0,0.0,0.0,0.0,0.0,0.0,0.0,0.0,0.0,0.0,0.0,0.0,0.0,0.0,0.0,0.0,0.0,0.0,0.0,0.0,0.0,0.0,0.0,0.0,0.0,2.5567,2.6055,0.0,0.0,0.0,0.0,2.5086,2.54,2.5606,2.5615,2.6064,2.6299,2.6318,2.6709,2.6924,2.6953,2.6924,2.6728,2.6357,2.6328,2.6113,2.5693,2.5693,2.5693,2.5693,2.5693,2.5674,2.5615,2.5148,2.4465,2.357,2.2336,2.2268,2.2576,2.0234,2.0082,2.0918,1.9699,1.9343,1.9372,1.9356,1.9021,1.8579,1.8537,1.833,0.0,0.0,1.8682,1.8949,1.9212,1.9265,1.9327,1.9372,1.9208,1.8905,1.8498,1.8177,1.7738,0.0,1.6676,1.6514,1.588,0.0,1.5746,1.5766,1.5989,1.6302,1.6665,1.6058,1.5353,1.4814,1.3838,1.2993,1.2398,1.2331,1.2325,1.2325,1.2311,1.2291,1.2278,1.2053,1.1717,1.1315,1.0093,0.0,0.0,0.0,0.0,0.0,0.0,0.0,0.0,0.0,0.0,0.0,0.0,0.0,0.0,0.0,0.0,0.0,0.0,0.0,0.0,0.0,0.0,0.0,0.0,0.0,0.0,0.0,0.0,2.6894,2.7119,0.0,2.6377,2.6221,2.6094,2.5928,2.6064,2.6279,2.6543,2.6709,2.6924,2.7258,2.7353,2.7568,2.7832,2.7568,2.7217,2.6787,2.6514,2.6162,2.5693,2.5693,2.5693,2.5693,2.5693,2.5693,2.5654,2.5254,2.4727,2.4114,2.3424,2.3115,2.2906,2.1257,2.0935,2.1114,1.9898,1.9988,2.08,2.1543,2.1669,2.1516,2.1516,2.0875,2.0219,2.0307,1.987,1.9377,1.9464,1.9497,1.9716,2.0486,2.0377,2.0218,2.0576,2.0347,1.9894,1.9399,1.8,1.6763,1.6338,1.6254,1.6216,1.6018,1.6422,1.6779,1.6865,1.6563,1.619,1.575,1.4576,1.3681,1.3243,1.2666,1.2305,1.2305,1.2305,1.2305,1.2305,1.2024,1.173,1.1395,1.0621,1.0045,0.0,0.0,0.0,0.0,0.0,0.0,0.0,0.0,0.0,0.0,0.0,0.0,0.0,0.0,0.0,0.0,0.0,0.0,0.0,0.0,0.0,0.0,0.0,0.0,0.0,0.0,2.6865,2.763,2.792,2.7861,2.7295,2.7236,2.7129,2.6846,2.6953,2.7158,2.7432,2.7441,2.7578,2.7871,2.7881,2.8018,2.8291,2.8018,2.7588,2.7012,2.6728,2.6299,2.5693,2.5693,2.5693,2.5674,2.5576,2.5518,2.5478,2.5029,2.459,2.418,2.3896,2.3525,2.3003,2.2217,2.1658,2.1203,2.0395,2.0899,2.2031,2.2818,2.3091,2.3091,2.3091,2.2536,2.1889,2.1889,2.1355,2.0719,2.0719,2.0719,2.0908,2.1712,2.1593,2.1409,2.1806,2.1543,2.1064,2.0693,1.9288,1.8064,1.7838,1.7831,1.7743,1.7569,1.7778,1.7955,1.8126,1.7489,1.697,1.6791,1.5504,1.4541,1.423,1.3244,1.2665,1.2762,1.2292,1.2051,1.2151,1.1877,1.1623,1.1395,1.1141,1.0885,1.069,0.0,0.0,0.0,0.0,0.0,0.0,0.0,0.0,0.0,0.0,0.0,0.0,0.0,0.0,0.0,0.0,0.0,0.0,0.0,0.0,0.0,0.0,0.0,2.5732,2.6464,2.7217,2.7718,2.8447,2.8623,2.7875,2.8457,2.8584,2.7826,2.8066,2.8291,2.8291,2.8291,2.8291,2.8291,2.8291,2.8291,2.8291,2.8291,2.7861,2.7012,2.7012,2.6512,2.5693,2.5693,2.5693,2.5664,2.5283,2.5125,2.5077,2.459,2.417,2.3789,2.3789,2.3525,2.3091,2.3091,2.2359,2.1346,2.1346,2.212,2.3091,2.3091,2.3091,2.3091,2.3091,2.3091,2.3091,2.3091,2.3091,2.3091,2.3091,2.3091,2.3091,2.3081,2.275,2.2373,2.1953,2.1523,2.1084,2.0693,2.0605,2.0605,2.0605,2.0605,2.0595,2.0586,2.0185,0.0,2.0507,1.8901,1.7766,1.7915,1.6536,1.5543,1.5259,1.4073,1.3464,1.3708,1.2298,1.1626,1.1964,1.1653,1.1485,1.1478,1.171,1.2087,1.2597,0.0,0.0,0.0,0.0,0.0,0.0,0.0,0.0,0.0,0.0,0.0,0.0,0.0,0.0,0.0,0.0,0.0,0.0,0.0,0.0,0.0,2.5635,2.6318,2.6621,2.7402,2.8213,2.901,2.9248,2.9424,2.9492,2.915,2.8818,2.8594,2.8398,2.8291,2.8291,2.8291,2.8291,2.8291,2.8291,2.8291,2.8291,2.8291,2.7861,2.7012,2.7012,2.6512,2.5693,2.5693,2.5693,2.5684,2.5557,2.5371,2.5077,2.459,2.417,2.3789,2.3789,2.3525,2.3091,2.3091,2.2906,2.2633,2.2633,2.2818,2.3091,2.3091,2.3091,2.3091,2.3091,2.3091,2.3091,2.3091,2.3091,2.3091,2.3091,2.3091,2.3023,2.2711,2.2363,2.1943,2.1504,2.1064,2.0752,2.0625,2.0605,2.0605,2.0605,2.0605,2.0498,2.0137,1.999,0.0,1.9668,1.8897,1.8381,1.8416,1.715,1.629,1.6219,1.4963,1.422,1.4282,1.3596,1.3375,1.3785,1.3507,1.3236,1.3018,1.2588,1.2453,0.0,0.0,0.0,0.0,0.0,0.0,0.0,0.0,0.0,0.0,0.0,0.0,0.0,0.0,0.0,0.0,0.0,0.0,0.0,0.0,0.0,0.0,2.6738,2.7402,2.7998,2.8359,2.8877,2.9736,2.9834,2.9932,3.0176,2.959,2.9111,2.8926,2.8535,2.8291,2.8291,2.8291,2.8291,2.8291,2.8291,2.8291,2.8291,2.8291,2.7861,2.7012,2.7012,2.6512,2.5693,2.5693,2.5693,2.5674,2.5537,2.5205,2.4756,2.4326,2.3906,0.0,0.0,0.0,0.0,0.0,2.2677,2.3047,2.2536,2.2677,2.3091,2.3091,2.3091,2.3091,2.3091,2.3091,2.3091,2.3091,2.3091,2.3091,2.3091,2.3091,2.2984,2.2617,2.2197,2.1768,2.1288,2.0879,2.0605,2.0605,2.0605,0.0,2.0605,2.0449,2.0205,1.9951,1.9609,1.9355,1.9297,1.875,1.8403,1.8588,1.7748,1.7182,1.7182,1.5959,0.0,0.0,0.0,1.4073,1.4131,1.3966,0.0,0.0,0.0,0.0,0.0,0.0,0.0,0.0,1.3558,1.3544,0.0,0.0,0.0,0.0,0.0,0.0,0.0,0.0,0.0,0.0,0.0,0.0,0.0,0.0,0.0,0.0,2.8057,2.8662,2.9521,2.9307,2.9346,3.0107,3.0244,3.0273,3.0273,2.9853,2.9414,2.9023,2.8555,2.8291,2.8291,0.0,0.0,0.0,0.0,2.8291,2.8291,2.8252,2.7822,2.7012,2.6973,2.6523,2.5693,2.5693,2.5693,2.5664,2.5264,2.4814,2.4385,2.3965,2.3535,2.3091,2.3091,2.3091,2.296,2.1889,2.2173,2.296,2.1889,0.0,0.0,2.3091,2.3091,2.3091,2.3091,2.3091,2.3091,2.3091,2.3091,2.3091,2.3091,2.3091,2.2974,2.2549,2.2158,2.1748,2.122,2.084,2.0605,2.0605,2.0605,2.0605,2.0605,2.0205,1.9893,1.9853,1.9114,1.8724,1.9102,1.8477,1.8154,1.849,0.0,0.0,1.8008,1.6934,1.6361,1.6649,1.5412,1.4456,1.406,1.4043,1.44,1.5172,1.5126,1.5635,1.6697,1.6697,1.6726,1.6746,1.4965,1.4874,0.0,0.0,0.0,0.0,0.0,0.0,0.0,0.0,0.0,0.0,0.0,0.0,0.0,0.0,0.0,2.7818,2.8301,2.9092,2.9951,3.0,3.001,3.0176,3.0527,3.0752,3.0752,3.0039,2.9531,2.9453,2.873,2.8291,2.8291,2.8291,2.8291,2.8291,2.8291,2.8291,2.8291,2.7959,2.7529,2.7012,0.0,0.0,2.5693,2.5693,2.5693,2.5664,2.5264,2.4814,2.4385,2.3965,2.3535,2.3091,2.3091,2.3091,2.3047,2.2818,2.2906,2.3047,2.2818,2.2906,2.3091,2.3091,2.3091,2.3091,2.3091,2.3091,0.0,2.3091,2.3091,2.3091,2.3091,2.3091,2.2906,2.2187,2.1943,2.167,2.0909,2.0664,2.0605,2.0605,2.0605,2.0605,2.0605,2.0205,1.9805,1.9453,1.8965,1.851,1.8291,1.8115,1.8037,1.8125,1.8057,1.8008,1.8008,1.7474,1.7172,1.7249,1.6972,1.6773,1.6655,1.6655,1.6753,1.6925,1.6555,1.6483,1.6697,1.6697,1.6882,1.7246,1.6473,1.629,0.0,0.0,0.0,0.0,0.0,0.0,0.0,0.0,0.0,0.0,0.0,3.2171,3.0522,0.0,3.0809,3.0181,2.9764,2.9785,3.0449,3.1197,3.1358,3.0652,3.0752,3.0889,3.0889,3.0088,2.9626,2.9626,2.8779,2.8291,2.8291,2.8291,2.8291,2.8291,2.8291,2.8291,2.8291,2.7881,2.7441,2.7012,2.6592,2.6162,2.5693,2.5693,2.5693,2.5664,2.5264,2.4814,2.4365,2.373,2.3286,2.3091,2.3091,2.3091,2.3091,2.3091,2.3091,2.3091,2.3091,2.3091,2.3091,2.3091,2.3091,2.3091,2.3091,2.3091,2.3091,2.3091,2.3091,2.3091,2.3091,2.3091,2.2886,2.209,2.1885,2.1641,2.0791,2.0605,2.0605,2.0605,2.0605,2.0605,2.0605,2.0029,1.9531,1.9316,1.874,1.8217,1.8037,1.8008,1.8008,1.8008,1.8008,1.8008,1.8008,1.7822,1.7695,1.7695,1.7695,1.7598,1.7393,1.7383,1.7383,1.7383,1.6921,1.6911,1.734,1.7158,1.7275,1.7686,1.7471,1.734,0.0,0.0,0.0,0.0,0.0,0.0,0.0,0.0,3.2604,3.2817,3.4022,3.4764,3.3971,3.3762,3.3409,3.2524,3.1472,3.0784,3.0898,3.193,3.2223,3.0936,3.1111,3.1189,3.082,3.0039,2.9531,2.9453,2.873,2.8291,2.8291,2.8291,2.8291,2.8291,2.8291,2.8291,2.8291,2.7793,2.7363,2.7012,2.6504,2.6084,2.5693,2.5693,2.5693,2.5664,2.5176,2.4648,2.4066,2.3383,2.3091,2.3091,2.3091,2.3091,2.3091,2.3091,2.3091,2.3091,2.3091,2.3091,2.3091,2.3091,2.3091,2.3091,2.3091,2.3091,2.3091,2.3091,2.3091,2.3091,2.3091,2.3091,2.2906,2.2187,2.1943,2.167,2.0909,2.0664,2.0605,2.0605,2.0605,2.0605,2.0605,1.9891,1.9287,1.9287,1.8555,1.8008,1.8008,1.8008,1.8008,1.8008,1.8008,1.8008,1.8008,1.8008,1.8008,1.8008,1.8008,1.7852,1.7519,1.75,1.75,1.75,1.708,1.7204,1.8008,1.7588,1.7598,1.8008,1.8008,1.8008,2.7733,2.7865,2.8606,2.9546,3.0618,3.1763,0.0,0.0,3.3985,3.4931,3.5717,3.5941,3.5158,3.5698,3.5414,3.284,3.2609,3.2364,3.1102,3.1054,3.0954,3.0379,3.1771,3.2194,3.0474,2.9853,2.9414,2.9023,2.8555,2.8291,2.8291,2.8291,2.8291,2.8291,2.8291,2.8291,2.8291,2.749,2.706,2.7002,2.6152,2.5732,2.5693,2.5693,2.5693,2.5645,2.4853,2.4033,2.3227,2.314,2.3091,2.3091,2.3091,2.3091,2.3091,2.3091,2.3091,2.3091,2.3091,2.3091,2.3091,2.3091,2.3091,2.3091,2.3091,2.3091,2.3091,2.3091,2.3091,2.3091,2.3091,2.3091,2.2974,2.2549,2.2158,2.1748,2.122,2.084,2.0605,2.0605,2.0605,2.0605,2.0605,1.9891,1.9287,1.9287,1.8555,1.8008,1.8008,1.8008,1.8008,1.8008,1.8008,1.8008,1.8008,1.8008,1.8008,1.8008,1.8008,1.7988,1.7939,1.7939,1.7939,1.7939,1.7529,1.7539,1.8008,1.7588,1.7598,1.8008,1.8008,1.8008,2.7448,2.7595,2.8191,2.9041,3.0567,3.2085,3.3202,3.4161,3.4944,3.5408,3.6496,3.7229,3.6887,3.701,3.6761,0.0,3.4813,3.3856,3.2369,3.3396,3.3527,3.1569,3.2632,3.2515,3.0069,2.9443,2.9111,2.8926,2.8535,2.8291,2.8291,2.8291,2.8291,2.8291,2.8291,2.8174,2.793,2.7324,2.6894,2.6641,2.5976,2.5693,2.5693,2.5693,2.5411,2.4884,2.4316,2.3711,2.3091,2.3091,2.3091,2.3091,2.3091,2.3091,2.3091,2.3091,2.3091,2.3091,2.3091,2.3091,2.3091,2.3091,2.3091,2.3091,2.3091,2.3091,2.3091,2.3091,2.3091,2.3091,2.3091,2.3091,2.2984,2.2617,2.2197,2.1768,2.1288,2.0879,2.0605,2.0605,2.0605,2.0605,2.0605,1.9891,1.9287,1.9287,1.8555,1.8008,1.8008,1.8008,1.8008,1.8008,1.8008,1.8008,1.8008,1.8008,1.8008,1.8008,1.8008,1.8008,1.8008,1.8008,1.79,1.7656,1.7471,1.7471,1.7646,1.7471,1.7598,1.8008,1.8008,1.8008,2.6444,2.6769,2.7488,2.8607,3.0501,3.2346,3.3308,3.4688,3.5818,3.5922,3.6948,3.7826,3.7977,3.7931,3.775,3.7357,3.6503,3.5222,3.335,3.4786,3.507,3.2351,3.2631,3.219,3.0013,2.9242,2.8867,2.875,2.8467,2.8291,2.8291,2.8291,2.8291,2.8291,2.8174,2.7969,2.7718,2.7119,2.6689,2.6387,2.5947,2.5693,2.5684,2.5605,2.5137,2.4394,2.3975,2.3545,2.3091,2.3091,2.3091,2.3091,2.3091,2.3091,2.3091,2.3091,2.3091,2.3091,2.3091,2.3091,2.3091,2.3091,2.3091,2.3091,2.3091,2.3091,2.3091,2.3091,2.3091,2.3091,2.3091,2.3091,2.2984,2.2617,2.2197,2.1768,2.1288,2.0879,2.0605,2.0605,2.0605,2.0605,2.0605,1.9891,1.9287,1.9287,1.8555,1.8008,1.8008,1.8008,1.8008,1.8008,1.8008,1.8008,1.8008,1.8008,1.8008,1.8008,1.8008,1.8008,1.8008,1.8008,1.7871,1.7559,1.7474,1.7441,1.7559,1.7441,1.7598,1.8008,1.8008,1.7949,2.3924,2.4652,2.5995,2.8233,3.0451,3.2539,3.4267,3.5529,3.6531,3.7023,3.7174,3.7374,3.7902,3.8492,3.8399,3.6976,3.7132,3.6422,3.3519,3.3867,3.3756,3.1864,3.1314,3.0863,0.0,2.946,2.875,2.834,2.8301,2.8291,2.8291,2.8291,2.8291,2.8291,2.79,2.7728,2.7718,2.6826,2.6396,2.6387,2.5947,2.5693,2.5674,2.5283,2.4844,2.4394,2.3975,2.3545,2.3091,2.3091,2.3091,2.3091,2.3091,2.3091,2.3091,2.3091,2.3091,2.3091,2.3091,2.3091,2.3091,2.3091,2.3091,2.3091,2.3091,2.3091,2.3091,2.3091,2.3091,2.3091,2.3091,2.3091,2.2984,2.2617,2.2197,2.1768,2.1288,2.0879,2.0605,2.0605,2.0605,2.0605,2.0605,1.9891,1.9287,1.9287,1.8555,1.8008,1.8008,1.8008,1.8008,1.8008,1.8008,1.8008,1.8008,1.8008,1.8008,1.8008,1.8008,1.8008,1.8008,1.8008,1.8008,1.7988,1.7588,1.7578,1.7988,1.7578,1.7598,1.8008,1.8008,1.7793,2.3789,2.4509,2.5604,2.7168,2.9189,3.131,3.3114,3.4712,3.5981,3.6568,3.6681,3.6857,3.7362,3.7626,3.7841,3.8098,3.8306,3.7842,3.6268,3.6802,3.6294,3.3389,3.2704,0.0,0.0,0.0,0.0,2.8301,2.8291,2.8291,2.8291,2.8291,2.8291,2.8291,2.7933,2.7529,2.7236,2.667,2.624,2.5908,2.5762,2.5693,2.5664,2.4971,2.4551,2.4375,2.3662,2.3227,2.3091,2.3091,2.3091,2.3091,2.3091,2.3091,2.3091,2.3091,2.3091,2.3091,2.3091,2.3091,2.3091,2.3091,2.3091,2.3091,2.3091,2.3091,2.3091,2.3091,2.3091,2.3091,2.3091,2.3091,2.2984,2.2617,2.2197,2.1768,2.1288,2.0879,2.0605,2.0605,2.0605,2.0605,2.0605,1.9891,1.9092,1.8525,1.8193,1.8008,1.8008,1.8008,1.8008,1.8008,1.8008,1.8008,1.8008,1.8008,1.8008,1.8008,1.8008,1.8008,1.8008,1.8008,1.7881,1.7598,1.7734,1.7734,1.7598,1.7734,1.7871,1.8008,1.8008,1.7939,2.3975,2.4531,2.5429,2.6827,2.8355,2.9989,3.1552,3.297,3.4025,3.4411,3.4827,3.5246,3.5591,3.616,3.696,3.809,3.8016,3.7751,3.7529,3.7834,3.7115,3.4324,3.3642,3.2641,0.0,0.0,0.0,2.8301,2.8291,2.8291,2.8291,2.8291,2.8223,2.8076,2.7656,2.7226,2.6797,2.6367,2.6016,2.5693,2.5693,2.5693,2.5664,2.4824,2.4414,2.4365,2.3471,2.3091,2.3091,2.3091,2.3091,2.3091,2.3091,2.3091,2.3091,2.3091,2.3091,2.3091,2.3091,2.3091,2.3091,2.3091,2.3091,2.3091,2.3091,2.3091,2.3091,2.3091,2.3091,2.3091,2.3091,2.3091,2.2984,2.2617,2.2197,2.1768,2.1288,2.0879,2.0605,2.0605,2.0605,2.0605,2.0605,1.9891,1.9043,1.8305,1.8105,1.8008,1.8008,1.8008,1.8008,1.8008,1.8008,1.8008,1.8008,1.8008,1.8008,1.8008,1.8008,1.8008,1.8008,1.8008,1.7881,1.7607,1.7871,1.7881,1.7607,1.7881,1.8008,1.8008,1.8008,1.8008,2.4336,2.4775,2.5528,2.7107,2.7914,2.8673,2.9853,3.0541,3.0985,3.1007,3.1959,3.278,0.0,0.0,3.5775,3.6998,3.6402,3.6173,3.7322,3.6984,3.6075,0.0,0.0,0.0,0.0,0.0,0.0,2.833,0.0,2.8291,2.8291,2.8291,2.8096,2.7728,2.7236,2.6816,2.6396,2.5908,2.5693,2.5693,2.5693,2.5674,2.5625,2.4805,2.4404,2.4336,2.3452,2.3091,2.3091,2.3091,2.3091,2.3091,2.3091,2.3091,2.3091,2.3091,2.3091,2.3091,2.3091,2.3091,2.3091,2.3091,2.3091,2.3091,2.3091,2.3091,2.3091,2.3091,2.3091,2.3091,2.3091,2.3091,2.2984,2.2617,2.2207,2.1787,2.1298,2.0898,2.0635,2.0605,2.0605,2.0595,2.0576,1.9881,1.9141,1.8666,1.8247,1.8008,1.8008,1.8008,1.8008,1.8008,1.8008,1.8008,1.8008,1.8008,1.8008,1.8008,1.8008,1.8008,1.8008,1.8008,1.8008,1.8008,1.8008,1.8008,1.8008,1.8008,1.8008,1.8076,1.8008,1.8042,2.4785,2.5225,2.5634,2.6081,2.6979,2.7994,2.8716,2.9679,3.0532,3.094,3.0916,3.1297,0.0,0.0,0.0,3.6791,3.6402,0.0,3.7322,3.6425,0.0,3.3124,0.0,3.1881,2.9673,2.9124,0.0,0.0,2.8291,2.8291,2.8291,2.8291,2.8096,2.7728,2.7236,2.6816,2.6396,2.5908,2.5693,2.5693,2.5693,2.5566,2.5215,2.4668,2.4248,2.3916,2.3335,2.3091,2.3091,2.3091,2.3091,2.3091,2.3091,2.3091,2.3091,2.3091,2.3091,2.3091,2.3091,2.3091,2.3091,2.3091,2.3091,2.3091,2.3091,2.3091,2.3091,2.3091,2.3091,2.3091,2.3091,2.3091,2.2984,2.2617,2.2432,2.2148,2.1356,2.1103,2.0967,2.0674,2.0605,2.0507,2.0137,1.9639,1.9141,1.8666,1.8247,1.8008,1.8008,1.8008,1.8008,1.8008,1.8008,1.8008,1.8008,1.8008,1.8008,1.8008,1.8008,1.8008,1.8008,1.8008,1.8008,1.8008,1.8008,1.8008,1.8008,1.8008,1.8337,1.8944,1.8303,1.8687,2.5047,2.54,2.5693,2.5693,2.6245,2.6822,2.6911,2.7629,2.819,2.8125,2.8589,0.0,3.049,3.1722,0.0,0.0,0.0,0.0,3.6054,3.5143,3.3916,0.0,3.2735,0.0,2.9443,2.9209,2.8945,0.0,2.8291,2.8291,2.8291,2.8115,2.7822,2.7393,2.6963,2.6533,2.6103,2.581,2.5693,2.5693,2.5537,2.5312,2.5096,2.4424,2.4014,2.3769,0.0,2.3091,2.3091,2.3091,2.3091,2.3091,2.3091,2.3091,2.3091,2.3091,2.3091,2.3091,2.3091,2.3091,2.3091,2.3091,2.3091,2.3091,2.3091,2.3091,2.3091,2.3091,2.3091,2.3091,2.3091,2.3091,2.3033,2.2799,2.2646,2.2324,2.166,2.1327,2.1064,2.0693,2.0605,2.0527,2.0244,1.9844,1.9414,1.8984,1.8721,1.8437,1.8057,1.8008,1.8008,1.8008,1.8008,1.8008,1.8008,1.8008,1.8008,1.8008,1.8008,1.8008,1.8008,1.8008,1.8008,1.8008,1.8008,1.8008,1.8008,1.8008,1.8462,1.9266,1.8395,1.8944,2.5184,2.5439,2.5693,2.5693,2.5693,2.5567,2.5166,2.5371,2.541,2.459,0.0,2.7288,2.7602,2.9769,3.1736,3.2359,0.0,3.2922,3.4124,3.339,3.2731,3.2794,3.2742,3.1871,2.9806,2.9512,2.915,2.835,2.8291,2.8291,2.8291,2.7891,2.7441,2.6943,2.6523,2.6123,2.5693,2.5693,2.5664,2.5644,2.5254,2.5057,2.492,2.4131,2.376,2.3682,2.3257,0.0,2.3091,2.3091,2.3091,2.3091,2.3091,2.3091,2.3091,2.3091,2.3091,2.3091,2.3091,2.3091,2.3091,2.3091,2.3091,2.3091,2.3091,2.3091,2.3091,2.3091,2.3091,2.3091,2.3091,2.3091,2.3091,2.3091,2.2818,2.248,2.206,2.1582,2.1064,2.0693,2.0605,2.0605,2.0605,2.0205,1.9785,1.9424,1.9277,1.8936,1.8193,1.8096,1.8076,1.8018,1.8008,1.8008,1.8008,1.8008,1.8008,1.8008,1.8008,1.8008,1.8008,1.8008,1.8008,1.8008,1.8008,1.8008,1.8008,1.8008,1.8496,1.9464,1.8596,1.9166,2.5518,2.5625,2.5693,2.5693,2.5693,2.5567,2.5166,2.5127,0.0,0.0,2.4716,2.5309,2.6383,2.7613,2.9099,3.1015,3.0974,3.1201,3.257,3.1574,3.0841,0.0,3.093,0.0,0.0,0.0,0.0,0.0,0.0,2.8291,2.8291,2.7891,2.7305,2.6523,2.6074,2.5762,2.5693,2.5693,2.5557,2.5185,2.5155,2.4744,2.4004,2.3857,2.3594,2.3198,2.313,0.0,2.3091,2.3091,2.3091,2.3091,2.3091,2.3091,2.3091,2.3091,2.3091,2.3091,2.3091,2.3091,2.3091,2.3091,2.3091,2.3091,2.3091,2.3091,2.3091,2.3091,2.3091,2.3091,2.3091,2.3091,2.3091,2.3091,2.3042,2.2877,2.249,2.1787,2.1064,2.0693,2.0605,2.0605,2.0605,2.0205,1.9893,1.9814,1.9163,1.8666,1.851,1.849,1.8364,1.8047,1.8008,1.8008,1.8008,1.8008,1.8008,1.8008,1.8008,1.8008,1.8008,1.8008,1.8008,1.8008,1.8008,1.8008,1.8008,1.8008,1.8821,2.0365,1.9464,2.0354,2.5567,2.5693,2.5693,2.5693,2.5693,2.5508,2.4883,0.0,0.0,0.0,2.4066,2.4623,2.5367,2.6528,0.0,2.8629,2.9232,2.9745,3.0211,3.0072,0.0,3.0176,0.0,0.0,0.0,0.0,0.0,0.0,0.0,2.8193,2.7978,2.7353,2.6709,2.6074,2.5801,2.5693,2.5693,2.5693,2.5518,2.5116,2.4834,2.4404,2.3779,2.3555,2.3286,2.3091,2.3091,0.0,2.3091,2.3091,2.3091,2.3091,2.3091,2.3091,2.3091,2.3091,2.3091,2.3091,2.3091,2.3091,2.3091,2.3091,2.3091,2.3091,2.3091,2.3091,2.3091,2.3091,2.3091,2.3091,2.3091,2.3091,2.3091,2.3091,2.2925,2.2705,2.2275,2.1689,2.1064,2.0693,2.1011,2.1155,2.0673,2.0831,2.0752,2.0017,1.9524,1.9104,1.8656,1.8598,1.8442,1.8057,1.8008,1.8008,1.8008,1.8008,1.8008,1.8008,1.8008,1.8008,1.8008,1.8008,1.8008,1.8008,1.8462,1.8687,1.8687,1.8687,1.9562,2.1227,1.9911,2.0675,2.5498,2.5615,2.5693,2.5693,2.5693,2.546,2.4619,2.4687,0.0,2.3344,2.3627,2.4196,2.4387,2.5508,2.637,0.0,2.7452,2.8268,2.8294,2.8877,2.9365,0.0,0.0,0.0,0.0,0.0,0.0,0.0,0.0,0.0,2.7549,2.6807,2.6182,2.5703,2.5693,2.5693,2.5693,2.5693,2.5469,2.4969,2.458,2.415,2.3633,2.3247,2.3091,2.3091,2.3091,0.0,0.0,2.3091,2.3091,2.3091,2.3091,2.3091,2.3091,2.3091,2.3091,2.3091,2.3091,2.3091,2.3091,2.3091,2.3091,2.3091,2.3091,2.3091,2.3091,2.3091,2.3091,2.3091,2.3091,2.3091,2.3091,2.3091,2.2847,2.2529,2.2109,2.168,2.124,2.0791,2.1254,2.1479,2.0712,2.1221,2.1329,2.0211,1.9971,1.9742,1.9271,1.8935,1.8713,1.8621,1.8331,1.8105,1.8018,1.8086,1.8164,1.8279,1.8269,1.8361,1.8563,1.8563,1.8563,1.8563,1.9243,1.9595,1.9595,1.9595,2.0365,2.1877,2.0494,2.1026,2.5165,2.543,2.5693,2.5693,2.5693,2.546,2.4619,0.0,2.4219,2.3276,2.3159,2.3232,2.3232,2.3723,2.4333,0.0,0.0,2.6516,2.8057,2.8359,2.8701,0.0,0.0,0.0,0.0,0.0,0.0,0.0,0.0,0.0,2.708,2.6641,2.6182,2.5703,2.5693,2.5693,2.5693,2.5693,2.5265,2.4473,2.4434,2.3984,2.3149,2.311,2.3091,2.3091,2.3091,0.0,0.0,2.3091,2.3091,2.3091,2.3091,2.3091,2.3091,2.3091,2.3091,2.3091,2.3091,2.3091,2.3091,2.3091,2.3091,2.3091,2.3091,2.3091,2.3091,2.3091,2.3091,2.3091,2.3091,2.3091,2.3091,2.3091,2.3062,2.2925,2.2549,2.2119,2.1699,2.122,2.0918,2.0712,2.0605,2.0673,2.0663,2.0546,2.0166,2.021,2.1032,2.0028,1.9561,2.0463,1.9329,1.8393,1.8047,1.8325,1.871,1.9164,1.9177,1.9529,2.0333,2.0365,2.0365,2.0365,2.043,2.0494,2.0494,2.0494,2.0974,2.1908,2.1753,2.2187,2.5047,2.54,2.5693,2.5693,2.5693,2.546,2.4619,2.4414,2.417,2.3266,2.3091,2.3091,2.3091,2.3237,2.3682,0.0,0.0,0.0,2.6943,0.0,0.0,0.0,0.0,0.0,0.0,0.0,0.0,0.0,0.0,0.0,2.665,2.623,2.5869,2.5693,2.5693,2.5693,2.5693,2.5469,2.5029,2.4414,2.416,2.3721,2.3091,2.3091,2.3091,2.3091,2.3091,0.0,0.0,2.3091,2.3091,2.3091,2.3091,2.3091,2.3091,2.3091,2.3091,2.3091,2.3091,2.3091,2.3091,2.3091,2.3091,2.3091,2.3091,2.3091,2.3091,2.3091,2.3091,2.3091,2.3091,2.3091,2.3091,2.3091,2.3091,2.2984,2.2607,2.2178,2.1953,2.2068,2.221,2.2339,2.2339,2.2861,2.3047,2.2451,2.1474,2.1183,2.219,2.0545,1.9919,2.147,2.0068,1.9205,1.9649,1.9502,1.9737,2.0511,2.0271,2.0236,2.059,2.059,2.059,2.059,2.1101,2.1396,2.1396,2.1396,2.1803,2.2598,2.2137,2.2322,2.4609,2.5107,2.5537,2.5537,2.5537,2.5342,2.459,2.4316,2.4023,2.3247,2.3091,2.3091,2.3091,2.3091,2.3335,2.4111,0.0,2.4687,2.6006,2.6455,0.0,0.0,0.0,2.7969,0.0,0.0,0.0,0.0,0.0,0.0,2.6221,2.5908,2.5693,2.5693,2.5693,2.5625,2.5537,2.5225,2.4785,2.4228,2.3935,2.3555,2.3091,2.3091,2.3091,2.3091,2.3091,0.0,0.0,2.3091,2.3091,2.3091,2.3091,2.3091,2.3091,2.3091,2.3091,2.3091,2.3091,2.3091,2.3091,2.3091,2.3091,2.3091,2.3091,2.3091,2.3091,2.3091,2.3091,2.3091,2.3091,2.3091,2.3091,2.3091,2.3091,2.309,2.3162,2.2697,2.2524,2.3228,2.3464,2.3514,2.3514,2.4084,2.4301,2.3599,2.2641,2.2397,2.3379,2.1779,2.1191,2.2844,2.1539,2.0726,2.1188,2.0949,2.109,2.1738,2.1428,2.1261,2.1333,2.1353,2.1353,2.1353,2.1928,2.2249,2.2249,2.2249,2.2549,2.3078,2.2506,2.2567,2.3799,2.447,2.5125,2.5125,2.5125,2.4961,2.4521,2.4092,2.3672,2.3188,2.3091,2.3091,2.3091,2.3091,2.3237,2.3721,0.0,0.0,2.5508,2.5703,0.0,0.0,0.0,2.7197,0.0,0.0,0.0,0.0,0.0,0.0,2.5713,2.5693,2.5693,2.5693,2.5693,2.5527,2.5125,2.5116,2.4639,2.3799,2.3789,2.3555,2.3091,2.3091,2.3091,0.0,0.0,0.0,0.0,2.3091,2.3091,2.3091,2.3091,2.3091,2.3091,2.3091,2.3091,2.3091,2.3091,2.3091,2.3091,2.3091,2.3091,2.3091,2.3091,2.3091,2.3091,2.3091,2.3091,2.3091,2.3091,2.3091,2.3091,2.3091,2.3091,2.343,2.4532,2.397,2.3602,2.4748,2.4198,2.3514,2.3514,2.3514,2.3514,2.3514,2.3478,2.3843,2.485,2.4097,2.3843,2.485,2.4061,2.3111,2.2251,2.2611,2.2822,2.2689,2.2682,2.2805,2.306,2.3078,2.3078,2.3078,2.3065,2.3078,2.3078,2.3078,2.3078,2.3108,2.3078,2.3078,2.3789,2.4199,2.4619,2.4619,2.4619,2.4512,2.4092,2.3887,2.3662,2.3188,2.3091,2.3091,2.3091,2.3091,2.3335,2.4102,2.4219,0.0,0.0,0.0,0.0,2.6914,2.7529,2.7832,0.0,0.0,0.0,0.0,0.0,0.0,2.5713,2.5693,2.5693,2.5693,2.5439,2.5215,2.5116,2.4482,2.4053,2.3789,2.3486,2.3227,2.3091,2.3091,2.3091,0.0,0.0,0.0,0.0,2.3091,2.3091,2.3091,2.3091,2.3091,2.3091,2.3091,2.3091,2.3091,2.3091,2.3091,2.3091,2.3091,2.3091,2.3091,2.3091,2.3091,2.3091,2.3091,2.3091,2.3091,2.3091,2.3091,2.3091,2.3091,2.3091,2.343,2.4542,2.4011,2.3841,2.5674,2.5191,2.4743,2.5429,2.5534,2.5534,2.5534,2.4957,2.4886,2.5908,2.4552,2.4145,2.5838,2.5146,2.44,2.4143,2.391,2.39,2.4131,2.3801,2.3437,2.3103,2.3108,2.3108,2.3108,2.3108,2.3108,2.3108,2.3108,2.3108,2.3108,2.3108,2.3108,2.3545,2.3857,2.418,2.418,2.418,2.4111,2.3848,2.3662,2.3467,2.3149,2.3091,2.3091,2.3091,2.3091,2.3266,2.3803,2.4277,0.0,0.0,0.0,0.0,2.672,0.0,0.0,0.0,0.0,0.0,0.0,0.0,0.0,2.5508,2.5596,2.5538,2.5206,2.5127,2.4959,2.459,2.4053,2.3711,2.3545,2.3227,2.3091,2.3091,2.3091,2.3091,0.0,0.0,0.0,0.0,2.3091,2.3091,2.3091,2.3091,2.3091,2.3091,2.3091,2.3091,2.3091,2.3091,2.3091,2.3091,2.3091,2.3091,2.3091,2.3091,2.3091,2.3091,2.3091,2.3091,2.3091,2.3091,2.3091,2.3091,2.3091,2.3091,2.3507,2.5094,2.4626,2.4502,2.6675,2.6287,2.5769,2.6383,2.6499,2.6499,2.6499,2.599,2.5804,2.6418,2.5394,2.5099,2.6383,2.5955,2.5581,2.5581,2.5048,2.4762,2.4793,2.4305,2.374,2.3133,2.3108,2.3108,2.3108,2.3108,2.3108,2.3108,2.3108,2.3108,2.3108,2.3108,2.3108,0.0,2.3437,2.374,2.374,2.374,2.374,2.374,2.3428,0.0,2.3091,2.3091,2.3091,2.3091,2.3091,2.311,2.314,2.41,0.0,0.0,2.5972,0.0,0.0,2.6929,0.0,2.6435,0.0,0.0,0.0,0.0,0.0,2.5135,2.543,2.5206,2.4394,2.4766,2.46,2.3799,2.376,2.3545,2.3091,2.3091,2.3091,2.3091,2.3091,2.3091,0.0,0.0,0.0,0.0,2.3091,2.3091,2.3091,2.3091,2.3091,2.3091,2.3091,2.3091,2.3091,2.3091,2.3091,2.3091,2.3091,2.3091,2.3091,2.3091,2.3091,2.3091,2.3091,2.3091,2.3091,2.3091,2.3091,2.3091,2.3091,2.3091,2.3714,2.5931,2.5585,2.5435,2.7619,2.7216,2.6499,2.6499,2.6499,2.6499,2.6499,2.6499,2.6499,2.6499,2.6499,2.6499,2.6499,2.6499,2.6499,2.6499,2.5996,2.5435,2.4876,2.4356,2.3803,2.3195,2.3133,2.3108,2.3108,2.3108,2.3108,2.3108,2.3108,2.3108,2.3108,2.3108,2.3108,2.3091,0.0,2.3247,2.3247,2.3247,2.3247,0.0,2.3169,2.3091,2.3091,2.3091,2.3091,2.3091,2.3091,2.3198,2.3584,0.0,2.5526,2.6191,0.0,0.0,2.7952,2.8547,2.834,2.6555,0.0,0.0,0.0,0.0,2.5176,2.5125,2.4853,2.4482,2.3955,2.4043,2.3994,2.3789,2.3457,2.3198,2.3091,2.3091,2.3091,2.3091,2.3091,2.3091,0.0,0.0,0.0,2.3091,2.3091,2.3091,2.3091,2.3091,2.3091,2.3091,2.3091,2.3091,2.3091,2.3091,2.3091,2.3091,2.3091,2.3091,2.3091,2.3091,2.3091,2.3091,2.3091,2.3091,2.3091,2.3091,2.3091,2.3091,2.3091,2.3091,2.3591,2.5409,2.5289,2.5333,2.7136,2.6964,2.6499,2.6499,2.6499,2.6499,2.6499,2.6499,2.6499,2.6499,2.6499,2.6499,2.6499,2.6499,2.6499,2.6499,2.6373,2.6047,2.5448,2.4921,2.4368,2.3816,2.3346,2.3108,2.3108,2.3108,2.3108,2.3108,2.3108,2.3108,2.3108,2.3108,2.3108,2.3091,2.3091,2.3091,2.3091,2.3091,2.3091,2.3091,2.3091,2.3091,2.3091,2.3091,2.3266,2.38,2.3877,2.413,2.4895,2.6162,0.0,0.0,0.0,3.0105,2.9126,2.951,2.9299,0.0,0.0,0.0,0.0,0.0,2.5714,2.5254,2.471,2.4131,2.3516,2.3682,2.3691,2.3496,2.3218,2.3091,2.3091,2.3091,2.3091,2.3091,2.3091,2.3091,0.0,0.0,0.0,2.3091,2.3091,2.3091,2.3091,2.3091,2.3091,2.3091,2.3091,2.3091,2.3091,2.3091,2.3091,2.3091,2.3091,2.3091,2.3091,2.3091,2.3091,2.3091,2.3091,2.3091,2.3091,2.3091,2.3091,2.3091,2.3091,2.3091,2.3551,2.5256,2.5171,2.5298,2.6963,2.6876,2.6499,2.6499,2.6499,2.6499,2.6499,2.6499,2.6499,2.6499,2.6499,2.6499,2.6499,2.6499,2.6499,2.6499,2.6499,2.6248,2.5636,2.5109,2.4662,2.4393,2.381,2.3496,2.3496,2.3747,2.3885,2.3885,2.3622,2.3496,2.3496,2.3233,2.3108,2.3299,2.3343,2.3343,2.3343,2.3343,2.343,2.3594,2.3474,2.343,2.3594,2.3637,2.393,2.4872,2.5147,2.5486,0.0,0.0,0.0,3.0989,3.0822,3.0464,3.021,3.0266,0.0,0.0,0.0,0.0,0.0,0.0,2.6414,2.5466,2.4631,2.3842,2.312,2.3496,2.3516,2.3101,2.3091,2.3091,2.3091,2.3091,2.3091,2.3091,2.3091,2.3091,2.3091,0.0,0.0,2.3091,2.3091,2.3091,2.3091,2.3091,2.3091,2.3091,2.3091,2.3091,2.3091,2.3091,2.3091,2.3091,2.3091,2.3091,2.3091,2.3091,2.3091,2.3091,2.3091,2.3091,2.3091,2.3091,2.3091,2.3091,2.3091,2.3091,2.3551,2.5256,2.5227,2.539,2.6988,2.6939,2.66,2.6512,2.6499,2.6499,2.6499,2.6499,2.6499,2.6499,2.6499,2.6499,2.6499,2.6499,2.6499,2.6499,2.6499,2.6285,2.5762,2.5234,2.4876,2.4788,2.4368,2.4117,2.4117,2.4582,2.4788,2.4788,2.4356,2.4079,2.3991,2.3471,2.3195,2.4296,2.4542,2.4542,2.4542,2.4542,2.4798,2.5766,2.5221,2.4798,2.5766,2.5975,2.6016,2.6224,2.6599,2.6961,0.0,0.0,3.0736,0.0,0.0,3.2731,3.121,0.0,0.0,0.0,0.0,0.0,0.0,0.0,2.6101,2.5445,2.4051,2.3227,2.3101,2.3159,2.3159,2.3091,2.3091,2.3091,2.3091,2.3091,2.3091,2.3091,2.3091,2.3091,2.3091,0.0,2.3091,2.3091,2.3091,2.3091,2.3091,2.3091,2.3091,2.3091,2.3091,2.3091,2.3091,2.3091,2.3091,2.3091,2.3091,2.3091,2.3091,2.3091,2.3091,2.3091,2.3091,2.3091,2.3091,2.3091,2.3091,2.3091,2.3091,2.3091,2.3551,2.5256,2.5534,2.584,2.7062,2.7218,2.704,2.6575,2.6499,2.6499,2.6499,2.6499,2.6499,2.6499,2.6499,2.6499,2.6499,2.6499,2.6499,2.6499,2.6499,2.6461,2.6361,2.5799,2.5272,2.4813,2.4713,2.4662,2.4662,2.475,2.4788,2.4788,2.4713,2.4456,2.4004,2.3904,2.3602,2.45,2.5252,2.588,2.6449,2.616,2.585,2.6389,2.6099,2.5891,2.6389,2.6524,2.6678,0.0,0.0,2.8561,2.9768,0.0,3.1753,3.2586,3.3131,3.3171,0.0,0.0,0.0,0.0,0.0,0.0,0.0,0.0,0.0,2.6041,2.4753,2.3757,2.3135,2.3091,2.3091,2.3091,2.3091,2.3091,2.3091,2.3091,2.3091,2.3091,2.3091,2.3091,2.3091,0.0,2.3091,2.3091,2.3091,2.3091,2.3091,2.3091,2.3091,2.3091,2.3091,2.3091,2.3091,2.3091,2.3091,2.3091,2.3091,2.3091,2.3091,2.3091,2.3091,2.3091,2.3091,2.3091,2.3091,2.3091,2.3091,2.3091,2.3091,2.3091,2.3551,2.5256,2.559,2.6011,2.7458,2.772,2.7557,2.704,2.6939,2.6839,2.6537,2.6499,2.6499,2.6499,2.6499,2.6499,2.6499,2.6499,2.6499,2.6499,2.6499,2.6499,2.6499,2.6248,2.5812,2.5259,2.5536,2.5561,2.5247,2.5548,2.5711,2.5711,2.5385,2.4971,2.4443,2.4142,2.369,2.45,2.563,2.676,2.7844,2.7481,2.6999,2.737,2.727,2.7136,2.7393,0.0,0.0,0.0,2.9048,0.0,3.1914,3.2328,3.2566,3.3018,3.3124,3.3124,3.3124,3.3124,0.0,0.0,0.0,0.0,0.0,0.0,0.0,2.6588,2.542,2.4296,2.3135,2.3091,2.3091,2.3091,2.3091,2.3091,2.3091,2.3091,2.3091,2.3091,2.3091,2.3091,2.3091,2.3091,2.3091,2.3091,2.3091,2.3091,2.3091,2.3091,2.3091,2.3091,2.3091,2.3091,2.3091,2.3091,2.3091,2.3091,2.3091,2.3091,2.3091,2.3091,2.3091,2.3091,2.3091,2.3091,2.3091,2.3091,2.3091,2.3091,2.3091,2.3299,2.3915,2.5491,2.592,2.644,2.799,2.8084,2.777,2.7356,2.7216,2.6977,2.6562,2.6499,2.6499,2.6499,2.6499,2.6499,2.6499,2.6499,2.6499,2.6499,2.6499,2.6499,2.6499,2.6499,2.6298,2.5824,2.626,2.6285,2.5799,2.6273,2.6499,2.6499,2.6047,2.546,2.4775,2.4393,2.3816,2.45,2.563,2.676,2.7844,2.8044,2.8387,2.997,2.9468,2.9037,3.0081,0.0,0.0,0.0,3.0501,3.1442,3.2072,3.2667,3.3074,3.3111,0.0,3.3124,3.3124,0.0,0.0,0.0,0.0,0.0,0.0,0.0,0.0,2.6588,2.542,2.4296,2.3135,2.3091,2.3091,2.3091,2.3091,2.3091,2.3091,2.3091,2.3091,2.3091,2.3091,2.3091,2.3091,2.3091,2.3091,2.3091,2.3091,2.3091,2.3091,2.3091,2.3091,2.3091,2.3091,2.3091,2.3091,2.3091,2.3091,2.3091,2.3091,2.3091,2.3091,2.3091,2.3091,2.3091,2.3091,2.3091,2.3091,2.3091,2.3091,2.3091,2.3091,2.392,2.4999,2.6179,2.6823,2.7505,2.8637,2.8047,2.7331,2.7329,2.6889,2.6537,2.6499,2.6499,2.6499,2.6499,2.6499,2.6499,2.6499,2.6499,2.6499,2.6499,2.6499,2.6499,2.6499,2.6499,2.6474,2.6436,2.6474,2.6474,2.6436,2.6474,2.6499,2.6499,2.6449,2.585,2.4788,2.475,2.4148,2.4127,2.5237,2.6336,2.7463,2.8445,2.9423,3.0363,3.0276,3.0177,3.0941,3.1097,0.0,0.0,0.0,3.1574,3.2127,3.2704,3.3124,3.3124,3.3124,3.3124,0.0,0.0,0.0,0.0,0.0,0.0,0.0,0.0,0.0,2.6618,2.6099,2.501,2.3178,2.3091,2.3091,2.3091,2.3091,2.3091,2.3091,2.3091,2.3091,2.3091,2.3091,2.3091,2.3091,2.3091,2.3091,2.3091,2.3091,2.3091,2.3091,2.3091,2.3091,2.3091,2.3091,2.3091,2.3091,2.3091,2.3091,2.3091,2.3091,2.3091,2.3091,2.3091,2.3091,2.3091,2.3091,2.3091,2.3091,2.3091,2.3091,2.3256,2.4006,2.45,2.5284,2.7105,2.7651,2.8126,2.9261,2.9126,2.8725,2.8373,2.8134,2.7758,2.7115,2.7002,2.6889,2.6537,2.6499,2.6499,2.6499,2.6499,2.6499,2.6499,2.6499,2.6499,2.6499,2.6499,2.6499,2.6499,2.6499,2.6499,2.6499,2.6499,2.6499,2.6499,2.6499,2.59,2.4788,2.4788,2.4186,2.3471,2.4839,2.621,2.6969,2.8512,2.9942,3.0495,3.0746,3.0959,3.1311,3.126,3.1148,3.1148,0.0,0.0,0.0,3.2177,3.2541,3.2541,3.2541,0.0,0.0,0.0,0.0,0.0,0.0,0.0,0.0,0.0,0.0,0.0,2.6678,2.5599,2.3714,2.3309,2.3091,2.3091,2.3091,2.3091,2.3091,2.3091,2.3091,2.3091,2.3091,2.3091,2.3091,2.3091,2.3091,2.3091,2.3091,2.3091,2.3091,2.3091,2.3091,2.3091,2.3091,2.3091,2.3091,2.3091,2.3091,2.3091,2.3091,2.3091,2.3091,2.3091,2.3091,2.3091,2.3091,2.3091,2.3091,2.3091,2.3091,2.3387,2.4542,2.5083,2.5828,2.7723,2.8242,2.8638,2.9625,2.9365,2.8925,2.8675,2.8524,2.8097,2.719,2.7203,2.7115,2.6562,2.6499,2.6499,2.6499,2.6499,2.6499,2.6499,2.6499,2.6499,2.6499,2.6499,2.6499,2.6499,2.6499,2.6499,2.6499,2.6499,2.6499,2.6499,2.6499,2.59,2.4788,2.4788,2.4186,2.2617,2.4451,2.6502,2.6502,2.8171,2.993,3.0482,3.1009,3.1386,3.1399,3.0984,3.062,3.062,3.062,0.0,3.062,3.1047,3.1386,3.1386,0.0,0.0,0.0,0.0,0.0,0.0,0.0,0.0,0.0,0.0,0.0,0.0,2.7075,2.5975,2.483,2.3671,2.3091,2.3091,2.3091,2.3091,2.3091,2.3091,2.3091,2.3091,2.3091,2.3091,2.3091,2.3091,2.3091,2.3091,2.3091,2.3091,2.3091,2.3091,2.3091,2.3091,2.3091,2.3091,2.3091,2.3091,2.3091,2.3091,2.3091,2.3091,2.3091,2.3091,2.3091,2.3091,2.3091,2.3091,2.3091,2.3091,2.3135,2.3387,2.4542,2.5683,2.6801,2.7884,2.8535,2.9076,2.9679,2.8448,2.7482,2.8021,2.767,2.7153,2.66,2.6989,2.7128,2.6575,2.6499,2.6499,2.6499,2.6499,2.6499,2.6499,2.6499,2.6499,2.6499,2.6499,2.6499,2.6499,2.6499,2.6499,2.6499,2.6499,2.6499,2.6499,2.6499,2.5933,2.48,2.4788,2.4186,2.1728,2.3547,2.5611,2.5611,0.0,0.0,0.0,3.0733,0.0,0.0,3.1537,3.1047,3.0683,0.0,0.0,3.062,3.1047,0.0,0.0,0.0,0.0,0.0,0.0,0.0,0.0,0.0,0.0,0.0,0.0,0.0,0.0,2.7075,2.5975,2.483,2.3671,2.3091,2.3091,2.3091,2.3091,2.3091,2.3091,2.3091,2.3091,2.3091,2.3091,2.3091,2.3091,2.3091,2.3091,2.3091,2.3091,2.3091,2.3091,2.3091,2.3091,2.3091,2.3091,2.3091,2.3091,2.3091,2.3091,2.3091,2.3091,2.3091,2.3091,2.3091,2.3091,2.3091,2.3091,2.3256,2.4082,2.4296,2.4585,2.5724,2.683,2.7936,2.9067,2.9409,2.9591,2.9767,2.939,2.9101,2.9264,2.9151,2.885,2.8285,2.8335,2.8097,2.719,2.7065,2.6927,2.6537,2.6499,2.6499,2.6499,2.6499,2.6499,2.6499,2.6499,2.6499,2.6499,2.6499,2.6499,2.6499,2.6499,2.6499,2.6499,2.6499,2.6122,2.536,2.4996,2.4431,2.1765,2.3359,2.5147,2.5598,2.7408,2.9298,2.9977,0.0,0.0,0.0,3.1461,3.0984,3.067,3.0432,0.0,0.0,0.0,0.0,0.0,0.0,0.0,0.0,0.0,0.0,0.0,0.0,0.0,0.0,0.0,0.0,0.0,2.7735,2.6625,2.5504,2.4382,2.3551,2.3091,2.3091,2.3091,2.3091,2.3091,2.3091,2.3091,2.3091,2.3091,2.3091,2.3091,2.3091,2.3091,2.3091,2.3091,2.3091,2.3091,2.3091,2.3091,2.3091,2.3091,2.3091,2.3091,2.3091,2.3091,2.3091,2.3091,2.3091,2.3091,2.3091,2.3091,2.3091,2.343,2.392,2.4628,2.5452,2.6273,2.6953,2.7643,2.8426,2.9534,2.9792,2.9792,2.9792,2.9603,2.9453,2.9453,2.9453,2.9264,2.8687,2.8562,2.836,2.7695,2.7419,2.7278,2.7165,2.6751,2.6587,2.6801,2.6612,2.6499,2.6499,2.6499,2.6499,2.6499,2.6499,2.6499,2.6499,2.6499,2.6499,2.6499,2.6499,2.6197,2.5586,2.5059,2.4519,2.2402,2.3547,2.4978,2.6033,2.7204,0.0,3.0169,3.0545,3.0683,3.121,0.0,3.0608,3.0557,3.0131,2.9792,0.0,0.0,0.0,0.0,0.0,0.0,0.0,0.0,0.0,0.0,0.0,0.0,0.0,0.0,0.0,0.0,2.8727,2.7643,2.6678,2.5462,2.4296,2.3256,2.3135,2.3091,2.3091,2.3091,2.3091,2.3091,2.3091,2.3091,2.3091,2.3091,2.3091,2.3091,2.3091,2.3091,2.3091,2.3091,2.3091,2.3091,2.3091,2.3091,2.3091,2.3091,2.3091,2.3091,2.3091,2.3091,2.3091,2.3091,2.3091,2.3091,2.3091,2.392,2.483,2.4914,2.6521,2.8136,2.8215,2.8255,2.8557,2.9573,2.9792,2.9792,2.9792,2.9365,2.8963,2.8963,2.8963,2.8837,2.8335,2.826,2.8247,2.8185,2.7745,2.7607,2.8059,2.7241,2.6851,2.7318,2.6939,2.665,2.665,2.66,2.6562,2.6562,2.6524,2.6499,2.6499,2.6499,2.6499,2.6499,2.6499,2.6197,2.5586,2.5059,2.4551,2.1561,2.2848,0.0,2.4635,2.6413,2.841,2.9683,2.9967,3.0118,3.067,3.0696,3.0482,3.0043,0.0,0.0,0.0,0.0,0.0,0.0,0.0,0.0,0.0,0.0,0.0,0.0,0.0,0.0,0.0,0.0,0.0,2.9792,2.8727,2.8004,2.7763,2.5828,2.466,2.4414,2.3551,2.3091,0.0,2.3091,2.3091,2.3091,2.3091,2.3091,2.3091,2.3091,2.3091,2.3091,2.3091,2.3091,2.3091,2.3091,2.3091,2.3091,2.3091,2.3091,2.3091,2.3091,2.3091,2.3091,2.3091,2.3091,2.3091,2.3091,2.3091,2.3091,2.3091,2.392,2.4999,2.5891,2.7116,2.8347,2.9236,2.9443,2.9495,2.9753,2.9792,2.9792,2.9792,2.9691,2.9603,2.9603,2.9603,2.9566,2.9453,2.9428,2.9264,2.8775,2.8612,2.8448,2.8134,2.7896,2.7795,2.7921,2.7821,2.7758,2.7758,2.7344,2.714,2.714,2.6725,2.6499,2.6499,2.6499,2.6499,2.6499,2.6499,2.6197,2.5586,2.5059,2.4823,2.1622,0.0,0.0,2.4305,0.0,2.8255,2.8846,2.9404,2.988,3.0168,3.0218,3.0131,0.0,0.0,0.0,0.0,0.0,0.0,0.0,0.0,0.0,0.0,0.0,0.0,0.0,0.0,0.0,0.0,0.0,2.9792,2.9792,2.9236,2.8648,2.8136,2.6971,2.6108,2.563,2.501,2.4723,2.4723,2.4178,2.3637,2.3091,2.3091,2.3091,2.3091,2.3091,2.3091,2.3091,2.3091,2.3091,2.3091,2.3091,2.3091,2.3091,2.3091,2.3091,2.3091,2.3091,2.3091,2.3091,2.3091,2.3091,2.3091,2.3091,2.3091,2.3222,2.3757,2.4713,2.588,2.6994,2.8068,2.9067,2.9663,2.9792,2.9792,2.9792,2.9792,2.9792,2.9792,2.9792,2.9792,2.9792,2.9792,2.9792,2.9792,2.9792,2.9679,2.9377,2.9063,2.8888,2.8913,2.8423,2.821,2.8473,2.826,2.8109,2.8109,2.7595,2.7281,2.7281,2.6788,2.6499,2.6499,2.6499,2.6499,2.6499,2.6871,2.6765,2.6108,2.6002,2.5813,2.1482,0.0,2.2764,2.4407,2.6191,0.0,2.8004,2.8819,2.9573,2.9753,2.9792,0.0,0.0,0.0,0.0,0.0,0.0,0.0,0.0,0.0,0.0,0.0,0.0,0.0,0.0,0.0,0.0,0.0,0.0,2.9792,2.9792,2.9792,2.9365,2.8426,2.8215,2.7683,2.676,2.6595,2.6524,2.6483,2.5546,2.4585,2.3681,2.3464,2.3309,2.3091,2.3091,2.3091,2.3091,2.3091,2.3091,2.3091,2.3091,2.3091,2.3091,2.3091,2.3091,2.3091,2.3091,2.3091,2.3091,2.3091,2.3091,2.3091,2.3091,2.3266,2.3594,2.4542,2.5755,2.6964,2.7884,2.8937,2.9792,2.9792,2.9792,2.9792,2.9792,2.9792,2.9792,2.9792,2.9792,2.9792,2.9792,2.9792,2.9792,2.9792,2.9792,2.9792,2.9792,2.9377,2.9264,2.9741,2.8963,2.8586,2.9001,2.8662,2.8398,2.8398,2.7783,2.7419,2.7419,2.6839,2.6555,2.6679,2.6714,2.6714,2.6714,2.755,2.7582,2.6985,2.7247,2.7031,1.9505,0.0,2.2431,0.0,2.5041,2.5734,0.0,0.0,2.8597,0.0,0.0,0.0,0.0,0.0,0.0,0.0,0.0,0.0,0.0,0.0,0.0,0.0,0.0,0.0,0.0,0.0,0.0,0.0,2.9792,2.9792,2.9792,2.9792,2.9714,2.9573,2.8597,2.8044,2.7896,2.6964,2.6524,2.6524,2.6348,2.6182,2.6016,2.4999,2.4049,2.3091,2.3091,2.3091,2.3091,2.3091,2.3091,2.3091,2.3091,2.3091,2.3091,2.3091,2.3091,2.3091,2.3091,2.3091,2.3091,2.3091,2.3091,2.3091,2.3091,2.38,2.4585,2.4745,2.6273,2.7936,2.8044,2.8937,2.9792,2.9792,2.9792,2.9792,2.9792,2.9792,2.9792,2.9792,2.9792,2.9792,2.9792,2.9792,2.9792,2.9792,2.9792,2.9792,2.9792,2.9729,2.9704,2.9779,2.9654,2.9591,2.9666,2.9603,2.9566,2.9566,2.8574,2.7996,2.7996,2.704,2.685,2.755,2.7537,2.7537,2.7537,2.8395,2.8528,2.7999,2.8052,2.7788,1.9048,2.0806,2.251,0.0,2.4339,2.5031,2.6025,0.0,2.7533,2.8609,0.0,0.0,0.0,0.0,0.0,0.0,0.0,0.0,0.0,0.0,0.0,0.0,0.0,0.0,0.0,0.0,0.0,0.0,2.9792,2.9792,2.9792,2.9792,2.9792,2.9792,2.9314,2.9067,2.9067,2.8581,2.8039,2.7412,2.7412,2.7075,2.6472,2.5975,2.5136,2.4006,2.3387,2.3091,2.3091,2.3091,2.3464,2.4049,2.4049,2.4425,2.502,2.502,2.4595,2.4049,2.4049,2.3627,2.3091,2.3091,2.3091,2.3222,2.3877,2.4414,2.5073,2.6315,2.7348,2.8255,2.8897,2.9404,2.9792,2.9792,2.9792,2.9792,2.9792,2.9792,2.9792,2.9792,2.9792,2.9792,2.9792,2.9792,2.9792,2.9792,2.9792,2.9792,2.9792,2.9792,2.9792,2.9792,2.9792,2.9792,2.9792,2.9792,2.9654,2.9327,2.8549,2.7971,2.7657,2.6914,2.6871,2.767,2.7703,2.7953,2.8427,2.9286,2.9409,2.8831,2.8929,2.8677,0.0,0.0,2.173,2.2697,2.3596,2.4322,0.0,0.0,2.6389,0.0,0.0,0.0,0.0,0.0,0.0,0.0,0.0,0.0,0.0,0.0,0.0,0.0,0.0,0.0,0.0,0.0,0.0,0.0,2.9792,2.9792,2.9792,2.9792,2.9792,2.9792,2.9792,2.9792,2.9792,2.9792,2.9365,2.8518,2.8518,2.8108,2.7342,2.7046,2.6461,2.5577,2.4467,2.3973,2.3973,2.3973,2.4467,2.521,2.521,2.5755,2.6524,2.6524,2.5975,2.521,2.4914,2.4253,2.3464,2.3178,2.3299,2.3671,2.4542,2.5199,2.5983,2.7631,2.8307,2.8727,2.9573,2.9792,2.9792,2.9792,2.9792,2.9792,2.9792,2.9792,2.9792,2.9792,2.9792,2.9792,2.9792,2.9792,2.9792,2.9792,2.9792,2.9792,2.9792,2.9792,2.9792,2.9792,2.9792,2.9792,2.9792,2.9792,2.9616,2.9176,2.8499,2.7921,2.7507,2.7059,2.7196,2.8019,2.8247,2.8684,2.9317,3.0208,3.0337,2.9857,2.9854,2.9475,0.0,1.8985,0.0,2.191,2.2591,0.0,0.0,0.0,0.0,0.0,0.0,0.0,0.0,0.0,0.0,0.0,0.0,0.0,0.0,0.0,0.0,0.0,0.0,0.0,0.0,0.0,0.0,0.0,2.9792,2.9792,2.9792,2.9792,2.9792,2.9792,2.9792,2.9792,2.9792,2.9792,2.9753,2.9702,2.9702,2.9663,2.9585,2.8518,2.7964,2.7884,2.6801,2.6307,2.6307,2.6307,2.6348,2.6389,2.6389,2.6431,2.6524,2.6524,2.6472,2.6265,2.5168,2.4745,2.4542,2.3464,2.3833,2.4702,2.4787,2.6273,2.7964,2.8084,2.8897,2.9714,2.9792,2.9792,2.9792,2.9792,2.9792,2.9792,2.9792,2.9792,2.9792,2.9792,2.9792,2.9792,2.9792,2.9792,2.9792,2.9792,2.9792,2.9792,2.9792,2.9792,2.9792,2.9792,2.9792,2.9792,2.9792,2.9792,2.9779,2.9754,2.8712,2.8097,2.8059,2.7778,2.8051,2.8907,2.9735,3.0208,3.0238,3.1029,3.1423,3.1378,3.0748,3.0118,0.0,0.0,0.0,2.0479,2.0973,2.1527,2.2981,0.0,0.0,0.0,0.0,0.0,0.0,0.0,0.0,0.0,0.0,0.0,0.0,0.0,0.0,0.0,0.0,0.0,0.0,0.0,0.0,0.0,0.0,2.9792,2.9792,2.9792,2.9792,2.9792,2.9792,2.9792,2.9792,2.9792,2.9792,2.9792,2.9792,2.9792,2.9792,2.9365,2.9197,2.9157,2.8791,2.7799,2.6524,2.6524,2.6924,2.7522,2.7522,2.7988,2.8633,2.8633,2.8159,2.7481,2.7064,2.6449,2.5797,2.5389,2.5557,2.6005,2.6696,2.747,2.8255,2.8988,2.9495,2.9792,2.9792,2.9792,2.9792,2.9792,2.9792,2.9792,2.9792,2.9792,2.9792,2.9792,2.9792,2.9792,2.9792,2.9792,2.9792,2.9792,2.9792,2.9792,2.9792,2.9792,2.9792,2.9792,2.9792,2.9792,2.9792,2.9792,2.9478,2.8762,2.8335,2.7783,2.7115,2.747,2.8117,2.8971,2.9858,3.0554,3.1058,3.1351,3.1511,3.1481,3.0417,2.9816,1.6765,0.0,0.0,0.0,0.0,2.0236,2.2084,0.0,0.0,0.0,0.0,0.0,0.0,0.0,0.0,0.0,0.0,0.0,0.0,0.0,0.0,0.0,0.0,0.0,0.0,0.0,0.0,0.0,0.0,0.0,2.9792,2.9792,2.9792,2.9792,2.9792,2.9792,2.9792,2.9792,2.9792,2.9792,2.9792,2.9792,2.9792,2.9792,2.9792,2.9792,2.9792,2.8961,2.7597,2.7597,2.8039,2.8688,2.8688,2.9145,2.9792,2.9792,2.9326,2.8609,2.8215,2.7643,2.6964,2.6637,2.6719,2.7168,2.7884,2.8386,2.8819,2.9585,2.9792,2.9792,2.9792,2.9792,2.9792,2.9792,2.9792,2.9792,2.9792,2.9792,2.9792,2.9792,2.9792,2.9792,2.9792,2.9792,2.9792,2.9792,2.9792,2.9792,2.9792,2.9792,2.9792,2.9792,2.9792,2.9792,2.9792,2.9616,2.9176,2.8436,2.8299,2.7918,2.7212,2.8079,2.8844,2.9442,3.0269,3.097,3.1511,3.1511,3.1391,3.1137,3.0088,2.9367,0.0,0.0,0.0,0.0,0.0,0.0,0.0,0.0,0.0,0.0,0.0,0.0,0.0,0.0,0.0,0.0,0.0,0.0,0.0,0.0,0.0,0.0,0.0,0.0,0.0,0.0,0.0,0.0,2.983,2.9792,2.9792,2.9792,2.9779,2.9767,2.9767,2.9767,2.9767,2.9767,2.9779,2.9792,2.9792,2.9792,2.9792,2.9792,2.9792,2.9792,2.9792,2.9792,2.9792,2.9792,2.9792,2.9792,2.9792,2.9792,2.9792,2.9792,2.9792,2.9624,2.8518,2.8136,2.7976,2.6924,2.7279,2.8136,2.8136,2.8937,2.9792,2.9792,2.9792,2.9792,2.9792,2.9792,2.9792,2.9792,2.9792,2.9792,2.9792,2.9792,2.9792,2.9792,2.9792,2.9792,2.9792,2.9792,2.9792,2.9792,2.9792,2.9792,2.9792,2.9792,2.9792,2.9792,2.983,2.983,2.983,2.929,2.8988,2.8975,2.8688,2.8541,2.8528,2.9673,3.0299,3.0299,3.1087,3.1511,3.1511,3.1511,3.1167,3.0507,2.9894,2.8918,1.7406,0.0,0.0,0.0,0.0,0.0,0.0,0.0,0.0,0.0,0.0,0.0,0.0,0.0,0.0,0.0,0.0,0.0,0.0,0.0,0.0,0.0,0.0,0.0,0.0,0.0,0.0,0.0,3.0177,2.9792,2.9792,2.9792,2.9603,2.9176,2.9126,2.9126,2.9126,2.9126,2.9377,2.9792,2.9792,2.9792,2.9792,2.9792,2.9792,2.9792,2.9792,2.9792,2.9792,2.9792,2.9792,2.9792,2.9792,2.9792,2.9792,2.9792,2.9792,2.9753,2.9443,2.9326,2.9287,2.9,2.9079,2.9326,2.9326,2.9534,2.9792,2.9792,2.9792,2.9792,2.9792,2.9792,2.9792,2.9792,2.9792,2.9792,2.9792,2.9792,2.9792,2.9792,2.9792,2.9792,2.9792,2.9792,2.9792,2.9792,2.9792,2.9792,2.9792,2.9792,2.9792,2.9792,3.0419,3.0796,3.0796,3.0834,3.0694,3.0298,2.9761,2.9269,2.8866,2.9789,3.0299,3.0299,3.1087,3.1511,3.1511,3.1511,3.1406,3.1212,3.0552,2.9549,0.0,0.0,0.0,0.0,0.0,0.0,0.0,1.9439,0.0,0.0,0.0,0.0,0.0,0.0,0.0,0.0,0.0,0.0,0.0,0.0,0.0,0.0,0.0,0.0,0.0,3.1997,3.1217,3.1217,3.0317,2.9691,2.9453,2.9666,2.9415,2.8574,2.9051,2.9126,2.8888,2.9126,2.9453,2.9792,2.9792,2.9792,2.9792,2.9792,2.9792,2.9792,2.9792,2.9792,2.9792,2.9792,2.9792,2.9792,2.9792,2.9792,2.9792,2.9792,2.9792,2.9792,2.9792,2.9792,2.9792,2.9792,2.9792,2.9792,2.9792,2.9792,2.9792,2.9792,2.9792,2.9792,2.9792,2.9792,2.9792,2.9792,2.9792,2.9792,2.9792,2.9792,2.9792,2.9792,2.9792,2.9792,2.9792,2.9792,2.9792,2.9792,2.9792,2.9792,2.9792,2.9792,2.9934,3.0343,3.0871,3.1259,3.137,3.1299,3.0992,3.0433,3.015,2.9883,2.9549,3.0359,3.0807,3.0807,3.1248,3.1511,3.1511,3.1511,3.1227,3.0687,2.9729,2.8876,0.0,0.0,0.0,0.0,0.0,0.0,1.8663,1.9071,1.9504,0.0,0.0,0.0,0.0,0.0,0.0,0.0,0.0,0.0,0.0,0.0,0.0,0.0,0.0,0.0,3.391,3.25,3.1462,3.1352,3.0381,2.9541,2.8925,2.9478,2.9277,2.8147,2.9139,2.9453,2.89,2.944,2.9729,2.9792,2.9792,2.9792,2.9792,2.9792,2.9792,2.9792,2.9792,2.9792,2.9792,2.9792,2.9792,2.9792,2.9792,2.9792,2.9792,2.9792,2.9792,2.9792,2.9792,2.9792,2.9792,2.9792,2.9792,2.9792,2.9792,2.9792,2.9792,2.9792,2.9792,2.9792,2.9792,2.9792,2.9792,2.9792,2.9792,2.9792,2.9792,2.9792,2.9792,2.9792,2.9792,2.9792,2.9792,2.9792,2.9792,2.9792,2.9792,2.9792,2.9792,2.9895,3.0279,3.1106,3.1389,3.1573,3.1751,3.136,3.0801,3.0137,3.0292,3.0419,3.0419,3.1117,3.1511,3.1511,3.1511,3.1511,3.1511,3.1511,3.0896,2.9681,2.8483,2.7839,0.0,0.0,0.0,0.0,0.0,0.0,1.7198,1.7967,1.8579,0.0,0.0,0.0,0.0,0.0,0.0,0.0,0.0,0.0,0.0,0.0,0.0,0.0,0.0,0.0,3.3935,3.3671,3.3136,3.2393,3.0784,2.9541,2.8925,2.9478,2.9277,2.8147,2.8712,2.9001,2.8888,2.9001,2.934,2.9792,2.9792,2.9792,2.9792,2.9792,2.9792,2.9792,2.9792,2.9792,2.9792,2.9792,2.9792,2.9792,2.9792,2.9792,2.9792,2.9792,2.9792,2.9792,2.9792,2.9792,2.9792,2.9792,2.9792,2.9792,2.9792,2.9792,2.9792,2.9792,2.9792,2.9792,2.9792,2.9792,2.9792,2.9792,2.9792,2.9792,2.9792,2.9792,2.9792,2.9792,2.9792,2.9792,2.9792,2.9792,2.9792,2.9792,2.9792,2.9792,2.9792,3.0444,3.1007,3.118,3.2558,3.3291,3.283,3.2899,3.2679,3.2031,3.1516,3.1278,3.1278,3.1409,3.1511,3.1511,3.1511,3.1511,3.1511,3.1511,3.1092,3.0313,3.0058,2.9385,0.0,0.0,0.0,1.8438,0.0,0.0,0.0,1.7941,1.8573,1.8478,0.0,0.0,0.0,0.0,0.0,0.0,0.0,0.0,0.0,0.0,0.0,0.0,0.0,0.0,3.2754,3.2479,3.1913,3.1254,3.0049,2.9114,2.8512,2.88,2.8561,2.772,2.8461,2.8888,2.8888,2.9214,2.9503,2.9792,2.9792,2.9792,2.9792,2.9792,2.9792,2.9792,2.9792,2.9792,2.9792,2.9792,2.9792,2.9792,2.9792,2.9792,2.9792,2.9792,2.9792,2.9792,2.9792,2.9792,2.9792,2.9792,2.9792,2.9792,2.9792,2.9792,2.9792,2.9792,2.9792,2.9792,2.9792,2.9792,2.9792,2.9792,2.9792,2.9792,2.9792,2.9792,2.9792,2.9792,2.9792,2.9792,2.9792,2.9792,2.9792,2.9792,2.9792,2.9972,3.0457,3.0895,3.1573,3.25,3.316,3.3469,3.3314,3.3119,3.2721,3.2034,3.169,3.1511,3.1511,3.1511,3.1511,3.1511,3.1511,3.1511,3.1511,3.1511,3.0987,3.0028,2.9714,2.9026,0.0,0.0,0.0,0.0,0.0,1.925,0.0,0.0,0.0,1.9387,0.0,0.0,0.0,0.0,0.0,0.0,0.0,0.0,0.0,0.0,0.0,0.0,0.0,0.0,0.0,3.0472,2.9993,2.9745,2.9038,2.8411,2.7971,2.8047,2.7896,2.7457,2.8411,2.895,2.9051,2.9566,2.9792,2.9792,2.9792,2.9792,2.9792,2.9792,2.9792,2.9792,2.9792,2.9792,2.9792,2.9792,2.9792,2.9792,2.9792,2.9792,2.9792,2.9792,2.9792,2.9792,2.9792,2.9792,2.9792,2.9792,2.9792,2.9792,2.9792,2.9792,2.9792,2.9792,2.9792,2.9792,2.9792,2.9792,2.9792,2.9792,2.9792,2.9792,2.9792,2.9792,2.9792,2.9792,2.9792,2.9792,2.9792,2.9792,2.9792,2.9792,2.9934,3.0343,3.1106,3.1536,3.228,3.3684,3.3556,3.3352,3.3304,3.2826,3.2198,3.154,3.1511,3.1511,3.1511,3.1511,3.1511,3.1511,3.1511,3.1511,3.1511,3.1511,3.0866,2.9592,2.9041,2.8353,0.0,0.0,0.0,0.0,2.009,0.0,0.0,0.0,1.852,1.8281,0.0,0.0,0.0,0.0,0.0,0.0,0.0,0.0,0.0,0.0,0.0,0.0,0.0,0.0,0.0,2.8765,2.9064,2.9517,2.826,2.7444,2.7381,2.7846,2.8084,2.8009,2.8574,2.9176,2.9691,2.9767,2.9792,2.9792,2.9792,2.9792,2.9792,2.9792,2.9792,2.9792,2.9792,2.9792,2.9792,2.9792,2.9792,2.9792,2.9792,2.9792,2.9792,2.9792,2.9792,2.9792,2.9792,2.9792,2.9792,2.9792,2.9792,2.9792,2.9792,2.9792,2.9792,2.9792,2.9792,2.9792,2.9792,2.9792,2.9792,2.9792,2.9792,2.9792,2.9792,2.9792,2.9792,2.9792,2.9792,2.9792,2.9792,2.9792,2.9792,2.9792,3.052,3.1068,3.118,3.2629,3.3573,3.3226,3.388,3.387,3.2706,3.2527,3.2198,3.154,3.1511,3.1511,3.1511,3.1511,3.1511,3.1511,3.1511,3.1511,3.1511,3.1511,3.0866,2.9606,2.9532,2.8813,0.0,0.0,0.0,0.0,0.0,0.0,1.8617,0.0,1.8256,0.0,0.0,0.0,0.0,0.0,0.0,0.0,0.0,0.0,0.0,0.0,0.0,0.0,0.0,0.0,0.0,0.0,0.0,0.0,2.7832,2.7419,2.7745,2.7984,2.8247,2.8537,2.8762,2.9202,2.9779,2.9792,2.9792,2.9792,2.9792,2.9792,2.9792,2.9792,2.9792,2.9792,2.9792,2.9792,2.9792,2.9792,2.9792,2.9792,2.9792,2.9792,2.9792,2.9792,2.9792,2.9792,2.9792,2.9792,2.9792,2.9792,2.9792,2.9792,2.9792,2.9792,2.9792,2.9792,2.9792,2.9792,2.9792,2.9792,2.9792,2.9792,2.9792,2.9792,2.9792,2.9792,2.9972,3.052,3.0177,3.0152,3.123,3.0533,2.996,3.052,3.0932,3.1609,3.2664,3.3518,3.3965,3.3909,3.394,3.3529,3.2587,3.2123,3.1795,3.1525,3.1511,3.1511,3.1511,3.1511,3.1511,3.1511,3.1511,3.1511,3.1511,3.1511,3.1017,3.0103,2.9771,2.8888,2.5639,0.0,0.0,0.0,0.0,0.0,0.0,0.0,0.0,0.0,0.0,0.0,0.0,0.0,0.0,0.0,0.0,0.0,0.0,0.0,0.0,0.0,0.0,0.0,0.0,0.0,0.0,0.0,0.0,2.6708,2.7833,2.7883,2.8197,2.8863,2.8888,2.9202,2.9779,2.9792,2.9792,2.9792,2.9792,2.9792,2.9792,2.9792,2.9792,2.9792,2.9792,2.9792,2.9792,2.9792,2.9792,2.9792,2.9792,2.9792,2.9792,2.9792,2.9792,2.9792,2.9792,2.9792,2.9792,2.9792,2.9792,2.9792,2.9792,2.9792,2.9792,2.9792,2.9792,2.9792,2.9792,2.9792,2.9792,2.9792,2.9792,2.9856,3.0139,2.9972,3.0139,3.1365,3.0833,3.0709,3.2321,3.1267,3.0482,3.1426,3.1815,3.2464,3.3808,3.4085,3.4149,3.4215,3.3619,3.2961,3.2273,3.178,3.1511,3.1511,3.1511,3.1511,3.1511,3.1511,3.1511,3.1511,3.1511,3.1511,3.1511,3.1511,3.1152,3.0492,2.9864,2.8992,0.0,0.0,0.0,2.2615,0.0,0.0,0.0,0.0,1.9131,0.0,0.0,0.0,0.0,0.0,0.0,0.0,0.0,0.0,0.0,0.0,0.0,0.0,0.0,0.0,0.0,0.0,0.0,0.0,0.0,0.0,2.7183,2.7341,2.7808,2.8863,2.8888,2.9202,2.9779,2.9792,2.9792,2.9792,2.9792,2.9792,2.9792,2.9792,2.9792,2.9792,2.9792,2.9792,2.9792,2.9792,2.9792,2.9792,2.9792,2.9792,2.9792,2.9792,2.9792,2.9792,2.9792,2.9792,2.9792,2.9792,2.9792,2.9792,2.9792,2.9792,2.9792,2.9792,2.9792,2.9792,2.9792,2.9792,2.9792,2.9792,2.9792,3.0037,3.097,3.0457,3.0355,3.2177,3.1815,3.1462,3.2429,3.1792,3.1462,3.2429,3.3345,3.391,3.3993,3.4265,3.4247,3.3604,3.2946,3.2243,3.1585,3.1511,3.1511,3.1511,3.1511,3.1511,3.1511,3.1511,3.1511,3.1511,3.1511,3.1511,3.1511,3.1511,3.1152,3.0492,2.9864,2.922,0.0,0.0,2.6691,2.5543,0.0,0.0,0.0,0.0,0.0,0.0,0.0,0.0,0.0,0.0,0.0,0.0,0.0,0.0,0.0,0.0,0.0,0.0,0.0,0.0,0.0,0.0,0.0,0.0,2.4596,0.0,0.0,2.8536,2.9114,2.949,2.9503,2.9591,2.9792,2.9792,2.9603,2.9227,2.9616,2.9591,2.9239,2.9616,2.9792,2.9792,2.9792,2.9792,2.9792,2.9792,2.9792,2.9792,2.9792,2.9792,2.9792,2.9792,2.9792,2.9792,2.9792,2.9792,2.9792,2.9792,2.9792,2.9792,2.9792,2.9792,2.9792,2.9792,2.9792,2.9792,2.9792,3.0241,3.0558,2.9934,3.0746,3.1586,3.1254,3.1439,3.201,3.3276,3.2784,3.2642,3.424,3.3685,3.3171,3.3484,3.3808,3.4085,3.4301,3.4433,3.4053,3.2961,3.2647,3.2213,3.157,3.1511,3.1511,3.1511,3.1511,3.1511,3.1511,3.1511,3.1511,3.1511,3.1511,3.1271,3.0851,3.0851,3.0522,2.9879,2.9235,2.8816,2.9792,2.8976,0.0,2.704,2.5005,0.0,2.2644,0.0,0.0,0.0,0.0,0.0,0.0,0.0,0.0,0.0,0.0,0.0,0.0,0.0,0.0,0.0,0.0,0.0,0.0,0.0,2.0466,2.3275,0.0,0.0,0.0,0.0,2.9578,2.9779,2.9792,2.9792,2.9792,2.9792,2.9603,2.9239,2.9616,2.9591,2.9252,2.9616,2.9792,2.9792,2.9792,2.9792,2.9792,2.9792,2.9792,2.9792,2.9792,2.9792,2.9792,2.9792,2.9792,2.9792,2.9792,2.9792,2.9869,3.0177,3.0317,3.0343,3.0709,3.0558,3.0317,3.0317,3.0317,3.0203,2.9908,3.0733,3.1462,3.052,3.1476,3.2522,3.2249,3.2429,3.2996,3.4293,3.3754,3.3602,3.5213,3.4953,3.4543,3.4543,3.4543,3.4523,3.4498,3.4294,3.3709,3.2632,3.2273,3.1974,3.154,3.1511,3.1511,3.1511,3.1511,3.1511,3.1511,3.1511,3.1511,3.1511,3.1511,3.1286,3.0866,3.0627,3.0298,2.9894,2.9011,2.8607]}]]